ftp/pub/palmer/observations_modified/2019/April/original_files/AR190406_BASE.txt

Download

Sample DateTime	Unit Id	WS Avg 2min	WD Avg 2min	WGS 10min	WGD 10min	Air Temp	Rel Humidity	Dew Point	Pyranometer	Quantum	Air Pressure	Snow Level	Rainfall	PW Current	Visibility	CBase 1	CBase 2	CBase 3	Vert Vis
2019/04/06 00:00:02	BASE	24.77	112	30.87	111	-1.0	93	-1.9	0	0	970.9	NA	0.0000	UP	9999	0	0	0	0
2019/04/06 00:01:02	BASE	24.19	110	30.30	113	-1.0	93	-1.9	0	0	970.8	NA	0.0000	UP	9999	6890	0	0	0
2019/04/06 00:02:02	BASE	24.32	107	30.30	113	-1.0	93	-2.0	0	0	970.9	NA	0.0000	UP	9999	0	0	0	0
2019/04/06 00:03:02	BASE	23.90	107	30.30	113	-1.0	93	-2.0	0	0	970.8	NA	0.0000	UP	9999	0	0	0	0
2019/04/06 00:04:02	BASE	23.70	108	30.30	113	-1.0	93	-2.0	0	0	970.8	NA	0.0000	UP	9999	0	0	0	0
2019/04/06 00:05:02	BASE	23.79	107	30.30	113	-1.0	93	-2.0	0	0	970.7	NA	0.0000	UP	9999	0	0	0	620
2019/04/06 00:06:02	BASE	23.62	109	30.30	113	-1.0	93	-2.0	0	0	970.8	NA	0.0000	UP	9999	8140	0	0	0
2019/04/06 00:07:01	BASE	21.88	112	30.30	113	-1.0	93	-2.0	0	0	970.8	NA	0.0000	UP	9999	0	0	0	460
2019/04/06 00:08:01	BASE	23.46	114	30.30	113	-1.0	93	-2.0	0	0	970.7	NA	0.0000	UP	9999	0	0	0	0
2019/04/06 00:09:02	BASE	23.13	120	28.45	107	-1.0	93	-2.0	0	0	970.8	NA	0.0000	UP	9999	0	0	0	560
2019/04/06 00:10:03	BASE	20.50	127	28.45	107	-1.0	93	-1.9	0	0	970.7	NA	0.0000	UP	9999	0	0	0	920
2019/04/06 00:11:02	BASE	21.35	124	28.35	110	-1.0	94	-1.9	0	0	970.7	NA	0.0000	UP	9999	0	0	0	720
2019/04/06 00:12:02	BASE	22.39	114	28.35	110	-0.9	94	-1.8	0	0	970.6	NA	0.0000	UP	9999	0	0	0	1080
2019/04/06 00:13:02	BASE	22.32	113	28.35	110	-0.9	94	-1.8	0	0	970.6	NA	0.0000	UP	9999	0	0	0	520
2019/04/06 00:14:02	BASE	22.25	116	28.35	110	-0.9	94	-1.8	0	0	970.4	NA	0.0000	UP	9999	0	0	0	720
2019/04/06 00:15:02	BASE	22.52	114	28.35	110	-0.9	93	-1.8	0	0	970.4	NA	0.0000	UP	9999	0	0	0	0
2019/04/06 00:16:02	BASE	22.88	112	28.35	110	-0.9	93	-1.8	0	0	970.3	NA	0.0000	UP	9999	0	0	0	520
2019/04/06 00:17:02	BASE	24.30	114	29.22	116	-0.9	93	-1.9	0	0	970.2	NA	0.0000	UP	9999	0	0	0	0
2019/04/06 00:18:02	BASE	24.45	114	29.22	116	-0.9	93	-1.9	0	0	970.3	NA	0.0000	UP	9999	0	0	0	0
2019/04/06 00:19:02	BASE	23.12	110	29.22	116	-0.8	93	-1.9	0	0	970.4	NA	0.0000	UP	9999	22280	0	0	0
2019/04/06 00:20:02	BASE	23.08	108	29.22	116	-0.8	92	-1.9	0	0	970.4	NA	0.0000	UP	9999	22150	0	0	0
2019/04/06 00:21:02	BASE	23.20	106	29.22	116	-0.8	92	-1.9	0	0	970.4	NA	0.0000	UP	9999	22180	0	0	0
2019/04/06 00:22:03	BASE	21.80	107	29.22	116	-0.8	92	-1.9	0	0	970.3	NA	0.0000	UP	9999	21980	0	0	0
2019/04/06 00:23:02	BASE	23.56	108	29.22	116	-0.7	91	-2.0	0	0	970.2	NA	0.0000	UP	9999	21880	0	0	0
2019/04/06 00:24:02	BASE	25.86	106	29.22	116	-0.7	91	-2.0	0	0	970.2	NA	0.0000	UP	9999	0	0	0	0
2019/04/06 00:25:02	BASE	23.73	107	29.22	116	-0.7	91	-2.1	0	0	970.3	NA	0.0000	UP	9999	21720	0	0	0
2019/04/06 00:26:02	BASE	23.09	109	29.22	116	-0.7	90	-2.1	0	0	970.3	NA	0.0000	UP	9999	0	0	0	1080
2019/04/06 00:27:02	BASE	23.28	113	28.91	98	-0.7	90	-2.1	0	0	970.3	NA	0.0000	UP	9999	0	0	0	0
2019/04/06 00:28:03	BASE	22.89	109	28.91	98	-0.7	90	-2.2	0	0	970.3	NA	0.0000	UP	9999	0	0	0	0
2019/04/06 00:29:03	BASE	24.05	101	29.07	104	-0.7	90	-2.2	0	0	970.3	NA	0.0000	UP	9999	0	0	0	1540
2019/04/06 00:30:03	BASE	24.31	103	29.07	104	-0.7	90	-2.2	0	0	970.2	NA	0.0000	UP	9999	0	0	0	920
2019/04/06 00:31:03	BASE	22.23	108	29.07	104	-0.6	89	-2.2	0	0	970.2	NA	0.0000	UP	9999	0	0	0	1120
2019/04/06 00:32:03	BASE	22.54	113	29.07	104	-0.6	89	-2.3	0	0	970.0	NA	0.0000	UP	9999	0	0	0	750
2019/04/06 00:33:03	BASE	24.34	116	29.07	104	-0.6	88	-2.3	0	0	970.0	NA	0.0000	UP	9999	0	0	0	560
2019/04/06 00:34:03	BASE	22.49	113	29.07	104	-0.6	88	-2.3	0	0	970.1	NA	0.0000	UP	9999	0	0	0	820
2019/04/06 00:35:03	BASE	21.30	110	29.07	104	-0.6	88	-2.4	0	0	970.0	NA	0.0000	UP	9999	0	0	0	490
2019/04/06 00:36:03	BASE	21.40	109	29.07	104	-0.7	88	-2.4	0	0	970.1	NA	0.0000	UP	9999	0	0	0	0
2019/04/06 00:37:03	BASE	22.50	107	29.07	104	-0.7	89	-2.3	0	0	970.0	NA	0.0000	UP	9999	0	0	0	950
2019/04/06 00:38:02	BASE	25.20	110	29.07	104	-0.7	89	-2.3	0	0	969.9	NA	0.0000	UP	9999	21160	0	0	0
2019/04/06 00:39:03	BASE	26.36	112	28.76	108	-0.7	89	-2.2	0	0	969.9	NA	0.0000	UP	9999	0	0	0	1310
2019/04/06 00:40:03	BASE	25.05	112	28.76	108	-0.7	89	-2.3	0	0	969.9	NA	0.0000	UP	9999	0	0	0	0
2019/04/06 00:41:03	BASE	24.53	111	29.79	111	-0.7	89	-2.3	0	0	969.8	NA	0.0000	UP	9999	0	0	0	620
2019/04/06 00:42:02	BASE	27.67	110	33.28	116	-0.7	89	-2.3	0	0	969.7	NA	0.0000	UP	9999	0	0	0	520
2019/04/06 00:43:04	BASE	29.14	113	33.28	116	-0.7	89	-2.3	0	0	969.7	NA	0.0000	UP	9999	0	0	0	790
2019/04/06 00:44:03	BASE	28.16	116	33.28	116	-0.7	89	-2.4	0	0	969.7	NA	0.0000	UP	9999	0	0	0	0
2019/04/06 00:45:03	BASE	27.49	114	33.28	116	-0.8	89	-2.4	0	0	969.7	NA	0.0000	UP	9999	0	0	0	1410
2019/04/06 00:46:03	BASE	25.25	113	33.28	116	-0.8	89	-2.4	0	0	969.8	NA	0.0000	UP	9999	0	0	0	590
2019/04/06 00:47:03	BASE	23.54	113	33.28	116	-0.8	89	-2.4	0	0	969.8	NA	0.0000	UP	9999	0	0	0	1800
2019/04/06 00:48:03	BASE	22.27	110	33.28	116	-0.8	89	-2.4	0	0	969.8	NA	0.0000	UP	9999	0	0	0	1350
2019/04/06 00:49:03	BASE	22.01	109	33.28	116	-0.8	89	-2.4	0	0	969.6	NA	0.0000	UP	9999	0	0	0	590
2019/04/06 00:50:03	BASE	24.08	109	33.28	116	-0.9	89	-2.4	0	0	969.6	NA	0.0000	UP	9999	0	0	0	0
2019/04/06 00:51:03	BASE	26.66	112	33.28	116	-0.9	90	-2.4	0	0	969.4	NA	0.0000	UP	9999	0	0	0	820
2019/04/06 00:52:03	BASE	28.11	118	31.90	109	-0.9	90	-2.4	0	0	969.4	NA	0.0000	UP	9999	0	0	0	1210
2019/04/06 00:53:02	BASE	27.97	124	32.62	134	-0.8	90	-2.3	0	0	969.3	NA	0.0000	UP	9999	0	0	0	1380
2019/04/06 00:54:03	BASE	27.00	124	32.62	134	-0.8	89	-2.3	0	0	969.5	NA	0.0000	UP	9999	0	0	0	1020
2019/04/06 00:55:03	BASE	24.82	118	32.62	134	-0.8	89	-2.4	0	0	969.5	NA	0.0000	UP	9999	0	0	0	590
2019/04/06 00:56:03	BASE	25.05	113	32.62	134	-0.8	89	-2.4	0	0	969.3	NA	0.0000	UP	9999	0	0	0	0
2019/04/06 00:57:03	BASE	28.73	115	33.80	117	-0.8	89	-2.4	0	0	969.3	NA	0.0000	UP	9999	0	0	0	0
2019/04/06 00:58:03	BASE	29.28	120	33.80	117	-0.8	89	-2.4	0	0	969.3	NA	0.0000	UP	9999	0	0	0	0
2019/04/06 00:59:03	BASE	26.12	124	33.80	117	-0.8	89	-2.4	0	0	969.4	NA	0.0000	UP	9999	0	0	0	0
2019/04/06 01:00:03	BASE	27.49	123	34.67	110	-0.8	89	-2.4	0	0	969.3	NA	0.0000	UP	9999	0	0	0	1050
2019/04/06 01:01:03	BASE	29.95	113	34.67	110	-0.8	88	-2.5	0	0	969.3	NA	0.0000	UP	9999	0	0	0	0
2019/04/06 01:02:03	BASE	28.87	107	34.67	110	-0.8	88	-2.5	0	0	969.4	NA	0.0000	UP	9999	0	0	0	0
2019/04/06 01:03:03	BASE	27.17	110	34.67	110	-0.8	88	-2.6	0	0	969.4	NA	0.0000	UP	9999	0	0	0	1350
2019/04/06 01:04:03	BASE	25.92	111	34.67	110	-0.8	88	-2.6	0	0	969.4	NA	0.0000	UP	9999	0	0	0	1210
2019/04/06 01:05:03	BASE	26.19	111	34.67	110	-0.9	88	-2.6	0	0	969.3	NA	0.0000	UP	9999	0	0	0	920
2019/04/06 01:06:02	BASE	22.20	115	34.67	110	-0.9	88	-2.6	0	0	969.3	NA	0.0000	UP	9999	0	0	0	1640
2019/04/06 01:07:02	BASE	17.74	120	34.67	110	-0.9	88	-2.6	0	0	969.3	NA	0.0000	UP	9999	2620	0	0	0
2019/04/06 01:08:03	BASE	19.18	125	34.67	110	-0.8	88	-2.6	0	0	969.1	NA	0.0000	UP	9999	3710	0	0	0
2019/04/06 01:09:03	BASE	21.37	122	34.67	110	-0.8	88	-2.6	0	0	969.1	NA	0.0000	UP	9999	3220	0	0	0
2019/04/06 01:10:03	BASE	21.72	123	33.08	100	-0.7	87	-2.6	0	0	969.1	NA	0.0000	UP	9999	2400	0	0	0
2019/04/06 01:11:03	BASE	20.15	126	32.51	109	-0.6	86	-2.7	0	0	969.1	NA	0.0000	UP	9999	2330	0	0	0
2019/04/06 01:12:02	BASE	19.01	117	32.51	109	-0.6	85	-2.8	0	0	969.1	NA	0.0000	UP	9999	2620	0	0	0
2019/04/06 01:13:02	BASE	18.81	115	32.51	109	-0.5	84	-2.9	0	0	969.0	NA	0.0000	UP	9999	2490	0	0	0
2019/04/06 01:14:03	BASE	16.16	119	32.51	109	-0.5	83	-3.0	0	0	969.1	NA	0.0000	UP	9999	3150	0	0	0
2019/04/06 01:15:03	BASE	14.06	114	25.77	105	-0.5	83	-3.1	0	0	969.0	NA	0.0000	UP	9999	2460	0	0	0
2019/04/06 01:16:03	BASE	14.84	115	25.77	105	-0.5	82	-3.2	0	0	968.8	NA	0.0000	UP	9999	0	0	0	890
2019/04/06 01:17:02	BASE	14.50	116	25.77	105	-0.5	82	-3.2	0	0	968.8	NA	0.0000	UP	9999	2560	0	0	0
2019/04/06 01:18:02	BASE	16.90	115	25.77	105	-0.5	82	-3.3	0	0	968.7	NA	0.0000	UP	9999	0	0	0	0
2019/04/06 01:19:02	BASE	20.63	121	25.77	116	-0.5	81	-3.3	0	0	968.5	NA	0.0000	UP	9999	0	0	0	0
2019/04/06 01:20:03	BASE	21.76	120	25.77	116	-0.5	81	-3.3	0	0	968.5	NA	0.0000	UP	9999	0	0	0	0
2019/04/06 01:21:02	BASE	21.42	116	25.77	116	-0.5	81	-3.3	0	0	968.5	NA	0.0000	UP	9999	0	0	0	0
2019/04/06 01:22:03	BASE	23.28	110	31.33	94	-0.4	81	-3.3	0	0	968.2	NA	0.0000	UP	9999	2920	0	0	0
2019/04/06 01:23:02	BASE	25.20	119	31.33	94	-0.4	80	-3.4	0	0	968.3	NA	0.0000	UP	9999	0	0	0	0
2019/04/06 01:24:03	BASE	23.69	129	31.33	94	-0.4	80	-3.4	0	0	968.4	NA	0.0000		9999	2490	0	0	0
2019/04/06 01:25:02	BASE	22.62	128	31.33	94	-0.4	80	-3.4	0	0	968.3	NA	0.0000		9999	2720	0	0	0
2019/04/06 01:26:02	BASE	23.09	125	31.33	94	-0.4	80	-3.4	0	0	968.2	NA	0.0000		9999	2820	0	0	0
2019/04/06 01:27:02	BASE	27.19	124	40.69	133	-0.4	80	-3.4	0	0	967.8	NA	0.0000		9999	0	0	0	0
2019/04/06 01:28:02	BASE	28.94	126	40.69	133	-0.4	80	-3.4	0	0	968.1	NA	0.0000		9999	0	0	0	0
2019/04/06 01:29:02	BASE	24.65	122	40.69	133	-0.3	80	-3.4	0	0	968.3	NA	0.0000		9999	0	0	0	0
2019/04/06 01:30:02	BASE	20.76	122	40.69	133	-0.3	79	-3.5	0	0	968.3	NA	0.0000		9999	0	0	0	0
2019/04/06 01:31:03	BASE	24.17	126	40.69	133	-0.3	79	-3.5	0	0	968.0	NA	0.0000		9999	2660	0	0	0
2019/04/06 01:32:02	BASE	25.94	122	40.69	133	-0.3	79	-3.5	0	0	968.2	NA	0.0000		9999	2820	0	0	0
2019/04/06 01:33:03	BASE	24.25	125	40.69	133	-0.3	79	-3.5	0	0	968.1	NA	0.0000		9999	2360	0	0	0
2019/04/06 01:34:03	BASE	24.05	140	40.69	133	-0.3	79	-3.5	0	0	967.9	NA	0.0000		9999	2490	0	0	0
2019/04/06 01:35:03	BASE	21.22	149	40.69	133	-0.4	80	-3.4	0	0	967.9	NA	0.0000		9999	0	0	0	0
2019/04/06 01:36:03	BASE	21.68	142	40.69	133	-0.4	80	-3.4	0	0	967.7	NA	0.0000		9000	0	0	0	0
2019/04/06 01:37:02	BASE	27.90	132	36.63	124	-0.4	81	-3.4	0	0	967.2	NA	0.0000		7000	0	0	0	0
2019/04/06 01:38:03	BASE	30.85	132	36.63	124	-0.4	81	-3.3	0	0	967.3	NA	0.0000	UP SQ	7000	0	0	0	0
2019/04/06 01:39:03	BASE	29.23	131	39.41	138	-0.4	81	-3.3	0	0	967.5	NA	0.0000	UP SQ	7000	0	0	0	0
2019/04/06 01:40:02	BASE	24.98	134	39.41	138	-0.4	80	-3.4	0	0	967.9	NA	0.0000	UP	7000	0	0	0	0
2019/04/06 01:41:02	BASE	19.04	140	39.41	138	-0.4	80	-3.4	0	0	967.9	NA	0.0000	UP	7000	0	0	0	0
2019/04/06 01:42:02	BASE	21.98	136	39.41	138	-0.4	79	-3.5	0	0	967.7	NA	0.0000	UP	7000	3450	0	0	0
2019/04/06 01:43:03	BASE	29.27	127	39.41	138	-0.4	79	-3.6	0	0	967.7	NA	0.0000	UP SQ	7000	0	0	0	0
2019/04/06 01:44:03	BASE	28.29	126	39.41	138	-0.4	78	-3.7	0	0	968.0	NA	0.0000	UP SQ	7000	0	0	0	0
2019/04/06 01:45:03	BASE	23.03	119	39.41	138	-0.4	78	-3.7	0	0	968.1	NA	0.0000	UP	6000	3020	0	0	0
2019/04/06 01:46:03	BASE	23.31	116	39.41	138	-0.4	78	-3.8	0	0	967.8	NA	0.0000	UP	6000	0	0	0	0
2019/04/06 01:47:02	BASE	27.05	128	39.41	138	-0.4	77	-3.9	0	0	967.5	NA	0.0000	UP	6000	0	0	0	0
2019/04/06 01:48:02	BASE	28.07	132	39.41	138	-0.5	77	-4.0	0	0	967.6	NA	0.0000	HZ	6000	0	0	0	0
2019/04/06 01:49:03	BASE	25.97	129	38.27	122	-0.5	77	-4.0	0	0	967.8	NA	0.0000	HZ	6000	0	0	0	0
2019/04/06 01:50:02	BASE	27.34	132	38.27	122	-0.5	77	-4.0	0	0	967.4	NA	0.0000	HZ	6000	0	0	0	0
2019/04/06 01:51:02	BASE	29.91	133	38.27	122	-0.5	77	-4.0	0	0	967.4	NA	0.0000	HZ	6000	0	0	0	0
2019/04/06 01:52:02	BASE	27.43	130	38.27	122	-0.5	77	-4.1	0	0	967.5	NA	0.0000	HZ	5000	0	0	0	0
2019/04/06 01:53:02	BASE	27.41	130	37.04	131	-0.6	77	-4.1	0	0	967.3	NA	0.0000	HZ	5000	0	0	0	0
2019/04/06 01:54:03	BASE	29.86	133	37.04	131	-0.6	77	-4.1	0	0	967.2	NA	0.0000	HZ	5000	0	0	0	0
2019/04/06 01:55:03	BASE	31.23	133	39.15	133	-0.6	77	-4.1	0	0	967.2	NA	0.0000	HZ	5000	0	0	0	0
2019/04/06 01:56:02	BASE	31.24	129	39.15	133	-0.5	77	-4.1	0	0	967.3	NA	0.0000	HZ	5000	0	0	0	0
2019/04/06 01:57:02	BASE	27.88	120	39.15	133	-0.5	77	-4.0	0	0	967.7	NA	0.0000	HZ	5000	0	0	0	0
2019/04/06 01:58:03	BASE	24.21	122	39.15	133	-0.4	77	-4.0	0	0	967.7	NA	0.0000	HZ	4900	0	0	0	0
2019/04/06 01:59:02	BASE	22.72	132	39.15	133	-0.3	76	-4.0	0	0	967.6	NA	0.0000	HZ	4700	0	0	0	0
2019/04/06 02:00:02	BASE	24.59	140	39.15	133	-0.3	76	-4.1	0	0	967.2	NA	0.0000	HZ	4600	0	0	0	0
2019/04/06 02:01:02	BASE	29.81	141	39.15	133	-0.3	75	-4.1	0	0	966.8	NA	0.0000	HZ	4500	0	0	0	0
2019/04/06 02:02:02	BASE	30.91	134	39.15	133	-0.3	75	-4.1	0	0	967.2	NA	0.0000	HZ	4300	0	0	0	0
2019/04/06 02:03:03	BASE	27.22	132	39.15	133	-0.3	75	-4.1	0	0	967.4	NA	0.0000	HZ	4200	0	0	0	0
2019/04/06 02:04:03	BASE	25.18	129	39.15	133	-0.3	75	-4.1	0	0	967.5	NA	0.0000	HZ	4100	0	0	0	0
2019/04/06 02:05:03	BASE	28.95	127	41.77	123	-0.3	76	-4.1	0	0	967.0	NA	0.0000	HZ	4100	0	0	0	0
2019/04/06 02:06:02	BASE	31.38	126	41.77	123	-0.3	76	-4.1	0	0	967.2	NA	0.0000	HZ	4000	0	0	0	0
2019/04/06 02:07:02	BASE	29.63	131	41.77	123	-0.3	76	-4.1	0	0	967.0	NA	0.0000	HZ	3900	0	0	0	0
2019/04/06 02:08:02	BASE	31.06	131	41.77	123	-0.3	76	-4.1	0	0	967.0	NA	0.0000	HZ	3800	0	0	0	0
2019/04/06 02:09:03	BASE	30.71	119	41.77	123	-0.3	75	-4.1	0	0	967.1	NA	0.0000	HZ	3700	0	0	0	0
2019/04/06 02:10:02	BASE	28.08	124	41.77	123	-0.3	75	-4.1	0	0	967.3	NA	0.0000	HZ	3600	0	0	0	0
2019/04/06 02:11:03	BASE	24.35	138	41.77	123	-0.3	75	-4.1	0	0	967.6	NA	0.0000	HZ	3500	0	0	0	0
2019/04/06 02:12:03	BASE	19.33	134	41.77	123	-0.3	75	-4.2	0	0	967.7	NA	0.0000	HZ	3500	0	0	0	0
2019/04/06 02:13:02	BASE	26.27	129	41.77	123	-0.3	75	-4.2	0	0	966.8	NA	0.0000	HZ	3400	0	0	0	0
2019/04/06 02:14:02	BASE	34.17	134	41.77	123	-0.3	75	-4.2	0	0	966.9	NA	0.0000	HZ SQ	3300	0	0	0	0
2019/04/06 02:15:03	BASE	31.95	139	38.74	127	-0.3	75	-4.3	0	0	967.1	NA	0.0000	HZ SQ	3300	0	0	0	0
2019/04/06 02:16:02	BASE	29.31	141	38.74	127	-0.4	74	-4.4	0	0	967.3	NA	0.0000	HZ	3300	0	0	0	0
2019/04/06 02:17:03	BASE	26.63	138	38.74	127	-0.4	74	-4.5	0	0	967.5	NA	0.0000	HZ	3300	0	0	0	0
2019/04/06 02:18:02	BASE	27.00	124	38.74	127	-0.4	74	-4.5	0	0	967.6	NA	0.0000	HZ	3400	0	0	0	0
2019/04/06 02:19:03	BASE	27.00	118	38.74	127	-0.4	74	-4.6	0	0	967.6	NA	0.0000	HZ	3300	0	0	0	0
2019/04/06 02:20:03	BASE	26.02	120	38.74	127	-0.5	74	-4.6	0	0	967.5	NA	0.0000	HZ	3300	0	0	0	0
2019/04/06 02:21:02	BASE	23.99	121	38.74	127	-0.5	74	-4.6	0	0	967.7	NA	0.0000	HZ	3300	0	0	0	0
2019/04/06 02:22:03	BASE	23.56	125	38.74	127	-0.5	73	-4.6	0	0	967.4	NA	0.0000	HZ	3200	0	0	0	0
2019/04/06 02:23:03	BASE	27.39	129	37.91	138	-0.5	73	-4.7	0	0	967.5	NA	0.0000	HZ	3200	0	0	0	0
2019/04/06 02:24:03	BASE	27.04	130	37.91	138	-0.5	72	-4.9	0	0	967.6	NA	0.0000	HZ	3200	0	0	0	0
2019/04/06 02:25:03	BASE	27.40	130	34.11	127	-0.5	71	-5.1	0	0	967.2	NA	0.0000	HZ	3500	0	0	0	0
2019/04/06 02:26:03	BASE	31.76	128	40.69	118	-0.4	70	-5.3	0	0	967.3	NA	0.0000	HZ	4000	0	0	0	0
2019/04/06 02:27:02	BASE	32.75	122	40.69	118	-0.4	69	-5.5	0	0	967.5	NA	0.0000	HZ	4300	0	0	0	0
2019/04/06 02:28:03	BASE	32.23	117	40.69	118	-0.4	68	-5.5	0	0	967.5	NA	0.0000	HZ	4400	0	0	0	0
2019/04/06 02:29:03	BASE	32.20	116	40.69	118	-0.4	68	-5.6	0	0	967.5	NA	0.0000	HZ	4400	0	0	0	0
2019/04/06 02:30:02	BASE	30.04	119	40.69	118	-0.4	68	-5.6	0	0	967.6	NA	0.0000	HZ	4300	4560	0	0	0
2019/04/06 02:31:03	BASE	26.58	115	40.69	118	-0.4	68	-5.6	0	0	967.9	NA	0.0000	HZ	4300	0	0	0	0
2019/04/06 02:32:03	BASE	24.26	114	40.69	118	-0.5	68	-5.7	0	0	967.9	NA	0.0000	HZ	4300	0	0	0	0
2019/04/06 02:33:02	BASE	25.20	123	40.69	118	-0.5	68	-5.7	0	0	967.7	NA	0.0000	HZ	4300	0	0	0	0
2019/04/06 02:34:02	BASE	28.08	130	40.69	118	-0.5	67	-5.8	0	0	967.3	NA	0.0000	HZ	4200	0	0	0	0
2019/04/06 02:35:03	BASE	33.03	124	42.44	117	-0.5	67	-5.9	0	0	967.3	NA	0.0000	HZ	3900	0	0	0	0
2019/04/06 02:36:02	BASE	31.56	117	42.44	117	-0.5	67	-5.9	0	0	967.8	NA	0.0000	HZ SQ	4000	0	0	0	0
2019/04/06 02:37:03	BASE	25.67	115	42.44	117	-0.5	66	-6.0	0	0	967.8	NA	0.0000	HZ	4300	4170	0	0	0
2019/04/06 02:38:03	BASE	25.48	117	42.44	117	-0.5	66	-6.0	0	0	967.7	NA	0.0000	HZ	4300	0	0	0	0
2019/04/06 02:39:03	BASE	29.15	127	42.44	117	-0.6	67	-6.0	0	0	967.2	NA	0.0000	HZ	4300	0	0	0	0
2019/04/06 02:40:03	BASE	30.28	133	42.44	117	-0.6	67	-6.1	0	0	967.4	NA	0.0000	HZ	4100	0	0	0	0
2019/04/06 02:41:03	BASE	26.29	131	42.44	117	-0.7	66	-6.2	0	0	967.5	NA	0.0000	HZ	4100	0	0	0	0
2019/04/06 02:42:03	BASE	26.68	128	42.44	117	-0.7	66	-6.3	0	0	967.5	NA	0.0000	HZ	4100	0	0	0	0
2019/04/06 02:43:03	BASE	27.04	127	42.44	117	-0.6	65	-6.5	0	0	967.6	NA	0.0000	HZ	4000	0	0	0	0
2019/04/06 02:44:03	BASE	24.16	128	42.44	117	-0.6	64	-6.7	0	0	967.7	NA	0.0000	HZ	4000	0	0	0	0
2019/04/06 02:45:03	BASE	23.97	127	34.11	128	-0.6	63	-6.9	0	0	967.5	NA	0.0000	HZ	4100	0	0	0	0
2019/04/06 02:46:02	BASE	26.59	130	34.11	128	-0.6	62	-7.0	0	0	967.3	NA	0.0000	HZ	4100	0	0	0	0
2019/04/06 02:47:02	BASE	28.35	132	34.11	128	-0.6	61	-7.2	0	0	967.1	NA	0.0000	HZ	3900	0	0	0	0
2019/04/06 02:48:04	BASE	29.03	133	37.40	135	-0.6	60	-7.4	0	0	967.0	NA	0.0000	HZ	4000	0	0	0	0
2019/04/06 02:49:04	BASE	29.94	132	37.40	135	-0.6	59	-7.5	0	0	967.1	NA	0.0000	HZ	4000	0	0	0	0
2019/04/06 02:50:04	BASE	28.58	131	37.40	135	-0.6	59	-7.7	0	0	967.1	NA	0.0000	HZ	4000	0	0	0	0
2019/04/06 02:51:04	BASE	28.54	132	37.40	135	-0.5	58	-7.9	0	0	966.9	NA	0.0000	HZ	4100	0	0	0	0
2019/04/06 02:52:03	BASE	29.47	131	37.40	135	-0.5	57	-7.9	0	0	967.0	NA	0.0000	HZ	4100	0	0	0	0
2019/04/06 02:53:03	BASE	28.95	115	37.40	135	-0.5	58	-7.8	0	0	967.4	NA	0.0000	HZ	4100	0	0	0	0
2019/04/06 02:54:03	BASE	24.41	107	37.40	135	-0.4	58	-7.7	0	0	967.6	NA	0.0000	HZ	4100	0	0	0	0
2019/04/06 02:55:03	BASE	18.16	111	37.40	135	-0.4	58	-7.7	0	0	967.6	NA	0.0000	HZ	4100	0	0	0	0
2019/04/06 02:56:03	BASE	20.17	115	37.40	135	-0.4	58	-7.6	0	0	967.4	NA	0.0000	HZ	4100	0	0	0	0
2019/04/06 02:57:03	BASE	26.06	131	37.40	135	-0.4	58	-7.7	0	0	967.0	NA	0.0000	HZ	4100	0	0	0	0
2019/04/06 02:58:03	BASE	27.81	143	34.42	135	-0.4	57	-7.8	0	0	966.9	NA	0.0000	HZ SQ	4100	0	0	0	0
2019/04/06 02:59:03	BASE	26.75	133	34.42	135	-0.4	57	-7.9	0	0	967.1	NA	0.0000	HZ	4000	0	0	0	0
2019/04/06 03:00:03	BASE	26.60	123	34.42	135	-0.3	56	-8.0	0	0	967.2	NA	0.0000	HZ	4000	0	0	0	0
2019/04/06 03:01:03	BASE	23.52	118	34.26	129	-0.2	56	-8.0	0	0	967.4	NA	0.0000	HZ	4100	0	0	0	0
2019/04/06 03:02:03	BASE	18.74	111	33.18	112	-0.1	55	-8.0	0	0	967.5	NA	0.0000	HZ	4100	0	0	0	0
2019/04/06 03:03:02	BASE	21.19	112	35.24	117	-0.0	55	-7.9	0	0	967.4	NA	0.0000	HZ	4100	0	0	0	0
2019/04/06 03:04:02	BASE	27.59	113	35.55	117	-0.0	55	-7.9	0	0	967.3	NA	0.0000	HZ SQ	4000	0	0	0	0
2019/04/06 03:05:03	BASE	31.15	119	38.33	128	-0.1	55	-8.0	0	0	967.0	NA	0.0000	HZ SQ	3900	0	0	0	0
2019/04/06 03:06:03	BASE	31.16	124	38.33	128	-0.2	56	-7.9	0	0	967.3	NA	0.0000	HZ SQ	3900	0	0	0	0
2019/04/06 03:07:03	BASE	27.66	114	38.33	128	-0.3	56	-8.0	0	0	967.6	NA	0.0000	HZ	3900	0	0	0	0
2019/04/06 03:08:03	BASE	22.92	118	38.33	128	-0.3	56	-8.0	0	0	967.7	NA	0.0000	HZ	4300	0	0	0	0
2019/04/06 03:09:03	BASE	22.73	130	38.33	128	-0.4	56	-8.0	0	0	967.6	NA	0.0000	HZ	5000	0	0	0	0
2019/04/06 03:10:03	BASE	22.99	136	38.33	128	-0.4	56	-8.1	0	0	967.7	NA	0.0000	HZ	5000	0	0	0	0
2019/04/06 03:11:02	BASE	20.38	124	38.33	128	-0.4	56	-8.1	0	0	967.9	NA	0.0000	HZ	5000	0	0	0	0
2019/04/06 03:12:02	BASE	19.16	105	38.33	128	-0.5	56	-8.2	0	0	967.9	NA	0.0000	HZ	5000	0	0	0	0
2019/04/06 03:13:02	BASE	17.91	108	38.33	128	-0.5	56	-8.2	0	0	967.9	NA	0.0000	HZ	5000	0	0	0	0
2019/04/06 03:14:03	BASE	17.91	121	38.33	128	-0.5	56	-8.2	0	0	967.8	NA	0.0000	HZ	5000	0	0	0	0
2019/04/06 03:15:03	BASE	19.85	132	34.88	111	-0.5	56	-8.2	0	0	967.7	NA	0.0000	HZ	5000	0	0	0	0
2019/04/06 03:16:03	BASE	21.53	142	30.20	133	-0.5	56	-8.2	0	0	967.5	NA	0.0000	HZ	5000	0	0	0	0
2019/04/06 03:17:03	BASE	21.62	129	30.20	133	-0.4	55	-8.3	0	0	967.6	NA	0.0000	HZ	5000	0	0	0	0
2019/04/06 03:18:03	BASE	20.16	116	30.20	133	-0.4	55	-8.4	0	0	967.6	NA	0.0000	HZ	5000	0	0	0	0
2019/04/06 03:19:03	BASE	20.71	123	30.20	133	-0.4	54	-8.5	0	0	967.6	NA	0.0000	HZ	5000	0	0	0	0
2019/04/06 03:20:03	BASE	22.87	125	30.20	133	-0.4	54	-8.6	0	0	967.5	NA	0.0000	HZ	5000	0	0	0	0
2019/04/06 03:21:03	BASE	22.65	126	30.20	133	-0.4	54	-8.6	0	0	967.4	NA	0.0000	HZ	5000	0	0	0	0
2019/04/06 03:22:03	BASE	22.08	132	30.20	133	-0.5	54	-8.6	0	0	967.3	NA	0.0000	HZ	5000	0	0	0	0
2019/04/06 03:23:03	BASE	20.56	136	30.20	133	-0.5	55	-8.5	0	0	967.5	NA	0.0000	HZ	5000	0	0	0	0
2019/04/06 03:24:02	BASE	19.89	134	30.20	133	-0.5	54	-8.5	0	0	967.2	NA	0.0000	HZ	6000	0	0	0	0
2019/04/06 03:25:03	BASE	25.70	130	32.98	128	-0.4	54	-8.6	0	0	966.9	NA	0.0000	HZ	6000	0	0	0	0
2019/04/06 03:26:02	BASE	29.38	121	34.93	120	-0.3	54	-8.6	0	0	967.2	NA	0.0000	HZ SQ	6000	0	0	0	0
2019/04/06 03:27:02	BASE	27.48	114	34.93	120	-0.3	53	-8.6	0	0	967.4	NA	0.0000	HZ SQ	6000	0	0	0	0
2019/04/06 03:28:02	BASE	24.98	118	34.93	120	-0.3	53	-8.7	0	0	967.5	NA	0.0000	HZ	6000	0	0	0	0
2019/04/06 03:29:02	BASE	24.18	121	34.93	120	-0.3	53	-8.7	0	0	967.4	NA	0.0000	HZ	6000	0	0	0	0
2019/04/06 03:30:03	BASE	26.32	117	34.93	120	-0.3	53	-8.7	0	0	967.3	NA	0.0000	HZ	6000	0	0	0	0
2019/04/06 03:31:03	BASE	27.10	121	34.93	120	-0.3	53	-8.7	0	0	967.4	NA	0.0000	HZ	7000	0	0	0	0
2019/04/06 03:32:02	BASE	25.16	130	34.93	120	-0.3	53	-8.8	0	0	967.5	NA	0.0000	HZ	8000	0	0	0	0
2019/04/06 03:33:02	BASE	21.36	132	34.93	120	-0.3	52	-8.9	0	0	967.7	NA	0.0000	HZ	9000	0	0	0	0
2019/04/06 03:34:02	BASE	15.73	133	34.93	120	-0.3	52	-9.0	0	0	967.9	NA	0.0000	HZ	9999	0	0	0	0
2019/04/06 03:35:02	BASE	12.94	133	34.93	120	-0.3	52	-9.1	0	0	967.8	NA	0.0000	HZ	9999	0	0	0	0
2019/04/06 03:36:02	BASE	19.45	126	34.62	113	-0.4	52	-9.1	0	0	967.5	NA	0.0000	HZ	9999	0	0	0	0
2019/04/06 03:37:02	BASE	30.19	116	37.86	115	-0.5	52	-9.1	0	0	967.3	NA	0.0000	HZ SQ	9999	0	0	0	0
2019/04/06 03:38:03	BASE	32.61	114	37.86	115	-0.5	52	-9.0	0	0	967.4	NA	0.0000	HZ SQ	9999	0	0	0	0
2019/04/06 03:39:03	BASE	28.13	115	37.86	115	-0.5	52	-9.1	0	0	967.6	NA	0.0000	HZ SQ	9999	0	0	0	0
2019/04/06 03:40:03	BASE	24.17	112	37.86	115	-0.5	53	-9.0	0	0	967.6	NA	0.0000		9999	0	0	0	0
2019/04/06 03:41:02	BASE	21.57	112	37.86	115	-0.6	52	-9.1	0	0	967.6	NA	0.0000		9999	0	0	0	0
2019/04/06 03:42:02	BASE	18.30	116	37.86	115	-0.6	52	-9.1	0	0	967.7	NA	0.0000		9999	0	0	0	0
2019/04/06 03:43:02	BASE	17.27	123	37.86	115	-0.6	53	-9.1	0	0	967.6	NA	0.0000		9999	0	0	0	0
2019/04/06 03:44:02	BASE	23.79	131	37.86	115	-0.7	53	-9.0	0	0	967.1	NA	0.0000		9999	0	0	0	0
2019/04/06 03:45:03	BASE	29.82	132	37.86	115	-0.6	53	-8.9	0	0	967.1	NA	0.0000	SQ	9999	0	0	0	0
2019/04/06 03:46:02	BASE	31.14	123	37.86	115	-0.5	53	-8.9	0	0	967.5	NA	0.0000	SQ	9999	0	0	0	0
2019/04/06 03:47:02	BASE	26.47	105	36.32	120	-0.5	53	-8.8	0	0	967.9	NA	0.0000		9999	0	0	0	0
2019/04/06 03:48:03	BASE	17.43	95	36.32	120	-0.4	52	-9.0	0	0	967.9	NA	0.0000		9999	9250	0	0	0
2019/04/06 03:49:02	BASE	14.13	96	36.32	120	-0.3	51	-9.2	0	0	968.0	NA	0.0000		9999	9150	0	0	0
2019/04/06 03:50:02	BASE	20.10	102	36.32	120	-0.3	50	-9.4	0	0	967.8	NA	0.0000		9999	9090	0	0	0
2019/04/06 03:51:03	BASE	25.28	112	36.32	120	-0.3	50	-9.5	0	0	967.8	NA	0.0000	SQ	9999	0	0	0	0
2019/04/06 03:52:03	BASE	25.09	120	36.32	120	-0.3	50	-9.5	0	0	967.8	NA	0.0000	SQ	9999	0	0	0	0
2019/04/06 03:53:03	BASE	25.41	125	36.32	120	-0.3	51	-9.4	0	0	967.9	NA	0.0000		9999	0	0	0	0
2019/04/06 03:54:01	BASE	24.03	123	36.32	120	-0.4	52	-9.2	0	0	967.9	NA	0.0000		9999	0	0	0	0
2019/04/06 03:55:02	BASE	21.98	122	36.32	120	-0.4	53	-9.0	0	0	968.0	NA	0.0000		9999	0	0	0	0
2019/04/06 03:56:02	BASE	22.29	120	30.71	129	-0.5	54	-8.7	0	0	967.9	NA	0.0000		9999	0	0	0	0
2019/04/06 03:57:02	BASE	24.18	121	30.71	129	-0.5	54	-8.7	0	0	967.8	NA	0.0000		9999	0	0	0	0
2019/04/06 03:58:01	BASE	25.79	130	30.71	129	-0.5	54	-8.6	0	0	967.7	NA	0.0000		9999	0	0	0	0
2019/04/06 03:59:02	BASE	26.15	135	30.71	129	-0.5	54	-8.6	0	0	967.8	NA	0.0000		9999	0	0	0	0
2019/04/06 04:00:03	BASE	23.59	131	30.71	129	-0.5	54	-8.8	0	0	967.9	NA	0.0000		9999	0	0	0	0
2019/04/06 04:01:02	BASE	23.24	121	30.71	129	-0.5	52	-9.0	0	0	968.1	NA	0.0000		9999	0	0	0	0
2019/04/06 04:03:00	BASE	23.86	114	29.32	103	-0.4	51	-9.3	0	0	968.1	NA	0.0000		9999	0	0	0	0
2019/04/06 04:04:00	BASE	22.03	119	29.32	103	-0.5	50	-9.5	0	0	967.9	NA	0.0000		9999	0	0	0	0
2019/04/06 04:05:00	BASE	22.40	116	29.32	103	-0.5	50	-9.7	0	0	967.9	NA	0.0000		9999	0	0	0	0
2019/04/06 04:06:00	BASE	21.21	110	29.32	103	-0.6	50	-9.8	0	0	968.0	NA	0.0000		9999	0	0	0	0
2019/04/06 04:07:00	BASE	18.95	107	29.32	103	-0.7	50	-9.7	0	0	968.0	NA	0.0000		9999	0	0	0	0
2019/04/06 04:08:00	BASE	17.11	99	29.32	103	-0.8	52	-9.5	0	0	968.0	NA	0.0000		9999	0	0	0	0
2019/04/06 04:09:00	BASE	14.90	95	29.32	103	-0.9	53	-9.3	0	0	968.0	NA	0.0000		9999	0	0	0	0
2019/04/06 04:10:00	BASE	14.74	97	29.32	103	-1.0	54	-9.2	0	0	968.1	NA	0.0000		9999	0	0	0	0
2019/04/06 04:11:00	BASE	15.71	105	29.32	103	-1.0	54	-9.1	0	0	968.0	NA	0.0000		9999	7050	0	0	0
2019/04/06 04:12:00	BASE	17.03	109	27.57	116	-1.0	55	-9.0	0	0	968.0	NA	0.0000		9999	7020	0	0	0
2019/04/06 04:13:00	BASE	20.39	111	25.05	135	-1.0	54	-9.1	0	0	967.7	NA	0.0000		9999	0	0	0	0
2019/04/06 04:14:00	BASE	22.94	114	27.21	119	-1.0	54	-9.1	0	0	967.7	NA	0.0000		9999	7220	0	0	0
2019/04/06 04:15:00	BASE	24.14	115	27.78	113	-1.0	55	-9.0	0	0	967.5	NA	0.0000		9999	7090	0	0	0
2019/04/06 04:16:00	BASE	24.00	115	27.78	113	-1.1	55	-9.0	0	0	967.6	NA	0.0000		9999	0	0	0	0
2019/04/06 04:17:00	BASE	22.37	114	27.78	113	-1.1	55	-9.0	0	0	967.7	NA	0.0000		9999	7280	0	0	0
2019/04/06 04:18:00	BASE	20.95	112	27.78	113	-1.1	55	-8.9	0	0	967.8	NA	0.0000		9999	7190	0	0	0
2019/04/06 04:19:00	BASE	18.77	108	27.78	113	-1.1	55	-8.9	0	0	967.9	NA	0.0000		9999	0	0	0	0
2019/04/06 04:20:00	BASE	16.01	104	27.78	113	-1.1	56	-8.9	0	0	967.9	NA	0.0000		9999	0	0	0	0
2019/04/06 04:21:00	BASE	14.02	98	27.78	113	-1.2	56	-8.8	0	0	968.0	NA	0.0000		9999	0	0	0	0
2019/04/06 04:22:00	BASE	15.37	99	27.78	113	-1.2	56	-8.8	0	0	967.9	NA	0.0000		9999	0	0	0	0
2019/04/06 04:23:00	BASE	20.07	115	27.78	113	-1.2	56	-8.8	0	0	967.6	NA	0.0000		9999	0	0	0	0
2019/04/06 04:24:00	BASE	22.72	127	27.78	113	-1.2	56	-8.8	0	0	967.6	NA	0.0000		9999	0	0	0	0
2019/04/06 04:25:00	BASE	20.68	122	27.73	126	-1.1	55	-9.0	0	0	967.6	NA	0.0000		9999	0	0	0	0
2019/04/06 04:26:00	BASE	20.57	111	27.73	126	-1.0	54	-9.1	0	0	967.7	NA	0.0000		9999	0	0	0	0
2019/04/06 04:27:00	BASE	22.71	106	27.73	126	-0.9	54	-9.1	0	0	967.6	NA	0.0000		9999	0	0	0	0
2019/04/06 04:28:00	BASE	22.36	105	27.73	126	-0.9	53	-9.2	0	0	967.6	NA	0.0000		9999	0	0	0	0
2019/04/06 04:29:00	BASE	20.19	108	27.73	126	-0.9	54	-9.2	0	0	967.5	NA	0.0000		9999	0	0	0	0
2019/04/06 04:30:00	BASE	19.82	111	27.73	126	-1.0	54	-9.1	0	0	967.4	NA	0.0000		9999	0	0	0	0
2019/04/06 04:31:00	BASE	20.92	113	27.73	126	-1.0	55	-9.0	0	0	967.5	NA	0.0000		9999	0	0	0	0
2019/04/06 04:32:00	BASE	20.44	113	27.73	126	-1.0	55	-9.0	0	0	967.6	NA	0.0000		9999	0	0	0	0
2019/04/06 04:33:00	BASE	18.45	108	27.37	103	-1.0	55	-9.0	0	0	967.6	NA	0.0000		9999	0	0	0	0
2019/04/06 04:34:00	BASE	19.00	110	28.40	106	-0.9	55	-9.0	0	0	967.5	NA	0.0000		9999	0	0	0	0
2019/04/06 04:35:00	BASE	24.11	113	29.17	113	-0.9	55	-9.0	0	0	967.3	NA	0.0000		9999	9780	0	0	0
2019/04/06 04:36:00	BASE	25.23	119	29.17	113	-0.9	54	-9.1	0	0	967.4	NA	0.0000		9999	0	0	0	0
2019/04/06 04:37:00	BASE	21.63	121	29.17	113	-0.9	53	-9.2	0	0	967.4	NA	0.0000		9999	0	0	0	0
2019/04/06 04:38:00	BASE	19.40	113	29.17	113	-0.8	53	-9.2	0	0	967.5	NA	0.0000		9999	0	0	0	0
2019/04/06 04:39:00	BASE	19.53	111	29.17	113	-0.8	53	-9.2	0	0	967.4	NA	0.0000		9999	0	0	0	0
2019/04/06 04:40:00	BASE	22.80	113	29.17	113	-0.8	53	-9.2	0	0	967.2	NA	0.0000		9999	0	0	0	0
2019/04/06 04:41:00	BASE	24.10	117	29.17	113	-0.7	53	-9.2	0	0	967.2	NA	0.0000		9999	0	0	0	0
2019/04/06 04:42:00	BASE	24.89	116	34.06	112	-0.7	53	-9.1	0	0	967.0	NA	0.0000		9999	0	0	0	0
2019/04/06 04:43:00	BASE	27.93	112	34.06	112	-0.8	53	-9.1	0	0	967.0	NA	0.0000		9999	0	0	0	0
2019/04/06 04:44:00	BASE	26.86	114	34.06	112	-0.7	53	-9.2	0	0	967.1	NA	0.0000		9999	0	0	0	0
2019/04/06 04:45:00	BASE	24.18	118	34.06	112	-0.7	52	-9.2	0	0	967.1	NA	0.0000		9999	0	0	0	0
2019/04/06 04:46:00	BASE	23.87	115	34.06	112	-0.7	53	-9.2	0	0	967.1	NA	0.0000		9999	0	0	0	0
2019/04/06 04:47:00	BASE	25.28	113	34.06	112	-0.7	53	-9.2	0	0	967.0	NA	0.0000		9999	0	0	0	0
2019/04/06 04:48:00	BASE	26.48	116	34.06	112	-0.7	53	-9.1	0	0	967.1	NA	0.0000		9999	0	0	0	0
2019/04/06 04:49:00	BASE	28.62	118	34.06	112	-0.8	54	-9.0	0	0	966.9	NA	0.0000		9999	0	0	0	0
2019/04/06 04:50:00	BASE	29.34	118	34.06	112	-0.8	53	-9.1	0	0	967.1	NA	0.0000		9999	0	0	0	0
2019/04/06 04:51:00	BASE	26.01	118	34.06	112	-0.8	53	-9.1	0	0	967.2	NA	0.0000		9999	0	0	0	0
2019/04/06 04:52:00	BASE	24.06	118	34.00	117	-0.8	53	-9.1	0	0	967.1	NA	0.0000		9999	0	0	0	0
2019/04/06 04:53:00	BASE	25.18	116	34.00	117	-0.7	53	-9.1	0	0	967.0	NA	0.0000		9999	10400	0	0	0
2019/04/06 04:54:00	BASE	27.54	116	34.00	117	-0.7	53	-9.2	0	0	966.9	NA	0.0000		9999	10170	0	0	0
2019/04/06 04:55:00	BASE	28.07	120	34.00	117	-0.7	53	-9.2	0	0	966.9	NA	0.0000		9999	9680	0	0	0
2019/04/06 04:56:00	BASE	26.74	123	34.00	117	-0.7	52	-9.3	0	0	967.0	NA	0.0000		9999	9090	0	0	0
2019/04/06 04:57:00	BASE	24.73	122	34.00	117	-0.7	52	-9.4	0	0	967.1	NA	0.0000		9999	8630	0	0	0
2019/04/06 04:58:00	BASE	24.70	118	34.00	117	-0.7	51	-9.6	0	0	967.1	NA	0.0000		9999	0	0	0	0
2019/04/06 04:59:00	BASE	24.97	118	33.39	123	-0.6	51	-9.6	0	0	967.1	NA	0.0000		9999	0	0	0	0
2019/04/06 05:00:00	BASE	25.64	121	33.39	123	-0.6	50	-9.7	0	0	966.9	NA	0.0000		9999	0	0	0	0
2019/04/06 05:01:00	BASE	28.26	125	33.39	123	-0.6	51	-9.6	0	0	966.8	NA	0.0000		9999	0	0	0	0
2019/04/06 05:02:00	BASE	27.10	124	33.39	123	-0.6	51	-9.5	0	0	967.1	NA	0.0000		9999	0	0	0	0
2019/04/06 05:03:00	BASE	25.55	119	33.39	123	-0.6	51	-9.4	0	0	967.0	NA	0.0000		9999	0	0	0	0
2019/04/06 05:04:00	BASE	26.85	115	32.67	131	-0.7	52	-9.4	0	0	966.9	NA	0.0000		9999	0	0	0	0
2019/04/06 05:05:00	BASE	25.80	119	32.67	131	-0.7	52	-9.4	0	0	967.0	NA	0.0000		9999	0	0	0	0
2019/04/06 05:06:00	BASE	26.80	118	32.67	131	-0.7	52	-9.4	0	0	966.9	NA	0.0000		9999	0	0	0	0
2019/04/06 05:07:00	BASE	28.27	119	32.67	131	-0.7	51	-9.6	0	0	966.8	NA	0.0000		9999	0	0	0	0
2019/04/06 05:08:00	BASE	27.33	122	32.67	131	-0.7	50	-9.7	0	0	966.8	NA	0.0000		9999	0	0	0	0
2019/04/06 05:09:00	BASE	27.14	120	32.67	131	-0.7	50	-9.8	0	0	966.8	NA	0.0000		9999	9120	0	0	0
2019/04/06 05:10:00	BASE	27.04	119	32.31	128	-0.6	50	-9.8	0	0	966.8	NA	0.0000		9999	8790	0	0	0
2019/04/06 05:11:00	BASE	28.12	118	32.98	121	-0.6	50	-9.8	0	0	966.7	NA	0.0000		9999	8660	0	0	0
2019/04/06 05:12:00	BASE	26.07	120	32.98	121	-0.6	50	-9.9	0	0	966.9	NA	0.0000		9999	8730	0	0	0
2019/04/06 05:13:00	BASE	22.76	124	32.98	121	-0.6	50	-9.8	0	0	966.9	NA	0.0000		9999	8630	0	0	0
2019/04/06 05:14:00	BASE	23.83	125	32.98	121	-0.6	50	-9.8	0	0	966.8	NA	0.0000		9999	8690	0	0	0
2019/04/06 05:15:00	BASE	25.76	123	32.98	121	-0.6	50	-9.7	0	0	966.7	NA	0.0000		9999	8890	0	0	0
2019/04/06 05:16:00	BASE	26.39	122	32.98	121	-0.7	51	-9.7	0	0	966.5	NA	0.0000		9999	9120	0	0	0
2019/04/06 05:17:00	BASE	27.45	120	32.98	121	-0.7	51	-9.5	0	0	966.6	NA	0.0000		9999	8990	0	0	0
2019/04/06 05:18:00	BASE	28.18	117	32.98	121	-0.7	52	-9.4	0	0	966.7	NA	0.0000		9999	8560	0	0	0
2019/04/06 05:19:00	BASE	25.94	120	32.98	121	-0.7	52	-9.4	0	0	966.7	NA	0.0000		9999	8330	0	0	0
2019/04/06 05:20:00	BASE	26.72	122	32.98	121	-0.6	51	-9.5	0	0	966.5	NA	0.0000		9999	8100	0	0	0
2019/04/06 05:21:00	BASE	29.00	116	34.78	118	-0.6	51	-9.6	0	0	966.7	NA	0.0000		9999	8140	0	0	0
2019/04/06 05:22:00	BASE	29.66	113	34.78	118	-0.6	51	-9.6	0	0	966.6	NA	0.0000		9999	8430	0	0	0
2019/04/06 05:23:00	BASE	30.16	115	34.78	118	-0.7	50	-9.7	0	0	966.6	NA	0.0000		9999	8400	0	0	0
2019/04/06 05:24:00	BASE	29.38	111	34.78	118	-0.7	50	-9.8	0	0	966.8	NA	0.0000		9999	0	0	0	0
2019/04/06 05:25:00	BASE	28.85	111	34.78	118	-0.7	50	-9.8	0	0	966.8	NA	0.0000		9999	0	0	0	0
2019/04/06 05:26:00	BASE	25.71	113	34.78	118	-0.7	50	-9.9	0	0	967.0	NA	0.0000		9999	7420	0	0	0
2019/04/06 05:27:00	BASE	22.87	111	34.78	118	-0.8	50	-9.9	0	0	967.0	NA	0.0000		9999	7580	0	0	0
2019/04/06 05:28:00	BASE	24.62	113	34.78	118	-0.8	50	-9.8	0	0	966.8	NA	0.0000		9999	7150	0	0	0
2019/04/06 05:29:00	BASE	27.42	120	34.78	118	-0.8	51	-9.8	0	0	966.7	NA	0.0000		9999	6760	0	0	0
2019/04/06 05:30:00	BASE	27.56	120	34.78	118	-0.8	50	-9.8	0	0	966.8	NA	0.0000		9999	7350	0	0	0
2019/04/06 05:31:00	BASE	24.37	115	34.36	111	-0.8	51	-9.8	0	0	966.9	NA	0.0000		9999	6790	0	0	0
2019/04/06 05:32:00	BASE	23.09	118	32.67	115	-0.8	50	-9.8	0	0	966.9	NA	0.0000		9999	6660	0	0	0
2019/04/06 05:33:00	BASE	24.85	119	32.67	115	-0.7	50	-9.8	0	0	966.9	NA	0.0000		9999	0	0	0	0
2019/04/06 05:34:00	BASE	27.24	114	32.41	119	-0.7	50	-9.9	0	0	966.8	NA	0.0000		9999	6530	0	0	0
2019/04/06 05:35:00	BASE	26.68	118	32.41	119	-0.7	50	-9.9	0	0	966.9	NA	0.0000		9999	8300	0	0	0
2019/04/06 05:36:00	BASE	24.83	116	32.41	119	-0.7	50	-9.9	0	0	967.0	NA	0.0000		9999	8100	0	0	0
2019/04/06 05:37:00	BASE	25.27	112	32.41	119	-0.7	50	-9.9	0	0	967.0	NA	0.0000		9999	8010	0	0	0
2019/04/06 05:38:00	BASE	24.19	112	32.41	119	-0.7	50	-10.0	0	0	967.0	NA	0.0000		9999	8330	0	0	0
2019/04/06 05:39:00	BASE	23.61	107	31.43	116	-0.8	50	-10.0	0	0	967.1	NA	0.0000		9999	8170	0	0	0
2019/04/06 05:40:00	BASE	22.83	106	31.43	116	-0.9	51	-9.7	0	0	967.1	NA	0.0000		9999	8760	0	0	0
2019/04/06 05:41:00	BASE	21.99	107	31.43	116	-1.0	52	-9.6	0	0	967.1	NA	0.0000		9999	9090	0	0	0
2019/04/06 05:42:00	BASE	22.62	105	31.43	116	-1.1	53	-9.5	0	0	967.1	NA	0.0000		9999	9220	0	0	0
2019/04/06 05:43:00	BASE	22.48	104	31.43	116	-1.1	53	-9.4	0	0	967.2	NA	0.0000		9999	9190	0	0	0
2019/04/06 05:44:00	BASE	21.32	101	27.68	124	-1.1	53	-9.4	0	0	967.2	NA	0.0000		9999	9450	0	0	0
2019/04/06 05:45:00	BASE	18.66	101	27.32	103	-1.1	52	-9.6	0	0	967.2	NA	0.0000		9999	9580	0	0	0
2019/04/06 05:46:00	BASE	18.09	101	26.55	110	-1.0	52	-9.7	0	0	967.1	NA	0.0000		9999	9420	0	0	0
2019/04/06 05:47:00	BASE	20.88	103	26.44	105	-1.0	52	-9.8	0	0	967.0	NA	0.0000		9999	9020	0	0	0
2019/04/06 05:48:00	BASE	22.53	106	26.44	105	-1.1	52	-9.7	0	0	966.9	NA	0.0000		9999	9740	0	0	0
2019/04/06 05:49:00	BASE	21.35	109	25.72	101	-1.1	52	-9.7	0	0	966.9	NA	0.0000		9999	9580	0	0	0
2019/04/06 05:50:01	BASE	20.73	108	25.72	101	-1.1	53	-9.5	0	0	966.9	NA	0.0000		9999	9350	0	0	0
2019/04/06 05:51:00	BASE	21.53	103	25.41	111	-1.2	53	-9.4	0	0	966.9	NA	0.0000		9999	9480	0	0	0
2019/04/06 05:52:00	BASE	23.00	102	29.48	103	-1.2	54	-9.4	0	0	966.8	NA	0.0000		9999	9550	0	0	0
2019/04/06 05:53:00	BASE	25.14	100	29.48	103	-1.3	55	-9.3	0	0	966.9	NA	0.0000		9999	9120	0	0	0
2019/04/06 05:54:00	BASE	23.49	100	29.48	103	-1.4	56	-9.2	0	0	966.9	NA	0.0000		9999	8530	0	0	0
2019/04/06 05:55:00	BASE	21.26	103	29.48	103	-1.5	56	-9.1	0	0	967.0	NA	0.0000		9999	9120	0	0	0
2019/04/06 05:56:00	BASE	22.06	101	29.48	103	-1.6	57	-9.1	0	0	967.0	NA	0.0000		9999	9120	0	0	0
2019/04/06 05:57:00	BASE	23.56	98	29.48	103	-1.6	57	-9.1	0	0	966.9	NA	0.0000		9999	9650	0	0	0
2019/04/06 05:58:00	BASE	24.53	99	29.48	103	-1.6	57	-9.1	0	0	966.9	NA	0.0000		9999	8400	0	0	0
2019/04/06 05:59:00	BASE	25.30	99	30.61	107	-1.6	56	-9.2	0	0	967.0	NA	0.0000		9999	9150	0	0	0
2019/04/06 06:00:00	BASE	26.59	100	33.70	96	-1.6	56	-9.2	0	0	966.9	NA	0.0000		9999	9780	0	0	0
2019/04/06 06:01:00	BASE	28.88	102	33.70	96	-1.7	56	-9.3	0	0	966.9	NA	0.0000		9999	9710	0	0	0
2019/04/06 06:02:00	BASE	28.94	102	33.70	96	-1.7	56	-9.4	0	0	966.9	NA	0.0000		9999	9650	0	0	0
2019/04/06 06:03:00	BASE	26.56	99	33.70	96	-1.7	56	-9.4	0	0	967.0	NA	0.0000		9999	9910	0	0	0
2019/04/06 06:04:00	BASE	22.82	97	33.70	96	-1.7	56	-9.4	0	0	967.1	NA	0.0000		9999	9880	0	0	0
2019/04/06 06:05:00	BASE	20.88	97	33.70	96	-1.7	56	-9.4	0	0	967.1	NA	0.0000		9999	9650	0	0	0
2019/04/06 06:06:00	BASE	22.28	99	33.70	96	-1.7	56	-9.4	0	0	967.1	NA	0.0000		9999	10200	0	0	0
2019/04/06 06:07:00	BASE	23.57	102	33.70	96	-1.7	56	-9.3	0	0	967.0	NA	0.0000		9999	10660	0	0	0
2019/04/06 06:08:00	BASE	24.99	102	33.70	96	-1.6	56	-9.2	0	0	967.0	NA	0.0000		9999	10560	0	0	0
2019/04/06 06:09:00	BASE	26.59	104	33.70	96	-1.6	56	-9.2	0	0	966.9	NA	0.0000		9999	10270	0	0	0
2019/04/06 06:10:00	BASE	27.93	106	33.34	112	-1.6	56	-9.2	0	0	966.9	NA	0.0000		9999	10300	0	0	0
2019/04/06 06:11:00	BASE	27.27	107	33.34	112	-1.7	56	-9.2	0	0	966.9	NA	0.0000		9999	9970	0	0	0
2019/04/06 06:12:00	BASE	26.44	106	33.34	112	-1.7	56	-9.2	0	0	966.9	NA	0.0000		9999	10170	0	0	0
2019/04/06 06:13:00	BASE	28.43	103	33.80	103	-1.8	57	-9.2	0	0	966.8	NA	0.0000		9999	10470	0	0	0
2019/04/06 06:14:00	BASE	29.86	101	34.31	101	-1.8	57	-9.2	0	0	966.8	NA	0.0000		9999	10300	0	0	0
2019/04/06 06:15:00	BASE	29.11	101	34.31	101	-1.9	58	-9.1	0	0	966.8	NA	0.0000		9999	10860	0	0	0
2019/04/06 06:16:00	BASE	28.59	102	34.31	101	-2.0	59	-9.0	0	0	966.8	NA	0.0000		9999	11350	0	0	0
2019/04/06 06:17:00	BASE	27.55	106	34.31	101	-2.1	59	-9.0	0	0	966.7	NA	0.0000		9999	11350	0	0	0
2019/04/06 06:18:00	BASE	28.09	104	34.31	101	-2.1	59	-9.0	0	0	966.6	NA	0.0000		9999	10530	0	0	0
2019/04/06 06:19:00	BASE	28.81	102	34.31	101	-2.1	59	-9.0	0	0	966.6	NA	0.0000		9999	10600	0	0	0
2019/04/06 06:20:00	BASE	28.95	104	34.31	101	-2.1	59	-8.9	0	0	966.4	NA	0.0000		9999	9880	0	0	0
2019/04/06 06:21:00	BASE	29.87	101	35.70	97	-2.1	59	-9.0	0	0	966.5	NA	0.0000		9999	9120	0	0	0
2019/04/06 06:22:00	BASE	28.47	98	35.70	97	-2.0	59	-8.9	0	0	966.5	NA	0.0000		9999	10730	0	0	0
2019/04/06 06:23:00	BASE	27.64	98	35.70	97	-2.0	59	-9.0	0	0	966.5	NA	0.0000		9999	0	0	0	0
2019/04/06 06:24:00	BASE	28.39	99	35.70	97	-1.9	58	-9.1	0	0	966.5	NA	0.0000		9999	12930	0	0	0
2019/04/06 06:25:00	BASE	28.61	100	35.70	97	-1.8	57	-9.2	0	0	966.5	NA	0.0000		9999	12800	0	0	0
2019/04/06 06:26:00	BASE	28.21	103	35.70	97	-1.8	57	-9.3	0	0	966.5	NA	0.0000		9999	12210	0	0	0
2019/04/06 06:27:00	BASE	28.74	107	35.70	97	-1.8	56	-9.3	0	0	966.3	NA	0.0000		9999	12730	0	0	0
2019/04/06 06:28:00	BASE	31.02	106	35.70	97	-1.7	56	-9.4	0	0	966.3	NA	0.0000		9999	12430	0	0	0
2019/04/06 06:29:00	BASE	33.65	102	38.63	103	-1.7	56	-9.4	0	0	966.2	NA	0.0000		9999	10070	0	0	0
2019/04/06 06:30:00	BASE	32.75	100	38.63	103	-1.8	56	-9.3	0	0	966.3	NA	0.0000		9999	12430	0	0	0
2019/04/06 06:31:00	BASE	32.39	99	38.63	103	-1.8	57	-9.3	0	0	966.3	NA	0.0000		9999	12400	0	0	0
2019/04/06 06:32:00	BASE	33.01	101	38.63	103	-1.8	57	-9.3	0	0	966.4	NA	0.0000	HZ	9000	12270	0	0	0
2019/04/06 06:33:00	BASE	29.77	103	38.63	103	-1.8	57	-9.2	0	0	966.6	NA	0.0000	HZ	9000	11750	0	0	0
2019/04/06 06:34:00	BASE	26.09	103	38.63	103	-1.8	57	-9.2	0	0	966.7	NA	0.0000	HZ	9000	10730	0	0	0
2019/04/06 06:35:00	BASE	26.05	101	38.63	103	-1.8	57	-9.2	0	0	966.6	NA	0.0000	HZ	9000	10040	0	0	0
2019/04/06 06:36:00	BASE	24.95	101	38.63	103	-1.8	57	-9.2	0	0	966.8	NA	0.0000	HZ	9000	12470	0	0	0
2019/04/06 06:37:00	BASE	22.58	100	38.63	103	-1.8	57	-9.2	0	0	966.9	NA	0.0000	HZ	9999	12240	0	0	0
2019/04/06 06:38:00	BASE	23.39	99	38.63	103	-1.8	57	-9.2	0	0	966.9	NA	0.0000	HZ	9999	11780	0	0	0
2019/04/06 06:39:01	BASE	23.57	101	38.53	101	-1.8	57	-9.1	0	0	966.9	NA	0.0000	HZ	9000	12070	0	0	0
2019/04/06 06:40:00	BASE	22.63	101	38.53	101	-1.7	57	-9.2	0	0	967.0	NA	0.0000	HZ	9000	10430	0	0	0
2019/04/06 06:41:00	BASE	23.89	96	34.06	104	-1.7	56	-9.3	0	0	966.9	NA	0.0000	HZ	9999	12730	0	0	0
2019/04/06 06:42:00	BASE	25.90	96	32.00	100	-1.6	55	-9.4	0	0	966.9	NA	0.0000	HZ	9999	13320	0	0	0
2019/04/06 06:43:00	BASE	27.06	100	32.00	100	-1.5	54	-9.6	0	0	966.9	NA	0.0000	HZ	9000	12930	0	0	0
2019/04/06 06:44:00	BASE	26.90	104	32.00	100	-1.4	53	-9.8	0	0	966.9	NA	0.0000	HZ	9000	13420	0	0	0
2019/04/06 06:45:00	BASE	25.85	110	32.00	100	-1.3	52	-10.0	0	0	966.9	NA	0.0000	HZ	9000	13550	0	0	0
2019/04/06 06:46:01	BASE	24.27	116	32.00	100	-1.3	51	-10.2	0	0	967.0	NA	0.0000	HZ	9000	12760	0	0	0
2019/04/06 06:47:00	BASE	20.54	113	32.00	100	-1.2	50	-10.2	0	0	967.1	NA	0.0000	HZ	9000	12730	0	0	0
2019/04/06 06:48:00	BASE	20.38	113	32.00	100	-1.3	51	-10.2	0	0	967.0	NA	0.0000	HZ	9000	12570	0	0	0
2019/04/06 06:49:00	BASE	25.22	106	35.86	94	-1.2	51	-10.1	0	0	966.9	NA	0.0000	HZ	9000	12800	0	0	0
2019/04/06 06:50:00	BASE	28.32	99	35.86	94	-1.2	51	-10.0	0	0	966.9	NA	0.0000	HZ	9000	11580	0	0	0
2019/04/06 06:51:00	BASE	26.47	102	35.86	94	-1.2	51	-10.0	0	0	967.0	NA	0.0000	HZ	9000	12370	0	0	0
2019/04/06 06:52:00	BASE	25.46	101	35.86	94	-1.2	51	-10.0	0	0	967.1	NA	0.0000	HZ	9000	12830	0	0	0
2019/04/06 06:53:00	BASE	26.78	103	35.86	94	-1.1	51	-10.0	0	0	967.0	NA	0.0000	HZ	9000	12630	0	0	0
2019/04/06 06:54:01	BASE	28.80	109	35.86	94	-1.1	50	-10.1	0	0	967.0	NA	0.0000	HZ	9000	12630	0	0	0
2019/04/06 06:55:00	BASE	29.17	120	35.86	94	-1.1	50	-10.2	0	0	966.9	NA	0.0000	HZ	9000	11550	0	0	0
2019/04/06 06:56:00	BASE	27.40	121	35.86	94	-1.0	50	-10.2	0	0	967.1	NA	0.0000	HZ	9000	12430	0	0	0
2019/04/06 06:57:00	BASE	24.09	104	35.86	94	-1.0	50	-10.3	0	0	967.2	NA	0.0000	HZ	9000	13850	0	0	0
2019/04/06 06:58:00	BASE	24.07	97	35.86	94	-1.1	50	-10.2	0	0	967.1	NA	0.0000	HZ	9000	13710	0	0	0
2019/04/06 06:59:01	BASE	26.98	99	34.72	119	-1.1	50	-10.1	0	0	967.1	NA	0.0000	HZ	9000	13940	0	0	0
2019/04/06 07:00:00	BASE	26.58	107	34.72	119	-1.2	51	-10.1	0	0	967.2	NA	0.0000	HZ	9000	13980	0	0	0
2019/04/06 07:01:00	BASE	26.97	115	34.72	119	-1.2	51	-10.2	0	0	967.0	NA	0.0000	HZ	8000	13290	0	0	0
2019/04/06 07:02:00	BASE	24.86	113	34.72	119	-1.2	50	-10.2	0	0	967.2	NA	0.0000	HZ	8000	13480	0	0	0
2019/04/06 07:03:00	BASE	19.64	105	34.72	119	-1.2	50	-10.2	0	0	967.3	NA	0.0000	HZ	8000	13390	0	0	0
2019/04/06 07:04:00	BASE	16.69	102	34.72	119	-1.2	50	-10.2	0	0	967.3	NA	0.0000	HZ	8000	11810	0	0	0
2019/04/06 07:05:00	BASE	16.51	106	34.72	119	-1.3	51	-10.1	0	0	967.3	NA	0.0000	HZ	8000	13680	0	0	0
2019/04/06 07:06:00	BASE	18.14	112	32.98	103	-1.4	53	-9.8	0	0	967.3	NA	0.0000	HZ	9000	12270	0	0	0
2019/04/06 07:07:00	BASE	20.32	114	32.98	103	-1.4	53	-9.7	0	0	967.2	NA	0.0000	HZ	9000	13420	0	0	0
2019/04/06 07:08:00	BASE	23.36	111	32.98	103	-1.4	54	-9.6	0	0	967.1	NA	0.0000	HZ	8000	12760	0	0	0
2019/04/06 07:09:00	BASE	25.41	113	32.62	114	-1.4	53	-9.7	0	0	967.1	NA	0.0000	HZ	8000	12570	0	0	0
2019/04/06 07:10:00	BASE	21.53	124	32.62	114	-1.3	52	-10.0	0	0	967.0	NA	0.0000	HZ	8000	12830	0	0	0
2019/04/06 07:11:00	BASE	17.49	128	29.37	115	-1.2	50	-10.3	0	0	967.1	NA	0.0000	HZ	8000	13420	0	0	0
2019/04/06 07:12:00	BASE	20.75	119	29.37	115	-1.1	49	-10.5	0	0	967.2	NA	0.0000	HZ	9000	11090	0	0	0
2019/04/06 07:13:00	BASE	26.44	110	36.32	111	-1.1	49	-10.6	0	0	966.9	NA	0.0000	HZ SQ	8000	11940	0	0	0
2019/04/06 07:14:00	BASE	32.05	110	37.71	106	-1.2	49	-10.6	0	0	966.7	NA	0.0000	HZ SQ	8000	13350	0	0	0
2019/04/06 07:15:00	BASE	32.83	108	37.71	106	-1.2	49	-10.5	0	0	966.9	NA	0.0000	HZ SQ	8000	8460	0	0	0
2019/04/06 07:16:00	BASE	29.07	106	37.71	106	-1.3	50	-10.4	0	0	967.0	NA	0.0000	HZ	8000	8240	10200	0	0
2019/04/06 07:17:00	BASE	26.61	105	37.71	106	-1.4	50	-10.4	0	0	967.1	NA	0.0000	HZ	8000	9580	0	0	0
2019/04/06 07:18:00	BASE	27.48	101	37.71	106	-1.5	51	-10.4	0	0	967.1	NA	0.0000	HZ	8000	9380	0	0	0
2019/04/06 07:19:00	BASE	28.63	98	37.71	106	-1.6	51	-10.4	0	0	967.2	NA	0.0000	HZ	8000	10530	11940	0	0
2019/04/06 07:20:00	BASE	26.56	99	37.71	106	-1.6	51	-10.4	0	0	967.3	NA	0.0000	HZ	9000	11420	0	0	0
2019/04/06 07:21:00	BASE	25.86	103	37.71	106	-1.7	52	-10.3	0	0	967.2	NA	0.0000	HZ	8000	11220	0	0	0
2019/04/06 07:22:00	BASE	26.47	106	37.71	106	-1.7	52	-10.3	0	0	967.3	NA	0.0000	HZ	8000	12370	0	0	0
2019/04/06 07:23:00	BASE	26.05	103	37.71	106	-1.6	52	-10.3	0	0	967.4	NA	0.0000	HZ	8000	12040	0	0	0
2019/04/06 07:24:00	BASE	24.73	104	34.98	113	-1.5	52	-10.2	0	0	967.4	NA	0.0000	HZ	8000	12660	0	0	0
2019/04/06 07:25:00	BASE	22.91	109	32.77	100	-1.5	51	-10.3	0	0	967.5	NA	0.0000	HZ	8000	12760	0	0	0
2019/04/06 07:26:00	BASE	20.05	110	32.77	100	-1.4	51	-10.3	0	0	967.5	NA	0.0000	HZ	8000	12500	0	0	0
2019/04/06 07:27:00	BASE	19.88	107	32.77	100	-1.4	51	-10.3	0	0	967.5	NA	0.0000	HZ	7000	12730	0	0	0
2019/04/06 07:28:00	BASE	21.87	105	31.07	96	-1.4	51	-10.3	0	0	967.5	NA	0.0000	HZ	8000	12800	0	0	0
2019/04/06 07:29:00	BASE	22.33	107	29.48	118	-1.4	51	-10.3	0	0	967.5	NA	0.0000	HZ	8000	12760	0	0	0
2019/04/06 07:30:00	BASE	22.67	108	29.48	118	-1.4	51	-10.3	0	0	967.5	NA	0.0000	HZ	8000	11880	0	0	0
2019/04/06 07:31:00	BASE	22.12	105	30.20	99	-1.4	51	-10.3	0	0	967.5	NA	0.0000	HZ	8000	12660	0	0	0
2019/04/06 07:32:00	BASE	23.06	101	30.20	99	-1.3	50	-10.4	0	0	967.3	NA	0.0000	HZ	8000	12990	0	0	0
2019/04/06 07:33:00	BASE	24.09	101	30.20	99	-1.3	50	-10.5	0	0	967.3	NA	0.0000	HZ	8000	12500	0	0	0
2019/04/06 07:34:00	BASE	23.23	102	30.20	99	-1.2	49	-10.6	0	0	967.4	NA	0.0000	HZ	8000	12530	0	0	0
2019/04/06 07:35:00	BASE	22.26	108	30.20	99	-1.3	49	-10.6	0	0	967.4	NA	0.0000	HZ	8000	12630	0	0	0
2019/04/06 07:36:00	BASE	22.94	111	30.20	99	-1.3	49	-10.6	0	0	967.4	NA	0.0000	HZ	8000	12730	0	0	0
2019/04/06 07:37:00	BASE	23.92	110	30.20	99	-1.3	50	-10.5	0	0	967.5	NA	0.0000	HZ	8000	12370	0	0	0
2019/04/06 07:38:00	BASE	24.14	113	30.20	99	-1.3	50	-10.4	0	0	967.4	NA	0.0000	HZ	8000	12500	0	0	0
2019/04/06 07:39:00	BASE	23.44	115	30.20	99	-1.3	50	-10.4	0	0	967.4	NA	0.0000	HZ	8000	12070	0	0	0
2019/04/06 07:40:00	BASE	21.80	120	30.20	99	-1.3	50	-10.4	0	0	967.4	NA	0.0000	HZ	7000	12340	0	0	0
2019/04/06 07:41:00	BASE	19.28	122	28.19	103	-1.3	50	-10.5	0	0	967.5	NA	0.0000	HZ	7000	12530	0	0	0
2019/04/06 07:42:00	BASE	17.01	115	27.32	112	-1.2	50	-10.3	0	0	967.7	NA	0.0000	HZ	7000	12500	0	0	0
2019/04/06 07:43:00	BASE	17.91	110	27.32	112	-1.3	51	-10.2	0	0	967.7	NA	0.0000	HZ	8000	12340	0	0	0
2019/04/06 07:44:00	BASE	17.39	107	27.32	112	-1.3	51	-10.0	0	0	967.9	NA	0.0000	HZ	8000	12370	12760	0	0
2019/04/06 07:45:00	BASE	15.89	105	27.32	112	-1.3	52	-9.9	0	0	967.9	NA	0.0000	HZ	7000	12170	0	0	0
2019/04/06 07:46:00	BASE	18.01	100	27.32	112	-1.3	52	-9.9	0	0	967.8	NA	0.0000	HZ	7000	12300	0	0	0
2019/04/06 07:47:00	BASE	20.09	101	27.32	112	-1.3	51	-10.1	0	0	967.8	NA	0.0000	HZ	7000	12470	0	0	0
2019/04/06 07:48:00	BASE	18.65	108	26.03	122	-1.3	50	-10.3	0	0	967.9	NA	0.0000	HZ	7000	12370	0	0	0
2019/04/06 07:49:00	BASE	20.09	104	26.75	95	-1.3	50	-10.4	0	0	967.8	NA	0.0000	HZ	7000	12240	0	0	0
2019/04/06 07:50:00	BASE	25.07	104	29.37	104	-1.3	49	-10.5	0	0	967.6	NA	0.0000	HZ	7000	12470	0	0	0
2019/04/06 07:51:00	BASE	26.47	109	30.71	115	-1.3	49	-10.6	0	0	967.7	NA	0.0000	HZ	7000	12730	0	0	0
2019/04/06 07:52:00	BASE	25.59	106	30.71	115	-1.3	49	-10.5	0	0	967.8	NA	0.0000	HZ	7000	12340	0	0	0
2019/04/06 07:53:00	BASE	24.05	100	30.71	115	-1.3	50	-10.5	0	0	967.8	NA	0.0000	HZ	7000	11880	0	0	0
2019/04/06 07:54:00	BASE	24.87	93	32.67	88	-1.4	50	-10.6	0	0	967.7	NA	0.0000	HZ	7000	12040	0	0	0
2019/04/06 07:55:00	BASE	27.19	87	32.67	88	-1.4	50	-10.6	0	0	967.8	NA	0.0000	HZ	7000	12140	0	0	0
2019/04/06 07:56:00	BASE	26.55	93	32.67	88	-1.5	50	-10.7	0	0	968.0	NA	0.0000	HZ	7000	12010	0	0	0
2019/04/06 07:57:00	BASE	24.78	100	32.67	88	-1.5	49	-10.7	0	0	968.1	NA	0.0000	HZ	7000	12070	0	0	0
2019/04/06 07:58:00	BASE	22.00	99	32.67	88	-1.5	49	-10.7	0	0	968.1	NA	0.0000	HZ	7000	11910	0	0	0
2019/04/06 07:59:00	BASE	19.43	101	32.67	88	-1.5	49	-10.7	0	0	968.1	NA	0.0000	HZ	7000	9250	11880	0	0
2019/04/06 08:00:00	BASE	18.92	103	32.67	88	-1.5	50	-10.6	0	0	968.1	NA	0.0000	HZ	7000	11710	0	0	0
2019/04/06 08:01:00	BASE	21.10	97	32.67	88	-1.5	50	-10.4	0	0	968.0	NA	0.0000	HZ	7000	11680	0	0	0
2019/04/06 08:02:00	BASE	22.32	96	32.67	88	-1.5	51	-10.4	0	0	968.1	NA	0.0000	HZ	7000	11550	12070	0	0
2019/04/06 08:03:00	BASE	21.47	102	32.67	88	-1.5	51	-10.4	0	0	968.3	NA	0.0000	HZ	7000	11250	0	0	0
2019/04/06 08:04:00	BASE	21.46	104	30.92	88	-1.5	51	-10.4	0	0	968.3	NA	0.0000	HZ	7000	11780	0	0	0
2019/04/06 08:05:00	BASE	19.91	100	27.57	104	-1.4	51	-10.3	0	0	968.4	NA	0.0000	HZ	7000	11710	0	0	0
2019/04/06 08:06:00	BASE	17.76	104	26.44	86	-1.4	51	-10.3	0	0	968.4	NA	0.0000	HZ	7000	11710	0	0	0
2019/04/06 08:07:00	BASE	18.36	109	26.44	86	-1.4	51	-10.1	0	0	968.4	NA	0.0000	HZ	7000	11520	0	0	0
2019/04/06 08:08:00	BASE	19.22	106	26.44	86	-1.4	52	-10.0	0	0	968.4	NA	0.0000	HZ	7000	11650	0	0	0
2019/04/06 08:09:00	BASE	20.86	101	26.44	86	-1.4	52	-10.0	0	0	968.4	NA	0.0000	HZ	7000	11480	0	0	0
2019/04/06 08:10:00	BASE	23.09	97	26.44	86	-1.5	52	-10.1	0	0	968.4	NA	0.0000	HZ	7000	11320	12210	0	0
2019/04/06 08:11:00	BASE	22.29	97	26.24	102	-1.5	51	-10.3	0	0	968.4	NA	0.0000	HZ	7000	12110	0	0	0
2019/04/06 08:12:00	BASE	19.53	94	26.24	102	-1.5	50	-10.5	0	0	968.5	NA	0.0000	HZ	7000	12010	0	0	0
2019/04/06 08:13:00	BASE	19.27	99	26.24	102	-1.5	50	-10.7	0	0	968.5	NA	0.0000	HZ	7000	12040	0	0	0
2019/04/06 08:14:00	BASE	19.90	101	26.24	102	-1.5	49	-10.8	0	0	968.5	NA	0.0000	HZ	7000	11840	0	0	0
2019/04/06 08:15:00	BASE	17.56	100	26.24	102	-1.6	50	-10.8	0	0	968.5	NA	0.0000	HZ	7000	10930	0	0	0
2019/04/06 08:16:00	BASE	17.79	105	26.24	102	-1.7	50	-10.7	0	0	968.5	NA	0.0000	HZ	7000	11060	0	0	0
2019/04/06 08:17:00	BASE	19.81	111	26.24	102	-1.7	51	-10.6	0	0	968.5	NA	0.0000	HZ	7000	11220	0	0	0
2019/04/06 08:18:00	BASE	18.64	114	26.24	102	-1.7	51	-10.5	0	0	968.5	NA	0.0000	HZ	7000	11650	0	0	0
2019/04/06 08:19:00	BASE	17.20	115	26.24	102	-1.7	51	-10.5	0	0	968.6	NA	0.0000	HZ	7000	11520	0	0	0
2019/04/06 08:20:00	BASE	16.30	112	24.90	109	-1.6	50	-10.6	0	0	968.6	NA	0.0000	HZ	7000	10860	0	0	0
2019/04/06 08:21:00	BASE	16.41	103	24.90	109	-1.5	50	-10.6	0	0	968.6	NA	0.0000	HZ	7000	10600	0	0	0
2019/04/06 08:22:00	BASE	15.80	96	24.90	109	-1.5	50	-10.7	0	0	968.7	NA	0.0000	HZ	7000	11580	0	0	0
2019/04/06 08:23:00	BASE	14.60	97	23.20	108	-1.5	49	-10.8	0	0	968.7	NA	0.0000	HZ	7000	11650	0	0	0
2019/04/06 08:24:00	BASE	14.45	102	23.20	108	-1.6	50	-10.7	0	0	968.6	NA	0.0000	HZ	6000	11580	0	0	0
2019/04/06 08:25:00	BASE	15.28	108	23.20	108	-1.6	50	-10.7	0	0	968.5	NA	0.0000	HZ	7000	11420	0	0	0
2019/04/06 08:26:00	BASE	17.33	111	23.10	122	-1.6	50	-10.6	0	0	968.5	NA	0.0000	HZ	7000	11450	0	0	0
2019/04/06 08:27:00	BASE	20.23	112	24.28	112	-1.6	51	-10.5	0	0	968.2	NA	0.0000	HZ	7000	11480	0	0	0
2019/04/06 08:28:00	BASE	19.63	107	24.28	112	-1.6	51	-10.4	0	0	968.3	NA	0.0000	HZ	7000	11610	0	0	0
2019/04/06 08:29:00	BASE	18.98	106	24.54	120	-1.6	51	-10.4	0	0	968.2	NA	0.0000	HZ	7000	11420	0	0	0
2019/04/06 08:30:00	BASE	20.78	113	24.54	120	-1.6	51	-10.4	0	0	968.1	NA	0.0000	HZ	7000	11190	0	0	0
2019/04/06 08:31:00	BASE	23.52	113	29.37	115	-1.6	50	-10.5	0	0	967.9	NA	0.0000	HZ	7000	10830	0	0	0
2019/04/06 08:32:00	BASE	26.77	111	29.94	109	-1.6	50	-10.6	0	0	967.9	NA	0.0000	HZ	7000	10600	0	0	0
2019/04/06 08:33:00	BASE	25.84	113	29.94	109	-1.6	50	-10.6	0	0	967.9	NA	0.0000	HZ	7000	10960	0	0	0
2019/04/06 08:34:00	BASE	24.56	110	29.94	109	-1.6	50	-10.7	0	0	968.0	NA	0.0000	HZ	6000	11160	0	0	0
2019/04/06 08:35:00	BASE	24.72	108	29.94	109	-1.7	50	-10.7	0	0	967.9	NA	0.0000	HZ	7000	10470	0	0	0
2019/04/06 08:36:00	BASE	23.41	109	29.94	109	-1.7	51	-10.6	0	0	968.0	NA	0.0000	HZ	6000	10400	0	0	0
2019/04/06 08:37:00	BASE	21.60	112	29.94	109	-1.8	51	-10.6	0	0	968.0	NA	0.0000	HZ	7000	11190	0	0	0
2019/04/06 08:38:00	BASE	23.12	111	29.94	109	-1.8	51	-10.5	0	0	967.9	NA	0.0000	HZ	7000	10730	0	0	0
2019/04/06 08:39:00	BASE	23.29	108	29.94	109	-1.8	51	-10.6	0	0	968.1	NA	0.0000	HZ	6000	10860	0	0	0
2019/04/06 08:40:00	BASE	20.08	109	29.94	109	-1.8	51	-10.7	0	0	968.2	NA	0.0000	HZ	6000	10660	0	0	0
2019/04/06 08:41:00	BASE	19.20	110	29.94	109	-1.8	50	-10.7	0	0	968.3	NA	0.0000	HZ	6000	9970	10660	0	0
2019/04/06 08:42:00	BASE	20.98	110	28.60	112	-1.8	51	-10.7	0	0	968.2	NA	0.0000	HZ	6000	9810	0	0	0
2019/04/06 08:43:00	BASE	21.87	110	28.60	112	-1.7	51	-10.6	0	0	968.3	NA	0.0000	HZ	6000	9970	0	0	0
2019/04/06 08:44:00	BASE	22.95	108	30.61	102	-1.7	51	-10.6	0	0	968.3	NA	0.0000	HZ	6000	9250	0	0	0
2019/04/06 08:45:00	BASE	24.41	105	30.61	102	-1.7	51	-10.6	0	0	968.3	NA	0.0000	HZ	6000	9680	0	0	0
2019/04/06 08:46:00	BASE	23.54	104	30.61	102	-1.7	50	-10.7	0	0	968.3	NA	0.0000	HZ	6000	9580	10990	0	0
2019/04/06 08:47:00	BASE	23.10	105	30.61	102	-1.6	50	-10.8	0	0	968.2	NA	0.0000	HZ	6000	9550	0	0	0
2019/04/06 08:48:00	BASE	23.65	109	30.61	102	-1.7	50	-10.8	0	0	968.1	NA	0.0000	HZ	6000	10300	0	0	0
2019/04/06 08:49:00	BASE	23.22	110	30.61	102	-1.7	50	-10.8	0	0	968.2	NA	0.0000	HZ	6000	9480	0	0	0
2019/04/06 08:50:00	BASE	22.89	109	30.61	102	-1.8	50	-10.7	0	0	968.2	NA	0.0000	HZ	6000	11020	0	0	0
2019/04/06 08:51:00	BASE	24.05	108	30.61	102	-1.8	51	-10.6	0	0	968.2	NA	0.0000	HZ	6000	8460	0	0	0
2019/04/06 08:52:00	BASE	25.43	107	30.61	102	-1.8	51	-10.5	0	0	968.2	NA	0.0000	HZ	6000	8660	0	0	0
2019/04/06 08:53:00	BASE	23.61	109	30.61	102	-1.8	51	-10.5	0	0	968.2	NA	0.0000	HZ	6000	7970	0	0	0
2019/04/06 08:54:00	BASE	22.04	111	28.65	112	-1.9	52	-10.5	0	0	968.1	NA	0.0000	HZ	6000	8330	0	0	0
2019/04/06 08:55:00	BASE	23.95	112	29.53	114	-1.9	52	-10.5	0	0	968.0	NA	0.0000	HZ	6000	10700	0	0	0
2019/04/06 08:56:00	BASE	27.66	113	31.84	108	-1.9	51	-10.6	0	0	967.8	NA	0.0000	HZ	6000	8430	0	0	0
2019/04/06 08:57:00	BASE	28.51	114	31.84	108	-1.8	51	-10.6	0	0	967.9	NA	0.0000	HZ	6000	8400	9420	0	0
2019/04/06 08:58:00	BASE	28.41	110	32.67	106	-1.8	51	-10.6	0	0	967.8	NA	0.0000	HZ	6000	8330	0	0	0
2019/04/06 08:59:00	BASE	29.67	110	32.67	106	-1.8	51	-10.6	0	0	967.8	NA	0.0000	HZ	6000	8690	0	0	0
2019/04/06 09:00:00	BASE	29.39	113	32.67	106	-1.8	51	-10.6	0	0	967.8	NA	0.0000	HZ	6000	11250	0	0	0
2019/04/06 09:01:00	BASE	28.65	113	32.67	106	-1.8	51	-10.6	0	0	967.8	NA	0.0000	HZ	6000	10660	0	0	0
2019/04/06 09:02:00	BASE	26.33	110	32.67	106	-1.9	51	-10.6	0	0	967.9	NA	0.0000	HZ	6000	11290	0	0	0
2019/04/06 09:03:00	BASE	24.18	110	32.67	106	-1.9	51	-10.6	0	0	968.0	NA	0.0000	HZ	6000	9580	0	0	0
2019/04/06 09:04:00	BASE	23.51	109	32.67	106	-2.0	52	-10.6	0	0	967.9	NA	0.0000	HZ	6000	9350	0	0	0
2019/04/06 09:05:00	BASE	24.99	105	32.67	106	-2.0	52	-10.6	0	0	967.8	NA	0.0000	HZ	6000	10760	0	0	0
2019/04/06 09:06:00	BASE	28.22	105	33.54	103	-2.1	53	-10.5	0	0	967.8	NA	0.0000	HZ	6000	8270	0	0	0
2019/04/06 09:07:00	BASE	28.00	104	33.54	103	-2.2	53	-10.5	0	0	967.9	NA	0.0000	HZ	6000	7840	0	0	0
2019/04/06 09:08:00	BASE	26.82	107	33.54	103	-2.2	54	-10.4	0	0	968.0	NA	0.0000	HZ	6000	8070	0	0	0
2019/04/06 09:09:00	BASE	27.36	111	33.54	103	-2.2	54	-10.3	0	0	968.0	NA	0.0000	HZ	6000	7840	0	0	0
2019/04/06 09:10:00	BASE	26.68	110	33.54	103	-2.2	55	-10.1	0	0	968.1	NA	0.0000	HZ	6000	11060	0	0	0
2019/04/06 09:11:00	BASE	25.24	108	33.54	103	-2.3	56	-9.9	0	0	968.2	NA	0.0000	HZ	6000	10040	0	0	0
2019/04/06 09:12:00	BASE	24.94	107	33.54	103	-2.3	56	-9.8	0	0	968.2	NA	0.0000	HZ	6000	10560	0	0	0
2019/04/06 09:13:00	BASE	25.69	110	33.54	103	-2.3	57	-9.8	0	0	968.1	NA	0.0000	HZ	6000	11120	0	0	0
2019/04/06 09:14:00	BASE	27.03	111	33.54	103	-2.3	56	-9.8	0	0	968.1	NA	0.0000	HZ	5000	11120	0	0	0
2019/04/06 09:15:00	BASE	26.92	107	33.54	103	-2.2	56	-9.9	0	0	968.2	NA	0.0000	HZ	5000	11060	0	0	0
2019/04/06 09:16:00	BASE	25.36	107	32.00	112	-2.2	55	-10.0	0	0	968.2	NA	0.0000	HZ	6000	10170	0	0	0
2019/04/06 09:17:00	BASE	23.94	108	32.00	112	-2.1	54	-10.1	0	0	968.3	NA	0.0000	HZ	5000	11060	0	0	0
2019/04/06 09:18:00	BASE	25.19	106	30.92	108	-2.1	54	-10.2	0	0	968.1	NA	0.0000	HZ	5000	10860	0	0	0
2019/04/06 09:19:00	BASE	27.05	105	31.95	104	-2.1	54	-10.3	0	0	968.0	NA	0.0000	HZ	5000	10960	0	0	0
2019/04/06 09:20:00	BASE	26.53	108	31.95	104	-2.2	54	-10.3	0	0	967.8	NA	0.0000	HZ	5000	10560	11190	0	0
2019/04/06 09:21:00	BASE	27.68	106	32.26	103	-2.2	53	-10.4	0	0	967.8	NA	0.0000	HZ	5000	10530	0	0	0
2019/04/06 09:22:00	BASE	27.78	103	32.26	103	-2.2	53	-10.5	0	0	967.8	NA	0.0000	HZ	5000	10600	0	0	0
2019/04/06 09:23:00	BASE	27.43	105	32.31	100	-2.1	52	-10.6	0	0	967.8	NA	0.0000	HZ	5000	10760	0	0	0
2019/04/06 09:24:00	BASE	27.03	106	32.41	96	-2.1	52	-10.7	0	0	967.8	NA	0.0000	HZ	5000	10140	10930	0	0
2019/04/06 09:25:00	BASE	26.99	105	33.03	103	-2.1	52	-10.8	0	0	967.7	NA	0.0000	HZ	5000	10070	0	0	0
2019/04/06 09:26:00	BASE	30.09	108	36.06	109	-2.2	52	-10.8	0	0	967.6	NA	0.0000	HZ	5000	10790	0	0	0
2019/04/06 09:27:00	BASE	28.08	108	36.06	109	-2.2	51	-10.9	0	0	967.9	NA	0.0000	HZ	6000	9580	0	0	0
2019/04/06 09:28:00	BASE	27.38	106	36.06	109	-2.2	52	-10.9	0	0	967.6	NA	0.0000	HZ	7000	9940	0	0	0
2019/04/06 09:29:00	BASE	30.14	105	36.06	109	-2.3	52	-10.8	0	0	967.6	NA	0.0000	HZ	8000	10600	0	0	0
2019/04/06 09:30:00	BASE	29.04	108	36.06	109	-2.3	52	-10.8	0	0	967.4	NA	0.0000	HZ	8000	9320	0	0	0
2019/04/06 09:31:00	BASE	27.84	109	36.06	109	-2.3	52	-10.8	0	0	967.4	NA	0.0000	HZ	9000	10530	0	0	0
2019/04/06 09:32:00	BASE	28.76	109	36.06	109	-2.3	52	-10.8	0	0	967.3	NA	0.0000	HZ	9999	10240	10790	0	0
2019/04/06 09:33:00	BASE	29.87	110	36.06	109	-2.3	52	-10.7	0	0	967.4	NA	0.0000	HZ	9999	10140	0	0	0
2019/04/06 09:34:00	BASE	28.94	108	36.06	109	-2.2	52	-10.7	0	0	967.4	NA	0.0000	HZ	9000	9940	0	0	0
2019/04/06 09:35:10	BASE	29.07	108	36.06	109	-2.2	52	-10.8	0	0	967.3	NA	0.0000	HZ	9000	10170	0	0	0
2019/04/06 09:36:00	BASE	28.30	108	35.34	97	-2.2	52	-10.8	0	0	967.3	NA	0.0000	HZ	9000	8920	0	0	0
2019/04/06 09:37:00	BASE	25.79	107	35.34	97	-2.2	52	-10.8	0	0	967.5	NA	0.0000	HZ	9999	8790	0	0	0
2019/04/06 09:38:00	BASE	24.86	105	34.26	106	-2.2	52	-10.7	0	0	967.4	NA	0.0000	HZ	9999	7840	0	0	0
2019/04/06 09:39:00	BASE	27.27	104	34.26	106	-2.2	52	-10.7	0	0	967.2	NA	0.0000	HZ	9999	10140	0	0	0
2019/04/06 09:40:00	BASE	27.73	103	32.92	107	-2.3	52	-10.7	0	0	967.3	NA	0.0000	HZ	9000	9880	0	0	0
2019/04/06 09:41:00	BASE	26.53	101	32.92	107	-2.3	53	-10.7	0	0	967.3	NA	0.0000	HZ	9999	10040	10560	0	0
2019/04/06 09:42:00	BASE	27.56	102	32.92	107	-2.3	53	-10.7	0	0	967.3	NA	0.0000	HZ	9000	10200	0	0	0
2019/04/06 09:43:00	BASE	29.12	104	33.23	97	-2.3	52	-10.9	0	0	967.2	NA	0.0000	HZ	9000	10500	0	0	0
2019/04/06 09:44:00	BASE	27.11	106	33.23	97	-2.3	52	-10.9	0	0	967.3	NA	0.0000	HZ	9000	10530	0	0	0
2019/04/06 09:45:00	BASE	25.42	109	33.34	108	-2.3	52	-10.8	0	0	967.2	NA	0.0000	HZ	9000	8400	0	0	0
2019/04/06 09:46:00	BASE	27.90	110	33.34	108	-2.3	53	-10.7	0	0	967.2	NA	0.0000	HZ	9999	10040	0	0	0
2019/04/06 09:47:00	BASE	27.22	106	33.34	108	-2.3	53	-10.7	0	0	967.4	NA	0.0000	HZ	9999	10240	0	0	0
2019/04/06 09:48:00	BASE	26.61	104	33.34	108	-2.3	53	-10.7	0	0	967.3	NA	0.0000	HZ	9999	10110	0	0	0
2019/04/06 09:49:00	BASE	28.02	108	33.34	108	-2.3	52	-10.7	0	0	967.3	NA	0.0000	HZ	9999	10370	0	0	0
2019/04/06 09:50:00	BASE	26.36	113	33.34	108	-2.3	52	-10.8	0	0	967.4	NA	0.0000	HZ	9999	10530	0	0	0
2019/04/06 09:51:00	BASE	23.01	111	33.34	108	-2.2	52	-10.7	0	0	967.6	NA	0.0000		9999	10400	0	0	0
2019/04/06 09:52:00	BASE	21.96	108	33.34	108	-2.3	53	-10.6	0	0	967.6	NA	0.0000		9999	9710	0	0	0
2019/04/06 09:53:00	BASE	24.88	107	33.34	108	-2.3	53	-10.5	0	0	967.6	NA	0.0000		9999	8860	10470	0	0
2019/04/06 09:54:00	BASE	26.73	105	33.34	108	-2.3	54	-10.4	0	0	967.6	NA	0.0000		9999	8860	10530	0	0
2019/04/06 09:55:00	BASE	26.84	103	33.13	109	-2.4	54	-10.4	0	0	967.6	NA	0.0000		9999	8890	10430	0	0
2019/04/06 09:56:00	BASE	25.76	108	31.59	108	-2.4	54	-10.4	0	0	967.7	NA	0.0000		9999	10300	0	0	0
2019/04/06 09:57:00	BASE	24.97	109	31.59	108	-2.4	54	-10.5	0	0	967.6	NA	0.0000		9999	10010	0	0	0
2019/04/06 09:58:00	BASE	26.86	104	31.48	108	-2.4	53	-10.6	0	0	967.5	NA	0.0000		9999	10430	0	0	0
2019/04/06 09:59:00	BASE	29.54	103	34.00	96	-2.4	53	-10.7	0	0	967.3	NA	0.0000		9999	10470	0	0	0
2019/04/06 10:00:00	BASE	30.22	105	34.00	96	-2.4	53	-10.7	0	0	967.4	NA	0.0000		9999	10790	0	0	0
2019/04/06 10:01:00	BASE	29.33	106	34.00	96	-2.4	53	-10.7	0	0	967.5	NA	0.0000		9999	10790	0	0	0
2019/04/06 10:02:00	BASE	28.09	105	34.00	96	-2.4	53	-10.8	0	0	967.7	NA	0.0000		9999	10700	0	0	0
2019/04/06 10:03:00	BASE	29.31	103	34.78	105	-2.4	53	-10.8	0	0	967.6	NA	0.0000		9999	10340	0	0	0
2019/04/06 10:04:00	BASE	29.98	104	34.78	105	-2.4	53	-10.7	0	0	967.8	NA	0.0000		9999	10200	0	0	0
2019/04/06 10:05:00	BASE	29.83	105	34.78	105	-2.4	53	-10.7	0	0	967.7	NA	0.0000		9999	10470	0	0	0
2019/04/06 10:06:00	BASE	28.44	103	34.78	105	-2.4	53	-10.7	0	0	967.9	NA	0.0000		9000	10430	0	0	0
2019/04/06 10:07:00	BASE	26.81	99	34.78	105	-2.5	54	-10.6	0	0	967.9	NA	0.0000		9000	10300	0	0	0
2019/04/06 10:08:00	BASE	28.48	99	34.78	105	-2.5	54	-10.6	0	0	967.9	NA	0.0000		9999	10400	0	0	0
2019/04/06 10:09:00	BASE	29.32	103	34.78	105	-2.5	54	-10.6	0	0	967.8	NA	0.0000		9999	10340	0	0	0
2019/04/06 10:10:00	BASE	31.83	105	38.22	103	-2.6	54	-10.6	0	0	967.6	NA	0.0000		9999	10530	0	0	0
2019/04/06 10:11:00	BASE	33.91	107	40.02	106	-2.6	54	-10.6	0	0	967.7	NA	0.0000	HZ	8000	9580	10110	10600	0
2019/04/06 10:12:00	BASE	31.49	110	40.02	106	-2.6	54	-10.6	0	0	967.9	NA	0.0000	HZ	8000	10070	0	0	0
2019/04/06 10:13:00	BASE	31.08	105	40.02	106	-2.7	55	-10.6	0	0	967.7	NA	0.0000	HZ	8000	10110	0	0	0
2019/04/06 10:14:00	BASE	31.75	102	40.02	106	-2.8	55	-10.5	0	0	967.9	NA	0.0000	HZ	8000	9840	0	0	0
2019/04/06 10:15:00	BASE	32.63	105	42.34	105	-2.8	56	-10.4	0	0	967.8	NA	0.0000	HZ	8000	10010	0	0	0
2019/04/06 10:16:00	BASE	33.90	109	42.34	105	-2.8	56	-10.4	0	0	967.8	NA	0.0000	HZ	8000	9970	0	0	0
2019/04/06 10:17:00	BASE	32.94	110	42.34	105	-2.8	56	-10.3	0	0	967.8	NA	0.0000	HZ	8000	10010	0	0	0
2019/04/06 10:18:00	BASE	31.53	108	42.34	105	-2.8	57	-10.3	0	0	967.8	NA	0.0000	HZ	8000	9610	0	0	0
2019/04/06 10:19:00	BASE	30.77	105	42.34	105	-2.9	57	-10.2	0	0	967.8	NA	0.0000	HZ	9000	9680	0	0	0
2019/04/06 10:20:00	BASE	29.69	106	42.34	105	-2.9	57	-10.2	0	0	967.9	NA	0.0000	HZ	9000	9650	0	0	0
2019/04/06 10:21:00	BASE	28.09	109	42.34	105	-2.9	57	-10.2	0	0	967.9	NA	0.0000	HZ	9000	9610	0	0	0
2019/04/06 10:22:00	BASE	29.65	106	42.34	105	-2.9	57	-10.2	0	0	967.8	NA	0.0000	HZ	9000	9510	0	0	0
2019/04/06 10:23:00	BASE	31.28	103	42.34	105	-2.8	57	-10.3	0	0	967.8	NA	0.0000	HZ	8000	9550	0	0	0
2019/04/06 10:24:00	BASE	30.33	102	42.34	105	-2.8	56	-10.3	0	0	967.9	NA	0.0000	HZ	8000	9550	0	0	0
2019/04/06 10:25:00	BASE	28.33	105	36.99	112	-2.9	57	-10.3	0	0	967.9	NA	0.0000	HZ	8000	9810	0	0	0
2019/04/06 10:26:00	BASE	26.51	108	36.99	112	-2.9	57	-10.3	0	0	968.0	NA	0.0000	HZ	8000	9610	0	0	0
2019/04/06 10:27:00	BASE	25.76	107	35.45	102	-2.9	57	-10.2	0	0	968.0	NA	0.0000	HZ	8000	9550	0	0	0
2019/04/06 10:28:00	BASE	26.77	107	35.45	102	-3.0	58	-10.1	0	0	967.9	NA	0.0000	HZ	9000	9510	0	0	0
2019/04/06 10:29:00	BASE	26.84	109	35.45	102	-3.0	58	-10.0	0	0	967.9	NA	0.0000	HZ	9000	9480	0	0	0
2019/04/06 10:30:00	BASE	25.86	110	35.45	102	-3.0	58	-10.0	0	0	968.0	NA	0.0000	HZ	9000	9450	0	0	0
2019/04/06 10:31:00	BASE	24.59	106	35.45	102	-2.9	58	-10.1	0	0	968.0	NA	0.0000	HZ	9000	9480	0	0	0
2019/04/06 10:32:00	BASE	26.82	102	34.72	98	-2.8	57	-10.2	0	0	967.9	NA	0.0000	HZ	9000	9350	0	0	0
2019/04/06 10:33:00	BASE	29.91	103	33.80	105	-2.7	56	-10.3	0	0	967.9	NA	0.0000	HZ	9000	9320	0	0	0
2019/04/06 10:34:00	BASE	29.72	105	35.39	104	-2.7	55	-10.4	0	0	968.0	NA	0.0000	HZ	8000	9420	0	0	0
2019/04/06 10:35:00	BASE	28.47	108	35.39	104	-2.6	55	-10.5	0	0	968.1	NA	0.0000	HZ	8000	9550	0	0	0
2019/04/06 10:36:00	BASE	26.80	110	35.39	104	-2.6	55	-10.5	0	0	968.1	NA	0.0000	HZ	8000	9380	0	0	0
2019/04/06 10:37:00	BASE	25.67	109	35.39	104	-2.6	55	-10.5	0	0	968.1	NA	0.0000	HZ	8000	9480	0	0	0
2019/04/06 10:38:00	BASE	27.64	108	35.39	104	-2.6	55	-10.5	0	0	967.9	NA	0.0000	HZ	8000	9480	0	0	0
2019/04/06 10:39:00	BASE	28.79	106	35.39	104	-2.7	55	-10.5	0	0	968.0	NA	0.0000	HZ	8000	9420	0	0	0
2019/04/06 10:40:00	BASE	27.16	108	35.39	104	-2.7	55	-10.5	0	0	968.0	NA	0.0000	HZ	8000	9580	0	0	0
2019/04/06 10:41:00	BASE	29.34	109	35.45	104	-2.7	55	-10.5	0	0	967.8	NA	0.0000	HZ	8000	9580	0	0	0
2019/04/06 10:42:00	BASE	30.90	111	35.45	104	-2.7	55	-10.5	0	0	967.8	NA	0.0000	HZ	8000	9420	0	0	0
2019/04/06 10:43:00	BASE	27.74	112	35.45	104	-2.7	54	-10.7	0	0	968.0	NA	0.0000	HZ	8000	9290	0	0	0
2019/04/06 10:44:00	BASE	25.34	112	35.45	104	-2.7	54	-10.7	0	0	968.0	NA	0.0000	HZ	8000	9320	0	0	0
2019/04/06 10:45:00	BASE	26.53	112	35.45	104	-2.6	54	-10.7	0	0	968.0	NA	0.0000	HZ	8000	9510	0	0	0
2019/04/06 10:46:00	BASE	29.20	112	35.55	108	-2.6	53	-10.8	0	0	967.9	NA	0.0000	HZ	8000	9580	0	0	0
2019/04/06 10:47:00	BASE	29.89	112	35.55	108	-2.6	53	-10.8	0	0	967.8	NA	0.0000	HZ	8000	9650	0	0	0
2019/04/06 10:48:00	BASE	28.43	112	35.55	108	-2.7	54	-10.8	0	0	967.9	NA	0.0000	HZ	8000	9580	0	0	0
2019/04/06 10:49:00	BASE	28.30	115	35.55	108	-2.7	54	-10.8	0	0	967.9	NA	0.0000	HZ	8000	9580	0	0	0
2019/04/06 10:50:00	BASE	29.58	119	35.55	108	-2.7	53	-10.9	0	0	967.9	NA	0.0000	HZ	8000	9610	0	0	0
2019/04/06 10:51:00	BASE	28.73	120	35.55	108	-2.7	53	-10.9	0	0	967.9	NA	0.0000	HZ	8000	9680	0	0	0
2019/04/06 10:52:00	BASE	26.07	120	35.55	108	-2.7	53	-11.0	0	0	968.1	NA	0.0000	HZ	8000	9650	0	0	0
2019/04/06 10:53:00	BASE	26.74	114	35.55	108	-2.7	53	-11.0	0	0	968.0	NA	0.0000	HZ	8000	9650	0	0	0
2019/04/06 10:54:00	BASE	27.26	110	35.55	108	-2.7	53	-11.0	0	0	968.1	NA	0.0000	HZ	8000	9710	0	0	0
2019/04/06 10:55:00	BASE	27.47	112	35.55	108	-2.7	53	-11.0	0	0	968.0	NA	0.0000	HZ	8000	9680	0	0	0
2019/04/06 10:56:00	BASE	27.97	109	34.26	117	-2.7	53	-11.0	0	0	968.1	NA	0.0000	HZ	8000	9780	0	0	0
2019/04/06 10:57:00	BASE	27.36	109	34.11	118	-2.7	53	-11.0	0	0	968.2	NA	0.0000	HZ	8000	9880	0	0	0
2019/04/06 10:58:00	BASE	28.76	113	34.11	118	-2.6	52	-11.1	0	0	968.1	NA	0.0000	HZ	7000	9740	0	0	0
2019/04/06 10:59:00	BASE	28.43	116	33.39	115	-2.6	52	-11.2	0	0	968.2	NA	0.0000	HZ	7000	9910	0	0	0
2019/04/06 11:00:00	BASE	27.74	112	33.39	115	-2.6	51	-11.3	0	0	968.2	NA	0.0000	HZ	7000	9710	0	0	0
2019/04/06 11:01:00	BASE	27.92	112	34.26	109	-2.5	51	-11.3	0	0	968.3	NA	0.0000	HZ	7000	9580	0	0	0
2019/04/06 11:02:00	BASE	28.79	117	34.26	109	-2.5	51	-11.3	0	0	968.2	NA	0.0000	HZ	8000	9610	0	0	0
2019/04/06 11:03:00	BASE	30.85	111	34.26	107	-2.5	51	-11.3	0	0	968.1	NA	0.0000	HZ	8000	9610	0	0	0
2019/04/06 11:04:00	BASE	29.87	106	34.26	107	-2.5	51	-11.3	0	0	968.2	NA	0.0000	HZ	7000	9610	0	0	0
2019/04/06 11:05:00	BASE	29.06	109	38.27	111	-2.6	51	-11.3	0	0	968.1	NA	0.0000	HZ	7000	9710	0	0	0
2019/04/06 11:06:00	BASE	30.00	112	38.27	111	-2.6	51	-11.3	0	0	968.1	NA	0.0000	HZ	8000	9580	0	0	0
2019/04/06 11:07:00	BASE	29.84	109	38.27	111	-2.6	52	-11.2	0	0	968.2	NA	0.0000	HZ	8000	9550	0	0	0
2019/04/06 11:08:00	BASE	30.08	106	38.27	111	-2.7	52	-11.2	0	0	968.1	NA	0.0000	HZ	7000	9420	0	0	0
2019/04/06 11:09:00	BASE	27.22	111	38.27	111	-2.7	52	-11.2	0	0	968.3	NA	0.0000	HZ	7000	9380	0	0	0
2019/04/06 11:10:00	BASE	23.95	115	38.27	111	-2.7	52	-11.3	0	0	968.4	NA	0.0000	HZ	7000	9380	0	0	0
2019/04/06 11:11:00	BASE	25.16	116	38.27	111	-2.7	52	-11.3	1	0	968.3	NA	0.0000	HZ	7000	9550	0	0	0
2019/04/06 11:12:00	BASE	27.31	115	38.27	111	-2.7	51	-11.3	1	0	968.3	NA	0.0000	HZ	7000	9610	0	0	0
2019/04/06 11:13:00	BASE	28.77	114	38.27	111	-2.6	51	-11.4	1	0	968.3	NA	0.0000	HZ	7000	9480	0	0	0
2019/04/06 11:14:00	BASE	28.48	112	38.27	111	-2.6	51	-11.4	1	0	968.4	NA	0.0000	HZ	7000	9480	0	0	0
2019/04/06 11:15:00	BASE	27.16	115	34.16	112	-2.6	51	-11.3	1	0	968.4	NA	0.0000	HZ	7000	9510	0	0	0
2019/04/06 11:16:00	BASE	26.52	115	34.16	112	-2.6	51	-11.3	1	0	968.4	NA	0.0000	HZ	7000	9420	0	0	0
2019/04/06 11:17:00	BASE	25.03	113	34.16	112	-2.6	51	-11.3	1	0	968.5	NA	0.0000	HZ	7000	9550	0	0	0
2019/04/06 11:18:00	BASE	28.72	110	38.07	111	-2.6	51	-11.3	1	0	968.2	NA	0.0000	HZ	7000	9580	0	0	0
2019/04/06 11:19:00	BASE	29.89	108	38.07	111	-2.6	51	-11.3	1	0	968.5	NA	0.0000	HZ	7000	9550	0	0	0
2019/04/06 11:20:00	BASE	27.32	110	38.07	111	-2.6	51	-11.3	1	0	968.4	NA	0.0000	HZ	7000	9420	0	0	0
2019/04/06 11:21:00	BASE	26.77	110	38.07	111	-2.6	51	-11.4	1	0	968.5	NA	0.0000	HZ	7000	9420	0	0	0
2019/04/06 11:22:00	BASE	23.82	108	38.07	111	-2.6	51	-11.4	1	0	968.5	NA	0.0000	HZ	5000	9380	0	0	0
2019/04/06 11:23:00	BASE	24.33	106	38.07	111	-2.6	51	-11.4	1	0	968.4	NA	0.0000	HZ	5000	9350	0	0	0
2019/04/06 11:24:00	BASE	27.07	110	38.07	111	-2.5	51	-11.4	1	0	968.4	NA	0.0000	HZ	5000	9480	0	0	0
2019/04/06 11:25:00	BASE	29.40	111	38.07	111	-2.5	51	-11.3	1	0	968.3	NA	0.0000	HZ	5000	9380	0	0	0
2019/04/06 11:26:00	BASE	29.62	108	38.07	111	-2.5	51	-11.4	1	0	968.3	NA	0.0000	HZ	5000	9480	0	0	0
2019/04/06 11:27:00	BASE	30.23	108	38.07	111	-2.6	51	-11.4	2	0	968.3	NA	0.0000	HZ	5000	9420	0	0	0
2019/04/06 11:28:00	BASE	31.01	108	37.50	112	-2.6	51	-11.4	2	0	968.3	NA	0.0000	HZ	5000	9380	0	0	0
2019/04/06 11:29:00	BASE	29.81	109	37.50	112	-2.6	50	-11.5	2	0	968.3	NA	0.0000	HZ	5000	9420	0	0	0
2019/04/06 11:30:00	BASE	28.85	109	37.50	112	-2.6	50	-11.5	2	0	968.4	NA	0.0000	HZ	5000	9290	0	0	0
2019/04/06 11:31:00	BASE	27.60	111	37.50	112	-2.6	51	-11.4	2	0	968.5	NA	0.0000	HZ	5000	9150	0	0	0
2019/04/06 11:32:00	BASE	27.75	110	37.50	112	-2.6	51	-11.4	2	0	968.5	NA	0.0000	HZ	5000	9190	0	0	0
2019/04/06 11:33:00	BASE	26.74	110	37.50	112	-2.6	51	-11.3	2	0	968.6	NA	0.0000	HZ	5000	9510	0	0	0
2019/04/06 11:34:00	BASE	25.01	113	37.50	112	-2.7	52	-11.3	2	0	968.6	NA	0.0000	HZ	5000	9380	0	0	0
2019/04/06 11:35:00	BASE	24.95	114	37.50	112	-2.7	51	-11.3	2	0	968.6	NA	0.0000	HZ	5000	9250	0	0	0
2019/04/06 11:36:00	BASE	26.97	111	37.50	112	-2.6	51	-11.4	2	0	968.5	NA	0.0000	HZ	5000	9480	0	0	0
2019/04/06 11:37:00	BASE	27.04	111	34.11	110	-2.6	50	-11.5	2	0	968.7	NA	0.0000	HZ	5000	9120	0	0	0
2019/04/06 11:38:00	BASE	26.50	113	33.70	105	-2.6	50	-11.6	3	0	968.6	NA	0.0000	HZ	5000	9320	0	0	0
2019/04/06 11:39:00	BASE	27.27	111	33.70	105	-2.6	50	-11.6	3	0	968.7	NA	0.0000	HZ	5000	9060	0	0	0
2019/04/06 11:40:00	BASE	27.21	109	33.70	105	-2.6	50	-11.6	3	0	968.7	NA	0.0000	HZ	5000	9190	0	0	0
2019/04/06 11:41:00	BASE	27.67	110	33.70	105	-2.6	50	-11.6	3	0	968.7	NA	0.0000	HZ	5000	9420	0	0	0
2019/04/06 11:42:00	BASE	25.44	114	33.70	105	-2.6	50	-11.6	3	0	968.7	NA	0.0000	HZ	5000	9420	0	0	0
2019/04/06 11:43:00	BASE	24.94	117	33.70	105	-2.7	50	-11.6	4	0	968.6	NA	0.0000	HZ	4800	9380	0	0	0
2019/04/06 11:44:00	BASE	24.40	120	33.70	105	-2.7	50	-11.6	4	0	968.6	NA	0.0000	HZ	4800	9350	0	0	0
2019/04/06 11:45:00	BASE	24.80	121	33.70	105	-2.7	51	-11.6	4	0	968.5	NA	0.0000	HZ	4900	9220	0	0	0
2019/04/06 11:46:00	BASE	26.52	120	31.12	102	-2.7	51	-11.5	4	0	968.5	NA	0.0000	HZ	4900	8530	0	0	0
2019/04/06 11:47:00	BASE	27.21	118	31.28	119	-2.7	51	-11.4	4	0	968.5	NA	0.0000	HZ	5000	9380	0	0	0
2019/04/06 11:48:00	BASE	28.45	114	31.28	119	-2.7	51	-11.4	5	0	968.5	NA	0.0000	HZ	4800	9510	0	0	0
2019/04/06 11:49:00	BASE	27.73	113	31.28	119	-2.7	51	-11.4	5	0	968.6	NA	0.0000	HZ	4800	9480	0	0	0
2019/04/06 11:50:00	BASE	25.52	115	31.28	119	-2.7	51	-11.4	5	0	968.7	NA	0.0000	HZ	4700	9650	0	0	0
2019/04/06 11:51:00	BASE	25.95	116	31.64	108	-2.8	51	-11.4	5	0	968.6	NA	0.0000	HZ	4500	9550	0	0	0
2019/04/06 11:52:00	BASE	28.01	113	31.64	108	-2.8	51	-11.4	5	0	968.6	NA	0.0000	HZ	4600	9580	0	0	0
2019/04/06 11:53:00	BASE	27.58	111	32.31	109	-2.7	51	-11.4	5	0	968.6	NA	0.0000	HZ	4900	9420	0	0	0
2019/04/06 11:54:00	BASE	27.35	109	32.31	109	-2.7	51	-11.5	5	0	968.6	NA	0.0000	HZ	5000	9380	0	0	0
2019/04/06 11:55:00	BASE	27.82	108	32.31	109	-2.7	50	-11.6	6	0	968.7	NA	0.0000	HZ	4600	8790	0	0	0
2019/04/06 11:56:00	BASE	29.37	113	32.87	115	-2.7	50	-11.8	6	0	968.6	NA	0.0000	HZ	4600	8660	9290	0	0
2019/04/06 11:57:00	BASE	29.26	117	34.47	120	-2.7	49	-11.9	6	0	968.6	NA	0.0000	HZ	4600	8560	0	0	0
2019/04/06 11:58:00	BASE	26.65	116	34.47	120	-2.7	49	-11.8	6	0	968.7	NA	0.0000	HZ	4600	8630	9480	0	0
2019/04/06 11:59:00	BASE	28.36	112	34.47	120	-2.7	50	-11.8	7	0	968.6	NA	0.0000	HZ	4600	8170	0	0	0
2019/04/06 12:00:00	BASE	29.97	114	34.47	120	-2.6	49	-11.8	7	0	968.6	NA	0.0000	HZ	4700	8660	9510	0	0
2019/04/06 12:01:00	BASE	28.40	114	34.47	120	-2.6	49	-11.8	7	0	968.6	NA	0.0000	HZ	4500	8400	9290	0	0
2019/04/06 12:02:00	BASE	29.37	110	34.57	112	-2.6	49	-11.8	7	0	968.6	NA	0.0000	HZ	4500	8990	0	0	0
2019/04/06 12:03:00	BASE	30.06	109	34.57	112	-2.6	49	-11.7	7	0	968.6	NA	0.0000	HZ	4400	9250	0	0	0
2019/04/06 12:04:00	BASE	29.45	110	34.57	112	-2.6	49	-11.8	7	0	968.5	NA	0.0000	HZ	4300	9510	0	0	0
2019/04/06 12:05:00	BASE	27.45	111	34.57	112	-2.6	49	-11.8	7	0	968.7	NA	0.0000	HZ	4400	8560	9580	0	0
2019/04/06 12:06:00	BASE	26.53	111	34.57	112	-2.6	49	-11.9	7	0	968.6	NA	0.0000	HZ	4400	8690	0	0	0
2019/04/06 12:07:00	BASE	28.17	109	34.57	112	-2.6	49	-11.9	8	0	968.6	NA	0.0000	HZ	4600	8070	9510	0	0
2019/04/06 12:08:00	BASE	27.10	110	34.57	112	-2.6	49	-11.9	8	0	968.6	NA	0.0000	HZ	4600	7970	0	0	0
2019/04/06 12:09:00	BASE	25.65	114	34.57	112	-2.5	49	-11.9	9	0	968.6	NA	0.0000	HZ	4400	7090	9510	10400	0
2019/04/06 12:10:00	BASE	25.62	114	34.57	112	-2.5	49	-11.8	9	0	968.6	NA	0.0000	HZ	4500	6590	0	0	0
2019/04/06 12:11:00	BASE	25.20	114	34.57	112	-2.5	49	-11.8	9	0	968.7	NA	0.0000	HZ	4400	8010	0	0	0
2019/04/06 12:12:00	BASE	26.44	114	33.95	110	-2.5	49	-11.8	9	0	968.6	NA	0.0000	HZ	4300	6530	8010	0	0
2019/04/06 12:13:00	BASE	29.34	111	33.34	113	-2.4	48	-11.9	9	0	968.6	NA	0.0000	HZ	4500	6630	0	0	0
2019/04/06 12:14:00	BASE	30.67	111	33.39	114	-2.4	48	-12.0	9	0	968.7	NA	0.0000	HZ	4500	6760	0	0	0
2019/04/06 12:15:00	BASE	30.04	114	34.11	116	-2.3	47	-12.1	9	0	968.8	NA	0.0000	HZ	4400	7780	0	0	0
2019/04/06 12:16:00	BASE	30.59	117	34.11	116	-2.3	47	-12.3	9	0	968.6	NA	0.0000	HZ	4400	7320	0	0	0
2019/04/06 12:17:00	BASE	29.43	115	34.11	116	-2.4	46	-12.4	9	0	968.8	NA	0.0000	HZ	4500	5320	0	0	0
2019/04/06 12:18:00	BASE	28.50	111	34.31	116	-2.4	46	-12.4	9	0	968.6	NA	0.0000	HZ	4500	7810	0	0	0
2019/04/06 12:19:00	BASE	30.04	111	34.62	112	-2.4	46	-12.4	9	0	968.6	NA	0.0000	HZ	4200	7450	0	0	0
2019/04/06 12:20:00	BASE	29.01	113	34.62	112	-2.4	46	-12.4	9	0	968.6	NA	0.0000	HZ	4200	6200	0	0	0
2019/04/06 12:21:00	BASE	26.65	115	34.62	112	-2.4	46	-12.4	9	0	968.7	NA	0.0000	HZ	4200	7580	8300	0	0
2019/04/06 12:22:00	BASE	26.64	116	34.62	112	-2.4	46	-12.3	9	0	968.6	NA	0.0000	HZ	4200	7050	8830	0	0
2019/04/06 12:23:00	BASE	28.88	117	34.62	112	-2.3	46	-12.4	10	0	968.5	NA	0.0000	HZ	4200	6690	8500	9350	0
2019/04/06 12:24:00	BASE	28.03	117	34.62	112	-2.3	45	-12.5	10	0	968.6	NA	0.0000	HZ	4200	7940	9650	0	0
2019/04/06 12:25:00	BASE	23.95	120	34.62	112	-2.2	45	-12.6	10	0	968.7	NA	0.0000	HZ	4100	6790	9810	0	0
2019/04/06 12:26:00	BASE	22.84	118	34.62	112	-2.2	45	-12.5	10	0	968.7	NA	0.0000	HZ	4300	7610	9420	0	0
2019/04/06 12:27:00	BASE	23.35	111	34.62	112	-2.2	46	-12.4	10	0	968.6	NA	0.0000	HZ	4400	9780	0	0	0
2019/04/06 12:28:00	BASE	24.76	106	34.62	112	-2.2	46	-12.3	10	0	968.6	NA	0.0000	HZ	4400	9650	0	0	0
2019/04/06 12:29:00	BASE	27.07	107	32.82	127	-2.3	47	-12.1	10	0	968.7	NA	0.0000	HZ	4200	9150	0	0	0
2019/04/06 12:30:00	BASE	29.60	110	35.50	115	-2.3	48	-12.0	11	0	968.5	NA	0.0000	HZ	4200	7250	0	0	0
2019/04/06 12:31:00	BASE	29.42	112	35.50	115	-2.3	47	-12.0	11	0	968.6	NA	0.0000	HZ	4200	5640	6590	0	0
2019/04/06 12:32:00	BASE	27.31	112	35.50	115	-2.3	47	-12.2	11	0	968.7	NA	0.0000	HZ	4200	5840	0	0	0
2019/04/06 12:33:00	BASE	29.31	112	35.70	118	-2.3	47	-12.2	11	0	968.7	NA	0.0000	HZ	4200	6040	9740	0	0
2019/04/06 12:34:00	BASE	30.34	112	35.70	118	-2.3	46	-12.2	11	0	968.8	NA	0.0000	HZ	4100	7840	0	0	0
2019/04/06 12:35:00	BASE	29.22	110	35.70	118	-2.3	47	-12.2	12	0	968.9	NA	0.0000	HZ	4100	6230	9220	0	0
2019/04/06 12:36:00	BASE	28.69	111	35.70	118	-2.3	47	-12.1	12	0	969.0	NA	0.0000	HZ	4000	6690	7780	0	0
2019/04/06 12:37:00	BASE	27.86	112	35.70	118	-2.4	48	-12.1	12	0	968.9	NA	0.0000	HZ	3900	6590	0	0	0
2019/04/06 12:38:00	BASE	26.31	113	35.70	118	-2.5	48	-12.1	12	0	969.0	NA	0.0000	HZ	4200	6960	0	0	0
2019/04/06 12:39:00	BASE	25.80	117	35.70	118	-2.5	48	-12.0	12	0	968.9	NA	0.0000	HZ	4200	5380	0	0	0
2019/04/06 12:40:00	BASE	24.80	119	35.70	118	-2.5	48	-12.0	12	0	969.0	NA	0.0000	HZ	4100	5220	0	0	0
2019/04/06 12:41:00	BASE	24.76	115	35.70	118	-2.4	48	-12.0	12	0	968.9	NA	0.0000	HZ	4200	8460	0	0	0
2019/04/06 12:42:00	BASE	25.43	114	35.70	118	-2.4	48	-12.0	12	0	968.9	NA	0.0000	HZ	4100	4760	6890	0	0
2019/04/06 12:43:00	BASE	26.05	117	33.34	110	-2.4	48	-12.0	12	0	968.8	NA	0.0000	HZ	4000	7840	0	0	0
2019/04/06 12:44:00	BASE	26.83	116	33.34	110	-2.4	48	-11.9	12	0	968.8	NA	0.0000	HZ	3900	7740	0	0	0
2019/04/06 12:45:00	BASE	26.37	115	31.38	109	-2.4	48	-11.9	12	0	968.7	NA	0.0000	HZ	4000	6330	0	0	0
2019/04/06 12:46:00	BASE	27.18	112	30.87	123	-2.4	48	-11.8	12	0	968.7	NA	0.0000	HZ	4000	7740	0	0	0
2019/04/06 12:47:05	BASE	28.19	109	30.87	123	-2.4	49	-11.7	12	0	968.6	NA	0.0000	HZ	4100	4040	0	0	0
2019/04/06 12:48:00	BASE	29.96	112	33.23	110	-2.4	49	-11.8	12	0	968.5	NA	0.0000	HZ	4000	7420	0	0	0
2019/04/06 12:49:00	BASE	30.86	113	33.23	110	-2.4	49	-11.8	12	0	968.6	NA	0.0000	HZ	3900	7220	0	0	0
2019/04/06 12:50:00	BASE	30.00	113	33.23	110	-2.4	48	-11.8	12	0	968.6	NA	0.0000	HZ	4000	6960	0	0	0
2019/04/06 12:51:00	BASE	29.38	114	33.23	110	-2.4	48	-11.9	12	0	968.6	NA	0.0000	HZ	4000	7090	0	0	0
2019/04/06 12:52:00	BASE	29.08	111	33.23	110	-2.4	48	-12.0	12	0	968.6	NA	0.0000	HZ	4000	7120	0	0	0
2019/04/06 12:53:00	BASE	29.00	108	33.23	110	-2.4	48	-11.9	12	0	968.6	NA	0.0000	HZ	3900	6890	0	0	0
2019/04/06 12:54:00	BASE	29.02	111	33.23	110	-2.4	48	-11.9	13	0	968.6	NA	0.0000	HZ	3800	6920	0	0	0
2019/04/06 12:55:00	BASE	29.90	112	34.42	114	-2.5	48	-12.0	13	0	968.5	NA	0.0000	HZ	3900	6200	0	0	0
2019/04/06 12:56:00	BASE	30.17	112	35.55	111	-2.5	48	-11.9	14	0	968.6	NA	0.0000	HZ	3900	6820	0	0	0
2019/04/06 12:57:00	BASE	30.15	112	35.55	111	-2.5	48	-11.9	14	0	968.5	NA	0.0000	HZ	3800	7420	0	0	0
2019/04/06 12:58:00	BASE	28.92	113	35.55	111	-2.5	48	-12.0	14	0	968.5	NA	0.0000	HZ	3800	7320	0	0	0
2019/04/06 12:59:00	BASE	28.09	118	35.55	111	-2.5	48	-12.1	15	0	968.5	NA	0.0000	HZ	3800	7120	0	0	0
2019/04/06 13:00:00	BASE	27.08	117	35.55	111	-2.4	48	-12.0	15	0	968.6	NA	0.0000	HZ	3900	7050	0	0	0
2019/04/06 13:01:00	BASE	27.76	113	35.55	111	-2.3	48	-11.9	15	0	968.6	NA	0.0000	HZ	3900	4720	0	0	0
2019/04/06 13:02:00	BASE	29.12	112	35.55	111	-2.3	48	-11.9	16	0	968.7	NA	0.0000	HZ	3800	6990	0	0	0
2019/04/06 13:03:00	BASE	29.08	112	35.55	111	-2.3	48	-11.8	16	0	968.6	NA	0.0000	HZ	3800	7190	0	0	0
2019/04/06 13:04:00	BASE	28.99	115	35.55	111	-2.3	48	-11.8	16	0	968.7	NA	0.0000	HZ	3700	6890	0	0	0
2019/04/06 13:05:00	BASE	27.89	115	35.55	111	-2.3	48	-11.9	16	0	968.6	NA	0.0000	HZ	3700	4660	0	0	0
2019/04/06 13:06:00	BASE	26.73	114	33.03	116	-2.4	48	-11.9	16	0	968.8	NA	0.0000	HZ	3800	6760	0	0	0
2019/04/06 13:07:00	BASE	25.67	115	33.03	116	-2.5	48	-11.9	17	0	968.8	NA	0.0000	HZ	3800	4820	0	0	0
2019/04/06 13:08:00	BASE	25.51	116	33.03	116	-2.5	48	-11.9	17	0	968.8	NA	0.0000	HZ	3800	7120	0	0	0
2019/04/06 13:09:00	BASE	26.47	115	33.03	116	-2.5	49	-11.9	17	0	968.7	NA	0.0000	HZ	3700	7450	0	0	0
2019/04/06 13:10:00	BASE	26.96	114	33.03	116	-2.5	49	-11.8	17	0	968.8	NA	0.0000	HZ	3700	7150	0	0	0
2019/04/06 13:11:00	BASE	26.86	116	33.03	116	-2.4	49	-11.8	17	0	968.8	NA	0.0000	HZ	3700	6920	0	0	0
2019/04/06 13:12:00	BASE	26.76	120	33.03	116	-2.3	48	-11.8	18	0	968.7	NA	0.0000	HZ	3600	7350	0	0	0
2019/04/06 13:13:00	BASE	26.91	124	32.67	116	-2.3	48	-11.9	18	0	968.6	NA	0.0000	HZ	4000	7280	0	0	0
2019/04/06 13:14:00	BASE	28.08	126	32.67	116	-2.1	47	-12.1	19	0	968.6	NA	0.0000	HZ	4600	6860	0	0	0
2019/04/06 13:15:00	BASE	28.71	129	32.67	116	-2.0	46	-12.1	19	0	968.6	NA	0.0000	HZ	5000	6960	0	0	0
2019/04/06 13:16:00	BASE	28.69	126	32.67	116	-1.9	45	-12.2	19	0	968.8	NA	0.0000	HZ	6000	7420	0	0	0
2019/04/06 13:17:00	BASE	26.01	119	32.67	116	-1.8	45	-12.3	20	0	969.0	NA	0.0000	HZ	6000	7480	0	0	0
2019/04/06 13:18:00	BASE	25.30	118	32.67	116	-1.8	45	-12.3	20	0	968.9	NA	0.0000	HZ	6000	7450	0	0	0
2019/04/06 13:19:00	BASE	26.44	120	32.67	116	-1.8	45	-12.2	21	0	969.0	NA	0.0000	HZ	6000	7420	0	0	0
2019/04/06 13:20:00	BASE	26.32	120	32.67	116	-1.9	45	-12.2	21	0	968.9	NA	0.0000	HZ	6000	7740	0	0	0
2019/04/06 13:21:00	BASE	26.15	120	32.67	116	-1.9	45	-12.2	22	0	968.9	NA	0.0000	HZ	6000	7680	0	0	0
2019/04/06 13:22:00	BASE	27.63	120	32.87	117	-1.9	45	-12.3	22	0	968.9	NA	0.0000	HZ	5000	7320	0	0	0
2019/04/06 13:23:00	BASE	28.69	117	34.00	117	-1.9	44	-12.4	22	0	969.0	NA	0.0000	HZ	5000	8040	0	0	0
2019/04/06 13:24:00	BASE	27.15	114	34.00	117	-1.9	45	-12.3	22	0	969.1	NA	0.0000	HZ	6000	7970	0	0	0
2019/04/06 13:25:00	BASE	27.19	113	34.00	117	-1.9	45	-12.2	21	0	969.0	NA	0.0000	HZ	6000	7910	0	0	0
2019/04/06 13:26:00	BASE	28.42	115	34.00	117	-2.0	46	-12.1	21	0	968.9	NA	0.0000	HZ	5000	8040	0	0	0
2019/04/06 13:27:00	BASE	27.58	118	34.00	117	-2.1	47	-12.0	21	0	969.0	NA	0.0000	HZ	5000	8100	0	0	0
2019/04/06 13:28:00	BASE	25.71	117	34.00	117	-2.3	48	-11.8	22	0	969.1	NA	0.0000	HZ	6000	7970	0	0	0
2019/04/06 13:29:00	BASE	25.47	115	34.00	117	-2.3	48	-11.8	22	0	969.1	NA	0.0000	HZ	6000	8040	0	0	0
2019/04/06 13:30:00	BASE	26.15	116	34.00	117	-2.3	49	-11.7	22	0	969.1	NA	0.0000	HZ	5000	8240	0	0	0
2019/04/06 13:31:00	BASE	27.00	117	34.00	117	-2.3	49	-11.6	23	0	969.1	NA	0.0000	HZ	5000	8300	0	0	0
2019/04/06 13:32:00	BASE	26.76	121	34.00	117	-2.3	49	-11.6	24	0	969.0	NA	0.0000	HZ	5000	8500	0	0	0
2019/04/06 13:33:00	BASE	27.45	127	31.84	127	-2.3	49	-11.5	25	0	968.9	NA	0.0000	HZ	5000	8270	0	0	0
2019/04/06 13:34:00	BASE	29.67	129	32.56	130	-2.2	49	-11.6	26	0	968.7	NA	0.0000	HZ	5000	8200	0	0	0
2019/04/06 13:35:00	BASE	29.50	129	32.56	130	-2.1	48	-11.6	27	0	968.8	NA	0.0000	HZ	5000	7870	0	0	0
2019/04/06 13:36:00	BASE	28.17	130	32.56	130	-2.1	48	-11.7	27	0	968.8	NA	0.0000	HZ	5000	7810	0	0	0
2019/04/06 13:37:00	BASE	25.69	130	32.56	130	-2.0	48	-11.5	28	0	969.0	NA	0.0000	HZ	5000	8270	0	0	0
2019/04/06 13:38:00	BASE	25.51	128	32.56	130	-1.9	48	-11.4	28	0	968.9	NA	0.0000	HZ	5000	8270	0	0	0
2019/04/06 13:39:00	BASE	28.04	124	32.56	130	-1.9	48	-11.5	28	0	968.8	NA	0.0000	HZ	4900	8100	0	0	0
2019/04/06 13:40:00	BASE	29.25	125	32.87	129	-1.8	47	-11.6	28	0	968.8	NA	0.0000	HZ	4900	8300	0	0	0
2019/04/06 13:41:00	BASE	29.02	127	32.87	129	-1.8	47	-11.6	28	0	969.0	NA	0.0000	HZ	5000	8500	0	0	0
2019/04/06 13:42:00	BASE	29.59	124	33.44	124	-1.8	46	-11.9	28	0	968.9	NA	0.0000	HZ	5000	8460	0	0	0
2019/04/06 13:43:00	BASE	29.91	127	33.44	124	-1.7	45	-12.2	28	0	969.0	NA	0.0000	HZ	5000	8460	0	0	0
2019/04/06 13:44:00	BASE	30.15	131	34.57	138	-1.7	44	-12.3	29	0	968.9	NA	0.0000	HZ	5000	8430	0	0	0
2019/04/06 13:45:00	BASE	29.35	130	34.57	138	-1.8	45	-12.2	29	0	969.1	NA	0.0000	HZ	5000	8430	0	0	0
2019/04/06 13:46:00	BASE	29.79	130	38.12	129	-1.8	46	-12.0	29	0	968.9	NA	0.0000	HZ	4800	8400	0	0	0
2019/04/06 13:47:00	BASE	31.40	132	38.12	129	-1.8	47	-11.8	29	0	968.9	NA	0.0000	HZ	4700	8500	0	0	0
2019/04/06 13:48:00	BASE	30.40	132	38.12	129	-1.9	48	-11.5	30	0	969.0	NA	0.0000	HZ	4500	8530	0	0	0
2019/04/06 13:49:00	BASE	30.39	131	38.12	129	-1.9	49	-11.3	30	0	969.1	NA	0.0000	HZ	4400	8300	0	0	0
2019/04/06 13:50:00	BASE	28.64	131	38.12	129	-1.9	49	-11.1	30	0	969.3	NA	0.0000	HZ	4300	8140	0	0	0
2019/04/06 13:51:00	BASE	26.49	127	38.12	129	-1.9	50	-11.0	31	0	969.4	NA	0.0000	HZ	4200	6690	0	0	0
2019/04/06 13:52:00	BASE	26.29	123	38.12	129	-1.9	50	-11.1	31	0	969.4	NA	0.0000	HZ	4200	8730	0	0	0
2019/04/06 13:53:00	BASE	27.12	123	38.12	129	-1.9	49	-11.2	32	0	969.3	NA	0.0000	HZ	4200	8370	0	0	0
2019/04/06 13:54:00	BASE	27.00	126	38.12	129	-1.9	48	-11.4	32	0	969.4	NA	0.0000	HZ	4200	8430	0	0	0
2019/04/06 13:55:00	BASE	26.88	128	38.12	129	-1.9	48	-11.6	33	0	969.4	NA	0.0000	HZ	4100	8070	0	0	0
2019/04/06 13:56:00	BASE	26.50	130	34.11	129	-1.9	47	-11.8	33	0	969.4	NA	0.0000	HZ	4200	7910	0	0	0
2019/04/06 13:57:00	BASE	25.44	130	34.11	129	-1.9	47	-11.7	34	0	969.4	NA	0.0000	HZ	4100	7910	0	0	0
2019/04/06 13:58:00	BASE	26.42	127	32.46	132	-1.9	48	-11.5	34	0	969.3	NA	0.0000	HZ	4100	7940	0	0	0
2019/04/06 13:59:00	BASE	27.46	130	31.23	131	-1.9	48	-11.4	34	0	969.3	NA	0.0000	HZ	4100	7680	0	0	0
2019/04/06 14:00:00	BASE	28.24	131	31.74	128	-1.9	49	-11.3	35	0	969.2	NA	0.0000	HZ	4000	7550	0	0	0
2019/04/06 14:01:00	BASE	28.76	132	32.00	135	-1.9	49	-11.3	35	0	969.2	NA	0.0000	HZ	4000	7680	0	0	0
2019/04/06 14:02:00	BASE	29.04	132	32.00	135	-2.0	48	-11.5	35	0	969.1	NA	0.0000	HZ	3900	7220	0	0	0
2019/04/06 14:03:00	BASE	27.68	130	32.00	135	-2.0	48	-11.6	36	0	969.3	NA	0.0000	HZ	3900	7050	0	0	0
2019/04/06 14:04:00	BASE	25.96	130	32.00	135	-2.0	48	-11.5	36	0	969.3	NA	0.0000	HZ	3900	3770	0	0	0
2019/04/06 14:05:00	BASE	27.93	129	34.11	126	-2.0	48	-11.4	37	0	969.3	NA	0.0000	HZ	3800	7250	0	0	0
2019/04/06 14:06:00	BASE	31.23	129	34.62	133	-1.9	48	-11.4	37	0	969.0	NA	0.0000	HZ	3800	6920	0	0	0
2019/04/06 14:07:00	BASE	31.86	130	34.62	133	-1.9	48	-11.4	38	0	969.2	NA	0.0000	HZ	3900	6760	0	0	0
2019/04/06 14:08:00	BASE	29.88	130	34.62	133	-1.9	48	-11.4	39	0	969.2	NA	0.0000	HZ	3700	6460	0	0	0
2019/04/06 14:09:00	BASE	29.68	129	34.62	133	-1.9	48	-11.5	40	0	969.2	NA	0.0000	HZ	3500	6660	0	0	0
2019/04/06 14:10:00	BASE	30.49	131	37.25	135	-1.9	48	-11.5	41	0	969.1	NA	0.0000	HZ	3500	6500	0	0	0
2019/04/06 14:11:00	BASE	31.26	134	37.25	135	-1.9	48	-11.5	42	0	969.0	NA	0.0000	HZ	3400	6730	0	0	0
2019/04/06 14:12:00	BASE	31.75	134	37.25	135	-1.9	48	-11.4	43	0	969.0	NA	0.0000	HZ	3300	6560	0	0	0
2019/04/06 14:13:00	BASE	30.17	133	37.25	135	-1.9	49	-11.2	43	0	969.1	NA	0.0000	HZ	3300	6460	0	0	0
2019/04/06 14:14:00	BASE	31.15	131	38.63	126	-1.9	50	-11.0	43	0	969.0	NA	0.0000	HZ	3300	6460	0	0	0
2019/04/06 14:15:00	BASE	33.15	130	38.63	126	-1.8	49	-11.1	43	0	969.0	NA	0.0000	HZ	3200	6300	0	0	0
2019/04/06 14:16:00	BASE	33.54	131	38.63	126	-1.8	49	-11.2	43	0	969.1	NA	0.0000	HZ	3100	6400	0	0	0
2019/04/06 14:17:00	BASE	33.98	131	38.63	126	-1.8	48	-11.4	43	0	969.0	NA	0.0000	HZ	3000	6560	0	0	0
2019/04/06 14:18:00	BASE	34.02	132	38.63	126	-1.8	47	-11.6	44	0	969.0	NA	0.0000	HZ	2800	6890	0	0	0
2019/04/06 14:19:00	BASE	33.57	132	38.63	126	-1.8	46	-11.8	44	0	969.2	NA	0.0000	HZ	2700	7090	0	0	0
2019/04/06 14:20:00	BASE	31.47	131	38.63	126	-1.8	46	-11.8	45	0	969.3	NA	0.0000	HZ	2800	7150	0	0	0
2019/04/06 14:21:00	BASE	32.41	132	38.63	126	-1.9	47	-11.7	46	0	969.1	NA	0.0000	HZ	2700	7050	0	0	0
2019/04/06 14:22:00	BASE	34.60	131	38.63	126	-1.9	47	-11.7	48	0	969.1	NA	0.0000	HZ	2600	6990	0	0	0
2019/04/06 14:23:37	BASE	33.94	132	38.63	126	-1.9	47	-11.7	49	0	969.1	NA	0.0000	HZ	2600	22340	0	0	0
2019/04/06 14:24:00	BASE	34.38	132	38.33	128	-2.0	48	-11.5	50	0	M	NA	0.0000	HZ	2500	5020	0	0	0
2019/04/06 14:25:00	BASE	31.92	129	38.33	128	-2.0	48	-11.5	49	0	969.3	NA	0.0000	HZ	2500	4990	0	0	0
2019/04/06 14:26:00	BASE	29.68	129	38.07	130	-2.0	48	-11.5	49	0	969.4	NA	0.0000	HZ	2400	6860	0	0	0
2019/04/06 14:27:00	BASE	31.93	130	38.07	130	-2.0	49	-11.2	49	0	969.2	NA	0.0000	HZ	2400	5120	0	0	0
2019/04/06 14:28:00	BASE	31.67	133	38.07	130	-2.0	50	-11.2	49	0	969.4	NA	0.0000	HZ	2400	7020	0	0	0
2019/04/06 14:29:00	BASE	25.80	129	38.07	130	-2.0	50	-11.2	50	0	969.7	NA	0.0000	HZ	2300	6630	0	0	0
2019/04/06 14:30:00	BASE	24.79	121	38.07	130	-2.0	49	-11.2	52	0	969.6	NA	0.0000	HZ	2300	6590	0	0	0
2019/04/06 14:31:00	BASE	27.18	121	38.07	130	-2.0	49	-11.3	52	0	969.6	NA	0.0000	HZ	2300	4170	0	0	0
2019/04/06 14:32:00	BASE	27.71	126	38.07	130	-1.9	49	-11.3	53	0	969.5	NA	0.0000	HZ	2300	4200	0	0	0
2019/04/06 14:33:00	BASE	30.84	131	38.07	130	-1.9	48	-11.4	54	0	969.2	NA	0.0000	HZ	2300	6200	0	0	0
2019/04/06 14:34:00	BASE	30.94	132	36.89	134	-1.9	48	-11.4	54	0	969.4	NA	0.0000	HZ	2300	6070	0	0	0
2019/04/06 14:35:00	BASE	30.00	132	36.89	134	-1.9	48	-11.4	55	0	969.2	NA	0.0000	HZ	2200	6170	0	0	0
2019/04/06 14:36:00	BASE	29.44	130	36.89	134	-1.9	48	-11.4	56	0	969.6	NA	0.0000	HZ	2200	6270	0	0	0
2019/04/06 14:37:00	BASE	25.05	126	36.06	132	-1.9	48	-11.4	57	0	969.8	NA	0.0000	HZ	2200	6500	0	0	0
2019/04/06 14:38:00	BASE	26.16	126	36.06	132	-2.0	48	-11.4	59	0	969.5	NA	0.0000	HZ	2200	6100	0	0	0
2019/04/06 14:39:00	BASE	30.30	129	36.06	132	-2.0	48	-11.4	61	0	969.4	NA	0.0000	HZ	2200	6630	0	0	0
2019/04/06 14:40:00	BASE	30.23	131	36.06	132	-2.0	48	-11.4	62	0	969.5	NA	0.0000	HZ	2100	6760	0	0	0
2019/04/06 14:41:00	BASE	30.07	133	36.06	132	-2.0	49	-11.3	63	0	969.3	NA	0.0000	HZ	2100	7020	0	0	0
2019/04/06 14:42:00	BASE	30.22	132	36.06	132	-2.0	49	-11.2	64	0	969.5	NA	0.0000	HZ	2100	6920	0	0	0
2019/04/06 14:43:00	BASE	30.47	131	38.94	128	-2.0	50	-11.0	64	0	969.4	NA	0.0000	HZ	2100	6660	0	0	0
2019/04/06 14:44:00	BASE	32.60	132	38.94	128	-2.0	51	-10.9	65	0	969.3	NA	0.0000	HZ	2000	6400	0	0	0
2019/04/06 14:45:00	BASE	32.59	131	38.94	128	-2.0	50	-11.0	66	0	969.4	NA	0.0000	HZ	2000	6270	0	0	0
2019/04/06 14:46:00	BASE	31.72	132	38.94	128	-2.0	50	-11.1	66	0	969.4	NA	0.0000	HZ	2000	6100	0	0	0
2019/04/06 14:47:00	BASE	32.04	132	38.94	128	-2.0	49	-11.3	67	0	969.4	NA	0.0000	HZ	2000	8960	0	0	0
2019/04/06 14:48:00	BASE	31.90	131	38.94	128	-2.0	48	-11.6	66	0	969.3	NA	0.0000	HZ	1900	8460	0	0	0
2019/04/06 14:49:00	BASE	30.94	131	38.94	128	-2.0	47	-11.7	66	0	969.5	NA	0.0000	HZ	1900	8460	0	0	0
2019/04/06 14:50:00	BASE	30.53	132	38.94	128	-2.0	48	-11.6	65	0	969.5	NA	0.0000	HZ	1900	8630	0	0	0
2019/04/06 14:51:00	BASE	29.90	132	38.94	128	-2.0	48	-11.5	64	0	969.6	NA	0.0000	HZ	1900	8300	0	0	0
2019/04/06 14:52:00	BASE	30.19	131	38.94	128	-2.0	49	-11.2	64	0	969.4	NA	0.0000	HZ	1900	8140	0	0	0
2019/04/06 14:53:00	BASE	31.15	129	36.11	132	-2.0	50	-11.1	64	0	969.5	NA	0.0000	HZ	1900	8040	0	0	0
2019/04/06 14:54:00	BASE	30.38	127	36.11	132	-2.0	50	-11.1	64	0	969.6	NA	0.0000	HZ	1900	8070	0	0	0
2019/04/06 14:55:00	BASE	29.32	129	36.11	132	-2.0	50	-11.1	65	0	969.4	NA	0.0000	HZ	1900	20830	0	0	0
2019/04/06 14:56:00	BASE	29.51	134	36.11	132	-2.0	50	-11.1	65	0	969.4	NA	0.0000	HZ	1800	7680	0	0	0
2019/04/06 14:57:00	BASE	29.01	132	35.34	131	-2.0	50	-11.1	66	0	969.7	NA	0.0000	HZ	1800	7450	0	0	0
2019/04/06 14:58:00	BASE	27.14	129	35.34	131	-2.0	50	-11.0	67	0	969.8	NA	0.0000	HZ	1800	7250	0	0	0
2019/04/06 14:59:00	BASE	27.26	123	35.34	131	-1.9	50	-11.0	68	0	969.8	NA	0.0000	HZ	1800	6920	0	0	0
2019/04/06 15:00:00	BASE	29.77	121	35.34	131	-1.9	49	-11.2	69	0	969.6	NA	0.0000	HZ	1800	6500	0	0	0
2019/04/06 15:01:00	BASE	29.50	126	35.34	131	-1.9	48	-11.4	71	0	969.7	NA	0.0000	HZ	1800	6590	0	0	0
2019/04/06 15:02:00	BASE	30.13	130	35.39	127	-1.9	48	-11.5	72	0	969.4	NA	0.0000	HZ	1700	6270	0	0	0
2019/04/06 15:03:00	BASE	33.43	133	39.41	135	-1.9	48	-11.6	73	0	969.2	NA	0.0000	HZ	1700	6330	0	0	0
2019/04/06 15:04:00	BASE	33.47	131	39.41	135	-1.9	47	-11.7	74	0	969.3	NA	0.0000	HZ	1900	6660	0	0	0
2019/04/06 15:05:00	BASE	33.41	131	39.41	135	-1.9	47	-11.7	75	0	969.2	NA	0.0000	HZ	2000	6630	0	0	0
2019/04/06 15:06:00	BASE	34.66	132	39.72	139	-1.9	48	-11.5	76	0	969.2	NA	0.0000	HZ	2000	5480	0	0	0
2019/04/06 15:07:00	BASE	33.63	134	39.72	139	-1.9	48	-11.5	76	0	969.3	NA	0.0000	HZ	2000	5710	0	0	0
2019/04/06 15:08:00	BASE	30.58	132	39.72	139	-1.9	49	-11.3	77	0	969.6	NA	0.0000	HZ	1900	7640	0	0	0
2019/04/06 15:09:00	BASE	29.27	129	39.72	139	-1.9	50	-11.0	77	0	969.6	NA	0.0000	HZ	1900	8170	0	0	0
2019/04/06 15:10:00	BASE	29.78	128	39.72	139	-2.0	51	-10.9	78	0	969.6	NA	0.0000	HZ	1900	8240	0	0	0
2019/04/06 15:11:00	BASE	30.74	126	39.72	139	-2.0	51	-10.8	78	0	969.6	NA	0.0000	HZ	1900	8330	0	0	0
2019/04/06 15:12:00	BASE	29.85	126	39.72	139	-2.0	51	-10.8	78	0	969.7	NA	0.0000	HZ	1900	8270	0	0	0
2019/04/06 15:13:00	BASE	27.09	128	39.72	139	-2.0	51	-10.8	78	0	969.8	NA	0.0000	HZ	1900	8040	0	0	0
2019/04/06 15:14:00	BASE	26.42	129	39.72	139	-2.0	51	-10.9	77	0	969.8	NA	0.0000	HZ	1900	8010	0	0	0
2019/04/06 15:15:00	BASE	28.35	130	39.72	139	-2.0	51	-10.8	77	0	969.6	NA	0.0000	HZ	1900	7870	0	0	0
2019/04/06 15:16:00	BASE	29.66	129	35.39	124	-2.0	51	-10.7	77	0	969.6	NA	0.0000	HZ	1900	7740	0	0	0
2019/04/06 15:17:00	BASE	28.36	123	35.39	124	-2.0	52	-10.6	78	0	969.8	NA	0.0000	HZ	1800	21360	0	0	0
2019/04/06 15:18:00	BASE	28.03	118	35.39	124	-2.0	51	-10.8	78	0	969.7	NA	0.0000	HZ	1800	7510	0	0	0
2019/04/06 15:19:00	BASE	27.72	125	35.39	124	-2.0	51	-10.9	79	0	969.7	NA	0.0000	HZ	1800	7190	0	0	0
2019/04/06 15:20:00	BASE	29.24	132	36.47	140	-2.0	51	-10.9	80	0	969.3	NA	0.0000	HZ	1800	7050	0	0	0
2019/04/06 15:21:00	BASE	32.08	133	36.47	140	-2.0	50	-11.1	81	0	969.4	NA	0.0000	HZ	1800	6820	0	0	0
2019/04/06 15:22:00	BASE	30.15	130	36.47	140	-2.0	49	-11.2	82	0	969.6	NA	0.0000	HZ	1800	6660	0	0	0
2019/04/06 15:23:00	BASE	28.90	128	36.47	140	-2.0	50	-11.1	83	0	969.5	NA	0.0000	HZ	1800	6530	0	0	0
2019/04/06 15:24:00	BASE	31.13	127	36.47	140	-2.0	49	-11.2	83	0	969.3	NA	0.0000	HZ	1800	6460	0	0	0
2019/04/06 15:25:00	BASE	32.87	128	38.17	133	-1.9	48	-11.4	84	0	969.2	NA	0.0000	HZ	2000	6530	0	0	0
2019/04/06 15:26:00	BASE	31.55	128	38.17	133	-1.9	47	-11.7	84	0	969.4	NA	0.0000	HZ	2200	6630	0	0	0
2019/04/06 15:27:00	BASE	28.93	127	38.17	133	-1.9	47	-11.8	85	0	969.5	NA	0.0000	HZ	2200	6660	0	0	0
2019/04/06 15:28:00	BASE	28.51	124	38.17	133	-1.9	46	-11.9	85	0	969.5	NA	0.0000	HZ	2200	6460	0	0	0
2019/04/06 15:29:00	BASE	31.00	119	38.17	133	-1.9	46	-12.1	86	0	969.3	NA	0.0000	HZ	2200	6500	0	0	0
2019/04/06 15:30:00	BASE	32.03	125	38.17	133	-1.9	45	-12.2	86	0	969.3	NA	0.0000	HZ	2200	6560	0	0	0
2019/04/06 15:31:00	BASE	32.82	131	38.17	133	-1.9	46	-12.0	87	0	969.2	NA	0.0000	HZ	2100	6820	0	0	0
2019/04/06 15:32:00	BASE	31.82	125	38.17	133	-1.9	47	-11.8	88	0	969.5	NA	0.0000	HZ	2100	6530	0	0	0
2019/04/06 15:33:00	BASE	29.34	121	38.17	133	-1.9	47	-11.9	89	0	969.4	NA	0.0000	HZ	2100	7120	0	0	0
2019/04/06 15:34:00	BASE	29.00	120	38.17	133	-2.0	47	-11.8	91	0	969.5	NA	0.0000	HZ	2100	7420	0	0	0
2019/04/06 15:35:00	BASE	28.13	119	37.86	128	-2.0	48	-11.6	92	0	969.5	NA	0.0000	HZ	2400	7380	0	0	0
2019/04/06 15:36:00	BASE	29.15	123	37.86	128	-2.1	49	-11.5	93	0	969.3	NA	0.0000	HZ	2800	7280	0	0	0
2019/04/06 15:37:00	BASE	29.46	123	37.86	128	-2.1	49	-11.4	95	0	969.4	NA	0.0000	HZ	3000	8070	0	0	0
2019/04/06 15:38:00	BASE	30.29	120	37.86	128	-2.1	50	-11.1	96	0	969.2	NA	0.0000	HZ	3100	19850	0	0	0
2019/04/06 15:39:00	BASE	33.17	118	37.86	128	-2.1	50	-11.1	98	0	969.3	NA	0.0000	HZ	3000	7780	0	0	0
2019/04/06 15:40:00	BASE	31.48	119	37.86	128	-2.1	50	-11.1	100	0	969.5	NA	0.0000	HZ	3000	8010	0	0	0
2019/04/06 15:41:00	BASE	28.64	123	37.40	107	-2.1	49	-11.3	102	0	969.5	NA	0.0000	HZ	3000	8240	0	0	0
2019/04/06 15:42:00	BASE	28.78	125	37.40	107	-2.0	48	-11.6	103	0	969.4	NA	0.0000	HZ	3000	8240	0	0	0
2019/04/06 15:43:00	BASE	30.25	125	37.40	107	-2.0	47	-11.9	105	0	969.4	NA	0.0000	HZ	3000	8140	0	0	0
2019/04/06 15:44:00	BASE	28.79	125	37.40	107	-1.9	46	-12.1	106	0	969.6	NA	0.0000	HZ	3000	8660	0	0	0
2019/04/06 15:45:00	BASE	26.42	128	37.40	107	-1.9	46	-12.0	107	0	969.5	NA	0.0000	HZ	3100	8170	0	0	0
2019/04/06 15:46:00	BASE	28.89	129	37.40	107	-1.8	47	-11.8	108	0	969.4	NA	0.0000	HZ	3100	7870	0	0	0
2019/04/06 15:47:00	BASE	31.19	122	37.40	107	-1.8	47	-11.6	109	0	969.5	NA	0.0000	HZ	3000	8010	0	0	0
2019/04/06 15:48:00	BASE	30.52	118	37.40	107	-1.8	48	-11.4	110	0	969.5	NA	0.0000	HZ	3000	7020	0	0	0
2019/04/06 15:49:00	BASE	29.68	120	37.30	134	-1.9	48	-11.4	110	0	969.7	NA	0.0000	HZ	2900	6890	0	0	0
2019/04/06 15:50:00	BASE	27.98	121	37.30	134	-1.9	48	-11.4	111	0	969.8	NA	0.0000	HZ	2900	7550	0	0	0
2019/04/06 15:51:00	BASE	27.62	119	37.30	134	-2.0	47	-11.8	112	0	969.7	NA	0.0000	HZ	2900	7480	0	0	0
2019/04/06 15:52:00	BASE	27.64	120	37.30	134	-2.1	46	-12.0	113	0	969.7	NA	0.0000	HZ	3000	7610	0	0	0
2019/04/06 15:53:00	BASE	28.42	120	37.30	134	-2.1	46	-12.2	114	0	969.6	NA	0.0000	HZ	2900	7380	0	0	0
2019/04/06 15:54:00	BASE	29.94	118	37.30	134	-2.1	46	-12.2	114	0	969.7	NA	0.0000	HZ	2900	7550	0	0	0
2019/04/06 15:55:00	BASE	28.53	121	37.30	134	-2.2	46	-12.2	114	0	969.8	NA	0.0000	HZ	2900	7250	0	0	0
2019/04/06 15:56:00	BASE	27.28	122	34.16	114	-2.2	46	-12.1	114	0	969.8	NA	0.0000	HZ	2900	7450	0	0	0
2019/04/06 15:57:00	BASE	26.03	120	34.16	114	-2.2	47	-12.1	114	0	969.9	NA	0.0000	HZ	3000	7680	0	0	0
2019/04/06 15:58:00	BASE	25.42	117	33.70	123	-2.1	47	-12.0	114	0	969.9	NA	0.0000	HZ	3000	7740	0	0	0
2019/04/06 15:59:06	BASE	27.38	116	33.70	123	-2.1	47	-11.9	114	0	969.9	NA	0.0000	HZ	2900	8330	0	0	0
2019/04/06 16:00:00	BASE	28.97	114	33.70	123	-2.1	47	-11.9	114	0	969.9	NA	0.0000	HZ	2800	8170	0	0	0
2019/04/06 16:01:00	BASE	29.83	117	33.70	123	-2.1	47	-11.9	114	0	969.7	NA	0.0000	HZ	2900	21420	0	0	0
2019/04/06 16:02:00	BASE	29.24	122	33.70	123	-2.0	47	-12.0	114	0	969.9	NA	0.0000	HZ	2900	8460	0	0	0
2019/04/06 16:03:00	BASE	28.34	121	33.54	114	-2.0	46	-12.0	114	0	969.9	NA	0.0000	HZ	2800	8100	0	0	0
2019/04/06 16:04:00	BASE	27.35	121	33.54	114	-2.0	46	-12.1	114	0	969.9	NA	0.0000	HZ	2900	8460	0	0	0
2019/04/06 16:05:00	BASE	25.76	125	33.54	114	-2.0	46	-12.0	114	0	969.9	NA	0.0000	HZ	2900	7250	0	0	0
2019/04/06 16:06:00	BASE	27.68	120	33.54	114	-2.1	46	-12.0	114	0	969.8	NA	0.0000	HZ	2800	8100	0	0	0
2019/04/06 16:07:00	BASE	29.18	117	33.54	114	-2.1	46	-12.2	114	0	969.9	NA	0.0000	HZ	2800	7280	0	0	0
2019/04/06 16:08:00	BASE	30.07	122	36.06	128	-2.1	46	-12.3	114	0	969.8	NA	0.0000	HZ	2900	7450	0	0	0
2019/04/06 16:09:00	BASE	31.14	123	36.06	128	-2.0	45	-12.3	114	0	969.7	NA	0.0000	HZ	2900	7350	0	0	0
2019/04/06 16:10:00	BASE	29.69	121	36.06	128	-2.0	45	-12.5	114	0	969.9	NA	0.0000	HZ	2800	6860	0	0	0
2019/04/06 16:11:00	BASE	27.38	121	36.06	128	-2.0	44	-12.5	114	0	969.9	NA	0.0000	HZ	2800	6890	0	0	0
2019/04/06 16:12:00	BASE	26.04	123	36.06	128	-2.0	45	-12.3	114	0	970.0	NA	0.0000	HZ	2800	6890	0	0	0
2019/04/06 16:13:00	BASE	25.72	123	36.06	128	-2.0	46	-12.2	113	0	970.0	NA	0.0000	HZ	2900	6990	0	0	0
2019/04/06 16:14:00	BASE	28.53	129	36.06	128	-2.0	47	-11.9	113	0	969.7	NA	0.0000	HZ	2800	6890	0	0	0
2019/04/06 16:15:00	BASE	31.79	133	36.06	128	-2.0	47	-11.7	112	0	969.6	NA	0.0000	HZ	2800	6730	0	0	0
2019/04/06 16:16:00	BASE	30.56	127	36.06	128	-1.9	47	-11.7	112	0	969.9	NA	0.0000	HZ	2800	7090	0	0	0
2019/04/06 16:17:00	BASE	27.76	119	36.06	128	-1.9	47	-11.8	112	0	969.9	NA	0.0000	HZ	2800	7050	0	0	0
2019/04/06 16:18:00	BASE	26.48	116	34.67	133	-1.9	46	-11.9	112	0	970.0	NA	0.0000	HZ	2800	7780	0	0	0
2019/04/06 16:19:00	BASE	25.40	121	34.67	133	-1.9	46	-11.9	111	0	970.0	NA	0.0000	HZ	2800	6890	0	0	0
2019/04/06 16:20:00	BASE	25.25	123	34.67	133	-1.9	47	-11.6	111	0	969.9	NA	0.0000	HZ	2700	8070	0	0	0
2019/04/06 16:21:00	BASE	28.23	124	36.22	128	-1.9	48	-11.5	111	0	969.8	NA	0.0000	HZ	2700	6820	0	0	0
2019/04/06 16:22:00	BASE	30.56	127	36.22	128	-2.0	48	-11.4	111	0	969.8	NA	0.0000	HZ	2800	6820	20900	0	0
2019/04/06 16:23:00	BASE	30.98	127	36.22	128	-2.0	48	-11.4	111	0	969.8	NA	0.0000	HZ	2700	7810	0	0	0
2019/04/06 16:24:00	BASE	29.79	125	36.22	128	-2.0	48	-11.5	111	0	969.9	NA	0.0000	HZ	2900	6820	0	0	0
2019/04/06 16:25:00	BASE	28.62	121	36.22	128	-2.0	47	-11.8	111	0	969.9	NA	0.0000	HZ	3200	8070	0	0	0
2019/04/06 16:26:00	BASE	30.90	121	36.94	121	-2.0	47	-11.9	112	0	969.8	NA	0.0000	HZ	3200	7680	0	0	0
2019/04/06 16:27:00	BASE	32.80	119	36.94	121	-2.0	47	-11.9	112	0	969.9	NA	0.0000	HZ	3300	8040	0	0	0
2019/04/06 16:28:00	BASE	31.77	116	36.94	121	-2.0	46	-12.0	113	0	969.9	NA	0.0000	HZ	3300	7420	0	0	0
2019/04/06 16:29:00	BASE	32.33	115	36.94	121	-2.0	46	-12.1	113	0	969.8	NA	0.0000	HZ	3300	7550	0	0	0
2019/04/06 16:30:00	BASE	33.33	116	36.94	121	-2.0	45	-12.2	114	0	969.8	NA	0.0000	HZ	3200	7870	0	0	0
2019/04/06 16:31:00	BASE	30.92	118	36.94	121	-2.0	45	-12.4	114	0	970.0	NA	0.0000	HZ	3200	8270	0	0	0
2019/04/06 16:32:00	BASE	27.66	117	36.94	121	-2.0	45	-12.3	115	0	970.0	NA	0.0000	HZ	3200	7580	0	0	0
2019/04/06 16:33:00	BASE	26.08	118	36.94	121	-2.0	46	-12.1	115	0	970.1	NA	0.0000	HZ	3200	7970	0	0	0
2019/04/06 16:34:00	BASE	26.83	121	36.94	121	-2.1	47	-12.0	116	0	970.0	NA	0.0000	HZ	3200	7970	0	0	0
2019/04/06 16:35:00	BASE	29.14	121	36.94	121	-2.1	47	-12.0	116	0	969.9	NA	0.0000	HZ	3200	8400	0	0	0
2019/04/06 16:36:00	BASE	27.73	121	36.01	117	-2.1	47	-11.9	115	0	970.2	NA	0.0000	HZ	3200	7580	0	0	0
2019/04/06 16:37:00	BASE	24.51	124	36.01	117	-2.2	47	-11.9	115	0	970.2	NA	0.0000	HZ	3200	7970	0	0	0
2019/04/06 16:38:00	BASE	24.50	123	36.01	117	-2.2	47	-11.9	114	0	970.2	NA	0.0000	HZ	3200	8100	0	0	0
2019/04/06 16:39:00	BASE	27.48	119	36.01	117	-2.2	47	-11.9	113	0	970.0	NA	0.0000	HZ	3600	7050	0	0	0
2019/04/06 16:40:00	BASE	27.67	120	36.01	117	-2.1	47	-11.9	113	0	970.1	NA	0.0000	HZ	4300	7250	0	0	0
2019/04/06 16:41:01	BASE	24.94	123	36.01	117	-2.1	47	-11.9	112	0	970.2	NA	0.0000	HZ	4700	8370	0	0	0
2019/04/06 16:42:01	BASE	24.83	127	36.01	117	-2.1	47	-11.8	111	0	970.1	NA	0.0000	HZ	4600	8630	0	0	0
2019/04/06 16:43:01	BASE	26.20	127	36.01	117	-2.0	47	-11.8	110	0	970.1	NA	0.0000	HZ	4400	8860	0	0	0
2019/04/06 16:44:01	BASE	27.98	124	36.01	117	-2.0	48	-11.7	109	0	970.0	NA	0.0000	HZ	4400	8690	0	0	0
2019/04/06 16:45:01	BASE	29.40	125	32.82	124	-2.0	48	-11.6	108	0	970.0	NA	0.0000	HZ	4400	8730	0	0	0
2019/04/06 16:46:01	BASE	29.58	125	32.82	124	-2.0	48	-11.7	107	0	970.0	NA	0.0000	HZ	4400	8660	0	0	0
2019/04/06 16:47:01	BASE	29.66	125	32.87	119	-2.0	47	-11.8	106	0	970.1	NA	0.0000	HZ	4400	9550	0	0	0
2019/04/06 16:48:01	BASE	29.26	124	33.49	122	-2.0	46	-12.0	105	0	970.1	NA	0.0000	HZ	4500	9190	0	0	0
2019/04/06 16:49:01	BASE	28.42	123	33.49	122	-2.0	46	-12.1	104	0	970.2	NA	0.0000	HZ	4700	21520	0	0	0
2019/04/06 16:50:01	BASE	27.34	125	33.49	122	-2.0	45	-12.3	103	0	970.2	NA	0.0000	HZ	4500	9350	0	0	0
2019/04/06 16:51:01	BASE	28.49	128	33.49	122	-2.0	45	-12.3	102	0	970.0	NA	0.0000	HZ	4400	9550	0	0	0
2019/04/06 16:52:01	BASE	28.26	130	33.49	122	-2.0	45	-12.4	102	0	970.3	NA	0.0000	HZ	4300	9320	0	0	0
2019/04/06 16:53:01	BASE	26.67	130	33.49	122	-2.0	45	-12.3	101	0	970.2	NA	0.0000	HZ	4400	8370	0	0	0
2019/04/06 16:54:01	BASE	26.36	129	33.49	122	-2.0	45	-12.3	100	0	970.2	NA	0.0000	HZ	4400	9060	0	0	0
2019/04/06 16:55:01	BASE	23.93	132	33.49	122	-1.9	45	-12.2	100	0	970.3	NA	0.0000	HZ	4400	9220	0	0	0
2019/04/06 16:56:00	BASE	24.98	133	33.49	122	-1.9	46	-12.0	100	0	970.2	NA	0.0000	HZ	4400	9190	0	0	0
2019/04/06 16:57:00	BASE	25.88	133	33.49	122	-1.9	46	-11.9	99	0	970.3	NA	0.0000	HZ	4300	9020	0	0	0
2019/04/06 16:58:00	BASE	24.58	132	32.51	130	-1.9	47	-11.8	99	0	970.3	NA	0.0000	HZ	4200	8990	0	0	0
2019/04/06 16:59:00	BASE	26.39	131	32.51	130	-1.9	47	-11.7	98	0	970.2	NA	0.0000	HZ	4200	9380	0	0	0
2019/04/06 17:00:00	BASE	26.48	131	32.51	130	-1.8	47	-11.8	98	0	970.4	NA	0.0000	HZ	4500	9650	0	0	0
2019/04/06 17:01:00	BASE	25.84	129	30.15	131	-1.8	46	-11.9	97	0	970.3	NA	0.0000	HZ	4500	9680	0	0	0
2019/04/06 17:02:00	BASE	26.17	126	30.15	131	-1.8	46	-11.8	96	0	970.4	NA	0.0000	HZ	4400	9680	0	0	0
2019/04/06 17:03:00	BASE	25.08	126	30.15	131	-1.8	46	-11.9	96	0	970.4	NA	0.0000	HZ	4400	9610	0	0	0
2019/04/06 17:04:00	BASE	26.35	127	34.11	129	-1.8	46	-11.8	96	0	970.3	NA	0.0000	HZ	4500	9090	0	0	0
2019/04/06 17:05:00	BASE	30.06	127	34.11	129	-1.8	47	-11.8	95	0	970.2	NA	0.0000	HZ	4700	0	0	0	0
2019/04/06 17:06:00	BASE	31.90	129	34.11	129	-1.9	46	-11.9	95	0	970.2	NA	0.0000	HZ	4600	8600	0	0	0
2019/04/06 17:07:00	BASE	30.21	131	34.11	129	-1.9	46	-12.0	95	0	970.3	NA	0.0000	HZ	4400	9060	0	0	0
2019/04/06 17:08:00	BASE	28.15	129	34.11	129	-1.9	46	-12.0	95	0	970.4	NA	0.0000	HZ	4400	9350	0	0	0
2019/04/06 17:09:00	BASE	28.81	127	34.11	129	-1.9	45	-12.2	95	0	970.3	NA	0.0000	HZ	4400	0	0	0	0
2019/04/06 17:10:00	BASE	27.98	128	34.11	129	-1.9	45	-12.2	95	0	970.5	NA	0.0000	HZ	4500	9910	0	0	0
2019/04/06 17:11:00	BASE	25.00	128	34.11	129	-1.9	46	-11.9	95	0	970.6	NA	0.0000	HZ	4400	9250	0	0	0
2019/04/06 17:12:00	BASE	25.88	125	34.11	129	-1.9	47	-11.8	95	0	970.5	NA	0.0000	HZ	4200	0	0	0	0
2019/04/06 17:13:00	BASE	25.67	123	34.11	129	-2.0	47	-11.8	95	0	970.6	NA	0.0000	HZ	4300	0	0	0	0
2019/04/06 17:14:00	BASE	22.90	125	33.80	127	-2.0	47	-11.8	96	0	970.7	NA	0.0000	HZ	4300	9970	0	0	0
2019/04/06 17:15:00	BASE	25.08	129	33.80	127	-2.0	48	-11.6	96	0	970.5	NA	0.0000	HZ	4300	10990	0	0	0
2019/04/06 17:16:00	BASE	29.21	130	34.26	130	-2.0	47	-11.9	96	0	970.5	NA	0.0000	HZ	4300	0	0	0	0
2019/04/06 17:17:00	BASE	27.61	127	34.26	130	-1.9	46	-12.0	96	0	970.7	NA	0.0000	HZ	4200	0	0	0	0
2019/04/06 17:18:00	BASE	25.93	129	34.26	130	-1.9	47	-11.8	96	0	970.5	NA	0.0000	HZ	4100	10040	0	0	0
2019/04/06 17:19:00	BASE	27.45	130	34.26	130	-1.8	47	-11.7	96	0	970.5	NA	0.0000	HZ	4200	0	0	0	0
2019/04/06 17:20:00	BASE	27.93	129	34.26	130	-1.8	47	-11.8	96	0	970.5	NA	0.0000	HZ	4100	0	0	0	0
2019/04/06 17:21:00	BASE	25.57	127	34.26	130	-1.8	47	-11.7	96	0	970.7	NA	0.0000	HZ	4200	8990	0	0	0
2019/04/06 17:22:00	BASE	25.42	128	34.26	130	-1.9	47	-11.6	96	0	970.5	NA	0.0000	HZ	4200	0	0	0	0
2019/04/06 17:23:00	BASE	28.68	129	34.26	130	-1.9	47	-11.7	96	0	970.5	NA	0.0000	HZ	4100	10270	0	0	0
2019/04/06 17:24:00	BASE	28.40	132	34.26	130	-1.9	47	-11.8	96	0	970.4	NA	0.0000	HZ	4100	0	0	0	0
2019/04/06 17:25:00	BASE	26.87	134	34.26	130	-1.8	47	-11.7	96	0	970.5	NA	0.0000	HZ	4100	20340	0	0	0
2019/04/06 17:26:00	BASE	27.49	129	33.54	117	-1.8	47	-11.7	96	0	970.3	NA	0.0000	HZ	4100	0	0	0	0
2019/04/06 17:27:00	BASE	26.99	123	33.54	117	-1.8	46	-11.8	96	0	970.5	NA	0.0000	HZ	4100	0	0	0	0
2019/04/06 17:28:00	BASE	25.12	126	33.54	117	-1.7	46	-11.9	96	0	970.6	NA	0.0000	HZ	4100	0	0	0	0
2019/04/06 17:29:00	BASE	27.30	130	33.64	134	-1.7	46	-11.8	96	0	970.3	NA	0.0000	HZ	4200	0	0	0	0
2019/04/06 17:30:00	BASE	30.07	129	33.64	134	-1.7	46	-11.8	96	0	970.3	NA	0.0000	HZ	4000	0	0	0	0
2019/04/06 17:31:00	BASE	29.55	128	33.64	134	-1.7	46	-11.9	96	0	970.4	NA	0.0000	HZ	4000	0	0	0	0
2019/04/06 17:32:00	BASE	29.64	128	33.64	134	-1.7	46	-11.9	95	0	970.3	NA	0.0000	HZ	4000	8760	0	0	0
2019/04/06 17:33:00	BASE	30.93	131	34.57	133	-1.7	45	-12.0	95	0	970.2	NA	0.0000	HZ	4000	8960	0	0	0
2019/04/06 17:34:01	BASE	31.53	132	37.45	128	-1.7	45	-12.1	94	0	970.3	NA	0.0000	HZ	4000	0	0	0	0
2019/04/06 17:35:06	BASE	31.65	126	37.45	128	-1.6	44	-12.3	93	0	970.3	NA	0.0000	HZ	4000	0	0	0	0
2019/04/06 17:36:01	BASE	30.25	127	37.45	128	-1.6	44	-12.4	92	0	970.3	NA	0.0000	HZ	4000	0	0	0	0
2019/04/06 17:37:01	BASE	28.79	131	37.45	128	-1.6	44	-12.3	92	0	970.3	NA	0.0000	HZ	4000	8920	0	0	0
2019/04/06 17:38:01	BASE	28.69	133	37.45	128	-1.6	44	-12.2	91	0	970.3	NA	0.0000	HZ	4300	0	0	0	0
2019/04/06 17:39:01	BASE	29.29	131	37.45	128	-1.6	45	-12.1	90	0	970.3	NA	0.0000	HZ	5000	9220	0	0	0
2019/04/06 17:40:01	BASE	28.59	129	37.45	128	-1.6	45	-12.0	90	0	970.4	NA	0.0000	HZ	6000	0	0	0	0
2019/04/06 17:41:01	BASE	28.89	130	37.45	128	-1.6	46	-11.9	89	0	970.3	NA	0.0000	HZ	7000	0	0	0	0
2019/04/06 17:42:01	BASE	28.61	130	37.45	128	-1.7	45	-11.9	88	0	970.5	NA	0.0000	HZ	7000	0	0	0	0
2019/04/06 17:43:01	BASE	29.02	128	37.45	128	-1.7	45	-12.0	87	0	970.2	NA	0.0000	HZ	7000	0	0	0	0
2019/04/06 17:44:01	BASE	30.06	124	34.88	126	-1.7	45	-12.0	86	0	970.3	NA	0.0000	HZ	7000	0	0	0	0
2019/04/06 17:45:01	BASE	28.35	121	34.88	126	-1.7	46	-11.9	85	0	970.4	NA	0.0000	HZ	6000	0	0	0	0
2019/04/06 17:46:01	BASE	29.47	126	35.14	133	-1.7	46	-11.8	85	0	970.2	NA	0.0000	HZ	7000	0	0	0	0
2019/04/06 17:47:01	BASE	31.06	127	35.91	124	-1.7	46	-11.7	84	0	970.3	NA	0.0000	HZ	8000	0	0	0	0
2019/04/06 17:48:01	BASE	29.80	121	35.91	124	-1.7	46	-11.7	84	0	970.5	NA	0.0000	HZ	8000	0	0	0	0
2019/04/06 17:49:01	BASE	28.45	121	35.91	124	-1.7	46	-11.9	83	0	970.5	NA	0.0000	HZ	7000	0	0	0	0
2019/04/06 17:50:01	BASE	26.95	127	35.91	124	-1.7	46	-11.8	83	0	970.4	NA	0.0000	HZ	7000	0	0	0	0
2019/04/06 17:51:01	BASE	27.38	130	35.91	124	-1.7	46	-11.8	82	0	970.2	NA	0.0000	HZ	7000	0	0	0	0
2019/04/06 17:52:01	BASE	29.88	129	35.91	124	-1.7	47	-11.7	82	0	970.3	NA	0.0000	HZ	7000	0	0	0	0
2019/04/06 17:53:01	BASE	28.38	124	35.91	124	-1.7	47	-11.6	81	0	970.4	NA	0.0000	HZ	7000	0	0	0	0
2019/04/06 17:54:01	BASE	26.04	120	35.91	124	-1.7	47	-11.5	81	0	970.5	NA	0.0000	HZ	7000	0	0	0	0
2019/04/06 17:55:01	BASE	25.54	120	35.91	124	-1.7	47	-11.6	81	0	970.5	NA	0.0000	HZ	7000	0	0	0	0
2019/04/06 17:56:01	BASE	25.54	123	35.91	124	-1.8	46	-11.8	81	0	970.4	NA	0.0000	HZ	7000	0	0	0	0
2019/04/06 17:57:01	BASE	28.02	127	33.03	132	-1.8	46	-11.9	80	0	970.2	NA	0.0000	HZ	7000	0	0	0	0
2019/04/06 17:58:01	BASE	29.20	126	33.03	132	-1.7	46	-11.9	80	0	970.4	NA	0.0000	HZ	7000	0	0	0	0
2019/04/06 17:59:01	BASE	28.06	121	33.03	132	-1.7	46	-11.8	80	0	970.4	NA	0.0000	HZ	7000	0	0	0	0
2019/04/06 18:00:01	BASE	27.56	121	33.13	125	-1.7	46	-11.7	80	0	970.4	NA	0.0000	HZ	7000	0	0	0	0
2019/04/06 18:01:01	BASE	29.93	127	34.83	128	-1.6	46	-11.6	80	0	970.2	NA	0.0000	HZ	7000	0	0	0	0
2019/04/06 18:02:01	BASE	31.75	131	34.83	128	-1.6	46	-11.8	80	0	970.2	NA	0.0000	HZ	7000	0	0	0	0
2019/04/06 18:03:01	BASE	32.07	131	35.24	130	-1.6	45	-11.9	80	0	970.1	NA	0.0000	HZ	7000	0	0	0	0
2019/04/06 18:04:01	BASE	31.97	129	35.24	130	-1.5	45	-11.9	80	0	970.2	NA	0.0000	HZ	7000	0	0	0	0
2019/04/06 18:05:01	BASE	31.85	131	35.81	134	-1.5	45	-12.0	80	0	970.1	NA	0.0000	HZ	7000	0	0	0	0
2019/04/06 18:06:01	BASE	31.00	130	35.81	134	-1.5	45	-12.0	80	0	970.3	NA	0.0000	HZ	7000	10430	0	0	0
2019/04/06 18:07:01	BASE	28.48	129	35.81	134	-1.5	45	-11.9	80	0	970.4	NA	0.0000	HZ	6000	10560	0	0	0
2019/04/06 18:08:00	BASE	29.46	129	35.81	134	-1.5	45	-11.9	80	0	970.3	NA	0.0000	HZ	7000	0	0	0	0
2019/04/06 18:09:01	BASE	31.72	129	35.81	134	-1.5	44	-12.1	80	0	970.2	NA	0.0000	HZ	7000	0	0	0	0
2019/04/06 18:10:01	BASE	29.94	129	35.81	134	-1.5	44	-12.1	80	0	970.4	NA	0.0000	HZ	7000	0	0	0	0
2019/04/06 18:11:01	BASE	27.79	125	35.81	134	-1.5	44	-12.0	80	0	970.5	NA	0.0000	HZ	6000	10340	0	0	0
2019/04/06 18:12:01	BASE	28.89	120	35.81	134	-1.5	44	-12.1	80	0	970.5	NA	0.0000	HZ	7000	0	0	0	0
2019/04/06 18:13:00	BASE	28.63	117	35.81	134	-1.5	44	-12.2	80	0	970.5	NA	0.0000	HZ	7000	0	0	0	0
2019/04/06 18:14:00	BASE	26.64	118	35.81	134	-1.6	45	-12.1	80	0	970.6	NA	0.0000	HZ	7000	0	0	0	0
2019/04/06 18:15:00	BASE	25.19	121	34.93	133	-1.6	45	-11.9	79	0	970.7	NA	0.0000	HZ	7000	10140	0	0	0
2019/04/06 18:16:00	BASE	23.87	126	34.93	133	-1.7	46	-11.8	79	0	970.7	NA	0.0000	HZ	7000	10530	0	0	0
2019/04/06 18:17:01	BASE	26.28	130	34.93	133	-1.7	46	-11.7	79	0	970.4	NA	0.0000	HZ	6000	0	0	0	0
2019/04/06 18:18:01	BASE	31.25	131	35.24	130	-1.7	47	-11.6	78	0	970.2	NA	0.0000	HZ	6000	0	0	0	0
2019/04/06 18:19:01	BASE	31.72	132	35.24	130	-1.6	47	-11.6	78	0	970.4	NA	0.0000	HZ	6000	0	0	0	0
2019/04/06 18:20:01	BASE	26.64	127	35.24	130	-1.6	46	-11.6	77	0	970.8	NA	0.0000	HZ	7000	0	0	0	0
2019/04/06 18:21:01	BASE	25.51	128	35.24	130	-1.5	46	-11.6	76	0	970.4	NA	0.0000	HZ	6000	0	0	0	0
2019/04/06 18:22:01	BASE	29.70	129	35.24	130	-1.5	46	-11.6	76	0	970.4	NA	0.0000	HZ	6000	10110	0	0	0
2019/04/06 18:23:01	BASE	29.85	124	35.24	130	-1.5	46	-11.6	76	0	970.5	NA	0.0000	HZ	6000	10170	0	0	0
2019/04/06 18:24:01	BASE	27.53	122	35.24	130	-1.5	46	-11.5	75	0	970.7	NA	0.0000	HZ	6000	11060	0	0	0
2019/04/06 18:25:01	BASE	26.45	126	35.24	130	-1.5	47	-11.3	75	0	970.6	NA	0.0000	HZ	6000	10530	11020	0	0
2019/04/06 18:26:01	BASE	27.05	128	35.24	130	-1.5	48	-11.2	74	0	970.7	NA	0.0000	HZ	6000	11650	0	0	0
2019/04/06 18:27:01	BASE	27.36	126	35.24	130	-1.5	48	-11.1	74	0	970.8	NA	0.0000	HZ	7000	0	0	0	0
2019/04/06 18:28:01	BASE	27.21	127	34.47	132	-1.6	49	-11.0	73	0	970.8	NA	0.0000	HZ	6000	0	0	0	0
2019/04/06 18:29:01	BASE	28.96	129	34.47	132	-1.6	50	-10.8	72	0	970.6	NA	0.0000	HZ	6000	10010	0	0	0
2019/04/06 18:30:01	BASE	30.30	130	34.47	132	-1.6	50	-10.8	72	0	970.6	NA	0.0000	HZ	6000	10560	0	0	0
2019/04/06 18:31:01	BASE	30.50	132	33.75	133	-1.6	49	-10.9	71	0	970.5	NA	0.0000	HZ	6000	10730	0	0	0
2019/04/06 18:32:01	BASE	31.23	133	33.90	133	-1.6	49	-10.9	71	0	970.6	NA	0.0000	HZ	6000	10730	0	0	0
2019/04/06 18:33:01	BASE	30.20	132	33.90	133	-1.6	49	-10.9	70	0	970.6	NA	0.0000	HZ	6000	0	0	0	0
2019/04/06 18:34:01	BASE	29.27	132	33.90	133	-1.5	48	-11.1	70	0	970.6	NA	0.0000	HZ	6000	10040	0	0	0
2019/04/06 18:35:01	BASE	27.61	132	33.90	133	-1.5	48	-11.0	70	0	970.8	NA	0.0000	HZ	6000	0	0	0	0
2019/04/06 18:36:01	BASE	26.27	128	33.90	133	-1.5	49	-10.9	69	0	970.8	NA	0.0000	HZ	6000	0	0	0	0
2019/04/06 18:37:01	BASE	26.99	123	33.90	133	-1.5	48	-11.0	69	0	970.9	NA	0.0000	HZ	6000	10560	0	0	0
2019/04/06 18:38:01	BASE	24.30	124	33.90	133	-1.6	48	-11.2	69	0	971.0	NA	0.0000	HZ	6000	9910	0	0	0
2019/04/06 18:39:01	BASE	23.69	129	33.90	133	-1.6	48	-11.1	69	0	970.8	NA	0.0000	HZ	6000	10240	0	0	0
2019/04/06 18:40:01	BASE	26.15	132	33.90	133	-1.6	48	-11.1	69	0	970.7	NA	0.0000	HZ	6000	10040	0	0	0
2019/04/06 18:41:01	BASE	27.89	133	33.90	133	-1.6	48	-11.2	69	0	970.6	NA	0.0000	HZ	6000	9420	0	0	0
2019/04/06 18:42:01	BASE	28.75	132	31.90	132	-1.6	48	-11.3	69	0	970.6	NA	0.0000	HZ	6000	10140	0	0	0
2019/04/06 18:43:01	BASE	27.50	132	31.90	132	-1.5	48	-11.2	69	0	970.7	NA	0.0000	HZ	6000	9780	0	0	0
2019/04/06 18:44:01	BASE	24.96	129	31.64	139	-1.5	47	-11.2	70	0	970.9	NA	0.0000	HZ	6000	0	0	0	0
2019/04/06 18:45:01	BASE	24.59	127	31.64	139	-1.4	47	-11.3	70	0	971.0	NA	0.0000	HZ	5000	0	0	0	0
2019/04/06 18:46:01	BASE	25.16	123	31.64	139	-1.4	47	-11.4	70	0	971.1	NA	0.0000	HZ	6000	9840	0	0	0
2019/04/06 18:47:01	BASE	24.26	123	31.64	139	-1.4	47	-11.3	70	0	971.0	NA	0.0000	HZ	6000	0	0	0	0
2019/04/06 18:48:01	BASE	23.58	125	31.64	139	-1.4	47	-11.3	70	0	971.1	NA	0.0000	HZ	6000	0	0	0	0
2019/04/06 18:49:01	BASE	24.35	124	31.64	139	-1.5	47	-11.4	71	0	970.9	NA	0.0000	HZ	6000	0	0	0	0
2019/04/06 18:50:01	BASE	27.20	129	32.05	134	-1.5	47	-11.4	71	0	970.8	NA	0.0000	HZ	6000	0	0	0	0
2019/04/06 18:51:01	BASE	27.94	132	32.05	134	-1.4	46	-11.5	72	0	971.0	NA	0.0000	HZ	6000	9150	0	0	0
2019/04/06 18:52:01	BASE	25.37	133	32.05	134	-1.4	47	-11.3	72	0	971.2	NA	0.0000	HZ	6000	0	0	0	0
2019/04/06 18:53:01	BASE	24.09	135	32.05	134	-1.4	48	-11.1	73	0	971.1	NA	0.0000	HZ	6000	9780	0	0	0
2019/04/06 18:54:01	BASE	24.39	131	32.05	134	-1.4	49	-10.8	73	0	971.1	NA	0.0000	HZ	6000	9550	0	0	0
2019/04/06 18:55:01	BASE	25.02	130	32.05	134	-1.4	49	-10.7	74	0	971.1	NA	0.0000	HZ	6000	8790	0	0	0
2019/04/06 18:56:01	BASE	24.40	131	32.05	134	-1.4	50	-10.5	75	0	971.2	NA	0.0000	HZ	6000	0	0	0	0
2019/04/06 18:57:01	BASE	21.70	126	32.05	134	-1.4	50	-10.5	76	0	971.4	NA	0.0000	HZ	6000	9290	0	0	0
2019/04/06 18:58:01	BASE	20.57	120	32.05	134	-1.4	49	-10.8	77	0	971.4	NA	0.0000	HZ	6000	8920	0	0	0
2019/04/06 18:59:01	BASE	20.54	125	32.05	134	-1.4	48	-10.9	78	0	971.4	NA	0.0000	HZ	5000	8890	0	0	0
2019/04/06 19:00:01	BASE	23.03	131	29.94	134	-1.5	48	-11.0	79	0	971.2	NA	0.0000	HZ	5000	0	0	0	0
2019/04/06 19:01:01	BASE	25.65	134	28.96	133	-1.5	49	-10.9	80	0	971.2	NA	0.0000	HZ	6000	0	0	0	0
2019/04/06 19:02:01	BASE	27.58	132	31.64	131	-1.5	49	-10.9	80	0	971.1	NA	0.0000	HZ	6000	9450	0	0	0
2019/04/06 19:03:01	BASE	29.06	132	32.10	135	-1.4	49	-10.8	81	0	971.1	NA	0.0000	HZ	6000	0	0	0	0
2019/04/06 19:04:01	BASE	30.02	133	33.59	129	-1.4	49	-10.7	81	0	971.1	NA	0.0000	HZ	6000	0	0	0	0
2019/04/06 19:05:01	BASE	30.58	131	33.59	129	-1.3	48	-11.0	82	0	971.2	NA	0.0000	HZ	5000	0	0	0	0
2019/04/06 19:06:01	BASE	29.06	132	33.59	129	-1.3	47	-11.2	82	0	971.2	NA	0.0000	HZ	5000	22250	0	0	0
2019/04/06 19:07:01	BASE	29.34	128	33.59	129	-1.3	47	-11.3	81	0	971.2	NA	0.0000	HZ	6000	9250	0	0	0
2019/04/06 19:08:01	BASE	27.41	123	33.59	129	-1.3	46	-11.4	81	0	971.5	NA	0.0000	HZ	6000	8370	0	0	0
2019/04/06 19:09:01	BASE	23.84	125	33.59	129	-1.4	46	-11.4	80	0	971.6	NA	0.0000	HZ	6000	0	0	0	0
2019/04/06 19:10:01	BASE	24.86	133	33.59	129	-1.4	47	-11.2	78	0	971.4	NA	0.0000	HZ	6000	9380	0	0	0
2019/04/06 19:11:01	BASE	25.46	135	33.59	129	-1.5	48	-11.1	76	0	971.5	NA	0.0000	HZ	6000	8920	0	0	0
2019/04/06 19:12:01	BASE	26.65	137	33.59	129	-1.5	49	-10.9	74	0	971.3	NA	0.0000	HZ	6000	8630	0	0	0
2019/04/06 19:13:01	BASE	27.89	138	33.59	129	-1.5	49	-10.8	73	0	971.4	NA	0.0000	HZ	5000	8630	0	0	0
2019/04/06 19:14:01	BASE	28.52	136	34.83	132	-1.5	49	-10.7	71	0	971.2	NA	0.0000	HZ	6000	7870	0	0	0
2019/04/06 19:15:01	BASE	29.13	135	34.83	132	-1.5	49	-10.8	70	0	971.3	NA	0.0000	HZ	5000	8730	0	0	0
2019/04/06 19:16:01	BASE	27.06	134	34.83	132	-1.5	49	-10.8	68	0	971.5	NA	0.0000	HZ	5000	8300	0	0	0
2019/04/06 19:17:01	BASE	24.76	132	34.83	132	-1.5	49	-10.8	67	0	971.6	NA	0.0000	HZ	5000	8630	0	0	0
2019/04/06 19:18:01	BASE	23.72	134	34.83	132	-1.5	50	-10.6	66	0	971.6	NA	0.0000	HZ	5000	8430	0	0	0
2019/04/06 19:19:01	BASE	26.27	134	34.83	132	-1.5	51	-10.4	65	0	971.4	NA	0.0000	HZ	5000	8690	0	0	0
2019/04/06 19:20:00	BASE	28.90	133	34.83	132	-1.5	51	-10.4	65	0	971.4	NA	0.0000	HZ	5000	8830	0	0	0
2019/04/06 19:21:01	BASE	27.67	134	34.83	132	-1.5	51	-10.4	64	0	971.5	NA	0.0000	HZ	5000	8430	0	0	0
2019/04/06 19:22:01	BASE	26.99	133	34.83	132	-1.5	51	-10.4	63	0	971.4	NA	0.0000	HZ	5000	8760	0	0	0
2019/04/06 19:23:01	BASE	28.79	133	34.83	132	-1.5	50	-10.5	63	0	971.3	NA	0.0000	HZ	5000	8960	0	0	0
2019/04/06 19:24:01	BASE	27.00	134	32.36	136	-1.5	50	-10.6	62	0	971.6	NA	0.0000	HZ	5000	8990	0	0	0
2019/04/06 19:25:01	BASE	25.71	134	32.36	136	-1.5	50	-10.6	62	0	971.6	NA	0.0000	HZ	5000	8660	0	0	0
2019/04/06 19:26:01	BASE	25.94	133	32.36	136	-1.5	50	-10.6	62	0	971.7	NA	0.0000	HZ	5000	9090	0	0	0
2019/04/06 19:27:01	BASE	24.97	135	32.36	136	-1.5	50	-10.6	61	0	971.7	NA	0.0000	HZ	5000	8830	0	0	0
2019/04/06 19:28:01	BASE	25.73	135	32.36	136	-1.5	50	-10.7	61	0	971.7	NA	0.0000	HZ	5000	8830	0	0	0
2019/04/06 19:29:01	BASE	27.88	132	32.36	136	-1.5	50	-10.7	61	0	971.5	NA	0.0000	HZ	5000	8270	0	0	0
2019/04/06 19:30:01	BASE	29.78	134	33.95	133	-1.5	49	-10.7	60	0	971.5	NA	0.0000	HZ	5000	8830	0	0	0
2019/04/06 19:31:01	BASE	27.12	137	33.95	133	-1.5	49	-10.8	60	0	971.7	NA	0.0000	HZ	5000	9060	0	0	0
2019/04/06 19:32:01	BASE	23.69	137	33.95	133	-1.5	49	-10.7	59	0	971.9	NA	0.0000	HZ	5000	8630	0	0	0
2019/04/06 19:33:01	BASE	23.87	136	33.95	133	-1.5	50	-10.7	59	0	971.8	NA	0.0000	HZ	5000	8530	0	0	0
2019/04/06 19:34:01	BASE	26.50	139	33.95	133	-1.5	50	-10.6	58	0	971.7	NA	0.0000	HZ	5000	9220	0	0	0
2019/04/06 19:35:00	BASE	28.21	137	33.95	133	-1.5	50	-10.5	57	0	971.8	NA	0.0000	HZ	5000	8140	0	0	0
2019/04/06 19:36:00	BASE	26.66	134	33.95	133	-1.4	50	-10.4	56	0	971.9	NA	0.0000	HZ	5000	7910	0	0	0
2019/04/06 19:37:01	BASE	25.95	133	33.95	133	-1.4	50	-10.4	55	0	971.9	NA	0.0000	HZ	5000	8170	0	0	0
2019/04/06 19:38:00	BASE	24.66	136	33.95	133	-1.4	50	-10.5	55	0	972.1	NA	0.0000	HZ	5000	8200	0	0	0
2019/04/06 19:39:00	BASE	23.14	140	33.95	133	-1.4	50	-10.5	54	0	972.1	NA	0.0000	HZ	5000	8370	0	0	0
2019/04/06 19:40:00	BASE	24.29	141	32.46	140	-1.4	50	-10.5	54	0	972.0	NA	0.0000	HZ	5000	8170	0	0	0
2019/04/06 19:41:00	BASE	25.46	138	32.46	140	-1.5	50	-10.6	53	0	972.0	NA	0.0000	HZ	5000	8330	0	0	0
2019/04/06 19:42:01	BASE	23.62	134	32.46	140	-1.5	49	-10.7	52	0	972.2	NA	0.0000	HZ	5000	8100	0	0	0
2019/04/06 19:43:00	BASE	21.70	134	32.46	140	-1.5	49	-10.7	52	0	972.1	NA	0.0000	HZ	5000	8240	0	0	0
2019/04/06 19:44:00	BASE	24.96	139	32.46	140	-1.5	49	-10.8	51	0	972.0	NA	0.0000	HZ	4800	7940	0	0	0
2019/04/06 19:45:01	BASE	26.73	141	30.15	144	-1.5	49	-10.8	50	0	972.0	NA	0.0000	HZ	5000	8070	0	0	0
2019/04/06 19:46:00	BASE	24.22	139	30.15	144	-1.5	49	-10.8	49	0	972.2	NA	0.0000	HZ	5000	8070	0	0	0
2019/04/06 19:47:00	BASE	24.58	135	30.04	144	-1.4	50	-10.6	48	0	972.0	NA	0.0000	HZ	4800	8200	0	0	0
2019/04/06 19:48:00	BASE	26.68	138	30.56	144	-1.4	50	-10.5	47	0	972.1	NA	0.0000	HZ	4800	7940	0	0	0
2019/04/06 19:49:00	BASE	25.41	140	30.56	144	-1.4	50	-10.5	47	0	972.2	NA	0.0000	HZ	5000	7840	0	0	0
2019/04/06 19:50:00	BASE	24.24	141	30.56	144	-1.3	50	-10.3	46	0	972.2	NA	0.0000	HZ	5000	7780	0	0	0
2019/04/06 19:51:00	BASE	25.03	143	30.56	144	-1.3	51	-10.3	45	0	972.1	NA	0.0000	HZ	4900	8240	0	0	0
2019/04/06 19:52:00	BASE	24.13	142	30.56	144	-1.3	50	-10.3	44	0	972.3	NA	0.0000	HZ	4800	8300	0	0	0
2019/04/06 19:53:00	BASE	23.21	140	30.56	144	-1.3	51	-10.2	43	0	972.3	NA	0.0000	HZ	4900	7970	0	0	0
2019/04/06 19:54:00	BASE	24.40	139	30.56	144	-1.3	50	-10.4	43	0	972.2	NA	0.0000	HZ	4900	8270	0	0	0
2019/04/06 19:55:00	BASE	25.85	138	30.56	144	-1.3	50	-10.4	42	0	972.2	NA	0.0000	HZ	4900	7840	0	0	0
2019/04/06 19:56:01	BASE	26.37	134	30.56	144	-1.3	50	-10.5	41	0	972.2	NA	0.0000	HZ	4700	8070	0	0	0
2019/04/06 19:57:00	BASE	25.44	135	30.56	144	-1.3	49	-10.6	41	0	972.2	NA	0.0000	HZ	4700	8630	0	0	0
2019/04/06 19:58:00	BASE	26.01	139	31.02	144	-1.3	48	-10.8	40	0	972.1	NA	0.0000	HZ	4800	7550	0	0	0
2019/04/06 19:59:00	BASE	27.02	143	31.02	144	-1.3	48	-10.9	40	0	972.2	NA	0.0000	HZ	4800	8400	0	0	0
2019/04/06 20:00:01	BASE	25.93	144	31.02	144	-1.3	48	-10.9	40	0	972.3	NA	0.0000	HZ	5000	8400	0	0	0
2019/04/06 20:01:00	BASE	24.61	145	31.02	144	-1.3	48	-11.0	39	0	972.4	NA	0.0000	HZ	5000	7970	0	0	0
2019/04/06 20:02:00	BASE	21.78	144	31.02	144	-1.3	49	-10.8	39	0	972.5	NA	0.0000	HZ	4700	8140	0	0	0
2019/04/06 20:03:00	BASE	20.95	140	31.02	144	-1.3	49	-10.6	39	0	972.5	NA	0.0000	HZ	4700	0	0	0	0
2019/04/06 20:04:00	BASE	22.97	138	31.02	144	-1.3	50	-10.4	39	0	972.4	NA	0.0000	HZ	4800	8270	0	0	0
2019/04/06 20:05:00	BASE	24.84	138	31.02	144	-1.3	50	-10.4	39	0	972.4	NA	0.0000	HZ	4700	0	0	0	0
2019/04/06 20:06:00	BASE	24.68	140	31.02	144	-1.3	50	-10.3	39	0	972.5	NA	0.0000	HZ	4700	8690	0	0	0
2019/04/06 20:07:00	BASE	23.61	142	31.02	144	-1.3	50	-10.4	38	0	972.5	NA	0.0000	HZ	4700	0	0	0	0
2019/04/06 20:08:00	BASE	24.54	142	30.87	147	-1.3	50	-10.5	38	0	972.4	NA	0.0000	HZ	4600	8070	0	0	0
2019/04/06 20:09:00	BASE	25.03	142	30.97	146	-1.3	50	-10.5	38	0	972.4	NA	0.0000	HZ	4600	0	0	0	0
2019/04/06 20:10:00	BASE	26.20	143	31.12	146	-1.3	50	-10.5	38	0	972.3	NA	0.0000	HZ	4600	8960	0	0	0
2019/04/06 20:11:00	BASE	27.97	143	33.34	149	-1.3	49	-10.7	37	0	972.3	NA	0.0000	HZ	4500	0	0	0	0
2019/04/06 20:12:00	BASE	27.91	139	33.34	149	-1.3	49	-10.7	37	0	972.5	NA	0.0000	HZ	4600	0	0	0	0
2019/04/06 20:13:00	BASE	27.40	132	33.34	149	-1.3	48	-10.9	37	0	972.6	NA	0.0000	HZ	4600	0	0	0	0
2019/04/06 20:14:00	BASE	25.02	136	33.34	149	-1.2	47	-11.0	36	0	972.7	NA	0.0000	HZ	4700	8560	0	0	0
2019/04/06 20:15:00	BASE	23.65	141	33.34	149	-1.2	48	-10.9	36	0	972.7	NA	0.0000	HZ	4700	9420	0	0	0
2019/04/06 20:16:00	BASE	25.75	141	33.34	149	-1.2	48	-10.8	35	0	972.7	NA	0.0000	HZ	4600	0	0	0	0
2019/04/06 20:17:00	BASE	26.08	141	33.34	149	-1.2	48	-10.8	34	0	972.7	NA	0.0000	HZ	4500	0	0	0	0
2019/04/06 20:18:00	BASE	24.18	140	33.34	149	-1.2	48	-10.8	34	0	972.8	NA	0.0000	HZ	4700	8530	0	0	0
2019/04/06 20:19:00	BASE	23.77	142	33.34	149	-1.2	48	-10.7	34	0	972.7	NA	0.0000	HZ	4700	0	0	0	0
2019/04/06 20:20:00	BASE	24.11	146	33.34	149	-1.2	48	-10.7	33	0	972.7	NA	0.0000	HZ	4700	0	0	0	0
2019/04/06 20:21:00	BASE	23.57	142	30.61	137	-1.2	48	-10.7	33	0	972.8	NA	0.0000	HZ	4600	8530	0	0	0
2019/04/06 20:22:01	BASE	22.49	135	30.20	127	-1.2	49	-10.6	32	0	972.9	NA	0.0000	HZ	4600	0	0	0	0
2019/04/06 20:23:01	BASE	21.25	133	29.27	143	-1.2	49	-10.5	31	0	972.9	NA	0.0000	HZ	4400	0	0	0	0
2019/04/06 20:24:01	BASE	21.52	137	29.27	143	-1.2	50	-10.4	31	0	972.9	NA	0.0000	HZ	4400	0	0	0	0
2019/04/06 20:25:01	BASE	23.54	139	29.27	143	-1.2	50	-10.4	30	0	972.8	NA	0.0000	HZ	4500	8920	0	0	0
2019/04/06 20:26:01	BASE	25.90	140	31.28	147	-1.2	50	-10.4	30	0	972.7	NA	0.0000	HZ	4300	9150	0	0	0
2019/04/06 20:27:01	BASE	28.37	141	34.36	143	-1.2	50	-10.4	29	0	972.6	NA	0.0000	HZ	4400	9090	0	0	0
2019/04/06 20:28:01	BASE	29.39	142	34.36	143	-1.2	50	-10.4	28	0	972.5	NA	0.0000	HZ	4600	9150	0	0	0
2019/04/06 20:29:01	BASE	26.98	143	34.36	143	-1.2	50	-10.4	28	0	972.6	NA	0.0000	HZ	4500	8960	0	0	0
2019/04/06 20:30:01	BASE	24.87	142	34.36	143	-1.3	50	-10.4	27	0	972.6	NA	0.0000	HZ	4400	9150	0	0	0
2019/04/06 20:31:01	BASE	26.56	140	34.36	143	-1.3	50	-10.4	27	0	972.5	NA	0.0000	HZ	4200	9020	0	0	0
2019/04/06 20:32:01	BASE	26.40	137	34.36	143	-1.3	50	-10.5	26	0	972.8	NA	0.0000	HZ	4200	8760	0	0	0
2019/04/06 20:33:01	BASE	23.80	138	34.36	143	-1.3	50	-10.3	25	0	972.8	NA	0.0000	HZ	4200	8830	0	0	0
2019/04/06 20:34:01	BASE	25.20	142	34.36	143	-1.3	51	-10.3	25	0	972.6	NA	0.0000	HZ	4100	8630	0	0	0
2019/04/06 20:35:01	BASE	27.00	144	34.36	143	-1.3	51	-10.3	24	0	972.7	NA	0.0000	HZ	4000	0	0	0	0
2019/04/06 20:36:01	BASE	24.97	140	34.36	143	-1.3	51	-10.3	23	0	972.8	NA	0.0000	HZ	4100	0	0	0	0
2019/04/06 20:37:01	BASE	24.78	138	32.77	141	-1.3	51	-10.3	23	0	972.7	NA	0.0000	HZ	4200	0	0	0	0
2019/04/06 20:38:01	BASE	27.54	139	32.77	141	-1.3	50	-10.5	22	0	972.6	NA	0.0000	HZ	4100	0	0	0	0
2019/04/06 20:39:01	BASE	27.84	136	32.77	141	-1.3	48	-10.8	22	0	972.7	NA	0.0000	HZ	4200	9020	0	0	0
2019/04/06 20:40:01	BASE	24.92	131	32.77	141	-1.3	47	-11.0	21	0	972.9	NA	0.0000	HZ	4000	0	0	0	0
2019/04/06 20:41:01	BASE	24.07	132	32.77	141	-1.3	47	-11.1	21	0	972.8	NA	0.0000	HZ	4000	0	0	0	0
2019/04/06 20:42:01	BASE	27.24	136	32.77	141	-1.3	47	-11.2	20	0	972.6	NA	0.0000	HZ	4100	0	0	0	0
2019/04/06 20:43:01	BASE	28.33	135	32.77	141	-1.3	47	-11.1	20	0	972.8	NA	0.0000	HZ	4100	0	0	0	0
2019/04/06 20:44:01	BASE	26.88	133	32.77	141	-1.3	48	-11.0	19	0	972.8	NA	0.0000	HZ	4000	0	0	0	0
2019/04/06 20:45:01	BASE	24.64	135	32.41	140	-1.3	48	-10.9	19	0	972.9	NA	0.0000	HZ	4200	0	0	0	0
2019/04/06 20:46:01	BASE	24.53	137	32.41	140	-1.3	49	-10.8	18	0	972.9	NA	0.0000	HZ	4300	0	0	0	0
2019/04/06 20:47:01	BASE	25.05	136	32.41	140	-1.3	49	-10.7	18	0	973.1	NA	0.0000	HZ	4200	0	0	0	0
2019/04/06 20:48:01	BASE	23.79	137	32.41	140	-1.3	50	-10.4	17	0	973.0	NA	0.0000	HZ	4200	0	0	0	0
2019/04/06 20:49:01	BASE	23.98	135	32.41	140	-1.3	51	-10.3	17	0	973.0	NA	0.0000	HZ	4000	0	0	0	0
2019/04/06 20:50:01	BASE	25.65	132	32.41	140	-1.4	51	-10.3	16	0	972.9	NA	0.0000	HZ	4000	0	0	0	0
2019/04/06 20:51:01	BASE	25.75	132	32.41	140	-1.4	50	-10.4	16	0	973.0	NA	0.0000	HZ	4100	0	0	0	0
2019/04/06 20:52:01	BASE	25.78	131	30.71	128	-1.3	50	-10.6	15	0	973.0	NA	0.0000	HZ	3900	0	0	0	0
2019/04/06 20:53:01	BASE	25.53	131	30.71	128	-1.3	48	-10.9	15	0	973.1	NA	0.0000	HZ	4000	0	0	0	0
2019/04/06 20:54:01	BASE	23.63	132	30.61	142	-1.3	47	-11.2	14	0	973.2	NA	0.0000	HZ	4200	0	0	0	0
2019/04/06 20:55:01	BASE	22.89	135	30.04	134	-1.3	47	-11.2	13	0	973.2	NA	0.0000	HZ	4200	0	0	0	0
2019/04/06 20:56:01	BASE	23.04	133	30.04	134	-1.3	47	-11.1	13	0	973.3	NA	0.0000	HZ	4000	0	0	0	0
2019/04/06 20:57:01	BASE	23.90	132	30.04	134	-1.3	47	-11.1	12	0	973.3	NA	0.0000	HZ	4100	8370	0	0	0
2019/04/06 20:58:01	BASE	24.11	132	30.04	134	-1.3	48	-11.0	12	0	973.3	NA	0.0000	HZ	4300	0	0	0	0
2019/04/06 20:59:01	BASE	23.26	132	30.04	134	-1.3	49	-10.8	11	0	973.4	NA	0.0000	HZ	4100	8430	0	0	0
2019/04/06 21:00:01	BASE	22.78	131	29.68	135	-1.3	49	-10.7	11	0	973.3	NA	0.0000	HZ	4000	0	0	0	0
2019/04/06 21:01:01	BASE	24.54	129	29.68	135	-1.3	49	-10.7	10	0	973.2	NA	0.0000	HZ	4000	8500	0	0	0
2019/04/06 21:02:01	BASE	24.94	127	28.96	123	-1.4	48	-10.9	10	0	973.4	NA	0.0000	HZ	3900	8760	0	0	0
2019/04/06 21:03:01	BASE	24.09	128	28.96	123	-1.4	49	-10.8	9	0	973.3	NA	0.0000	HZ	4000	0	0	0	0
2019/04/06 21:04:01	BASE	23.18	132	28.96	123	-1.4	49	-10.7	9	0	973.4	NA	0.0000	HZ	4100	8600	0	0	0
2019/04/06 21:05:01	BASE	23.16	133	29.22	136	-1.4	50	-10.6	8	0	973.3	NA	0.0000	HZ	4100	0	0	0	0
2019/04/06 21:06:01	BASE	24.05	130	29.22	136	-1.4	50	-10.4	8	0	973.4	NA	0.0000	HZ	4000	8240	0	0	0
2019/04/06 21:07:01	BASE	24.07	127	29.22	136	-1.4	51	-10.3	8	0	973.3	NA	0.0000	HZ	4100	7970	0	0	0
2019/04/06 21:08:01	BASE	23.62	132	29.22	136	-1.3	51	-10.1	7	0	973.4	NA	0.0000	HZ	4100	0	0	0	0
2019/04/06 21:09:00	BASE	24.41	135	29.53	134	-1.3	51	-10.2	7	0	973.2	NA	0.0000	HZ	4000	0	0	0	0
2019/04/06 21:10:00	BASE	26.49	133	29.53	134	-1.3	50	-10.4	6	0	973.3	NA	0.0000	HZ	4000	7870	0	0	0
2019/04/06 21:11:00	BASE	27.49	132	30.51	133	-1.3	49	-10.5	6	0	973.2	NA	0.0000	HZ	4000	7810	0	0	0
2019/04/06 21:12:01	BASE	27.41	132	30.51	133	-1.2	49	-10.7	6	0	973.3	NA	0.0000	HZ	4200	8010	0	0	0
2019/04/06 21:13:00	BASE	26.12	131	30.51	133	-1.2	48	-10.9	5	0	973.4	NA	0.0000	HZ	4100	0	0	0	0
2019/04/06 21:14:00	BASE	24.66	132	30.51	133	-1.2	47	-11.0	5	0	973.5	NA	0.0000	HZ	3900	0	0	0	0
2019/04/06 21:15:01	BASE	24.00	132	30.51	133	-1.2	47	-11.1	5	0	973.5	NA	0.0000	HZ	3800	0	0	0	0
2019/04/06 21:16:00	BASE	22.00	129	30.51	133	-1.2	47	-11.1	4	0	973.7	NA	0.0000	HZ	4000	0	0	0	0
2019/04/06 21:17:00	BASE	19.99	129	30.51	133	-1.3	47	-11.0	4	0	973.7	NA	0.0000	HZ	4000	8070	0	0	0
2019/04/06 21:18:00	BASE	22.03	131	30.51	133	-1.3	48	-10.8	4	0	973.6	NA	0.0000	HZ	3900	0	0	0	0
2019/04/06 21:19:01	BASE	22.66	131	30.51	133	-1.3	48	-10.8	3	0	973.7	NA	0.0000	HZ	3900	0	0	0	0
2019/04/06 21:20:00	BASE	21.46	131	30.51	133	-1.2	49	-10.7	3	0	973.7	NA	0.0000	HZ	3900	0	0	0	0
2019/04/06 21:21:00	BASE	23.88	129	28.81	137	-1.3	49	-10.6	3	0	973.6	NA	0.0000	HZ	3900	0	0	0	0
2019/04/06 21:22:01	BASE	23.70	128	28.50	130	-1.3	48	-10.8	3	0	973.8	NA	0.0000	HZ	3800	8500	0	0	0
2019/04/06 21:23:00	BASE	21.72	132	28.24	128	-1.3	48	-11.0	3	0	973.8	NA	0.0000	HZ	3700	8560	0	0	0
2019/04/06 21:24:00	BASE	22.46	135	28.24	128	-1.3	48	-11.0	2	0	973.7	NA	0.0000	HZ	3800	0	0	0	0
2019/04/06 21:25:00	BASE	23.05	135	28.24	128	-1.3	47	-11.1	2	0	973.7	NA	0.0000	HZ	3900	7910	0	0	0
2019/04/06 21:26:00	BASE	23.67	134	28.24	128	-1.3	47	-11.0	2	0	973.8	NA	0.0000	HZ	3800	8140	0	0	0
2019/04/06 21:27:00	BASE	23.84	133	28.24	128	-1.2	48	-10.9	2	0	973.8	NA	0.0000	HZ	3800	0	0	0	0
2019/04/06 21:28:00	BASE	22.14	133	28.24	128	-1.2	49	-10.7	2	0	973.9	NA	0.0000	HZ	3900	0	0	0	0
2019/04/06 21:29:00	BASE	22.36	133	28.24	128	-1.2	49	-10.7	2	0	973.8	NA	0.0000	HZ	3800	0	0	0	0
2019/04/06 21:30:01	BASE	23.25	132	28.24	128	-1.2	49	-10.7	2	0	973.9	NA	0.0000	HZ	3800	0	0	0	0
2019/04/06 21:31:00	BASE	21.67	132	27.32	136	-1.2	49	-10.6	2	0	973.9	NA	0.0000	HZ	3900	0	0	0	0
2019/04/06 21:32:00	BASE	21.12	132	27.32	136	-1.2	49	-10.5	1	0	974.0	NA	0.0000	HZ	3800	0	0	0	0
2019/04/06 21:33:00	BASE	20.72	133	27.32	136	-1.2	49	-10.4	1	0	974.0	NA	0.0000	HZ	3700	0	0	0	0
2019/04/06 21:34:00	BASE	22.60	133	27.99	119	-1.2	49	-10.4	1	0	973.8	NA	0.0000	HZ	3800	0	0	0	0
2019/04/06 21:35:01	BASE	23.94	131	27.99	119	-1.2	49	-10.4	1	0	973.9	NA	0.0000	HZ	3900	0	0	0	0
2019/04/06 21:36:00	BASE	22.48	132	27.99	119	-1.2	49	-10.4	1	0	973.9	NA	0.0000	HZ	5000	0	0	0	0
2019/04/06 21:37:00	BASE	22.63	132	27.99	119	-1.2	49	-10.5	1	0	973.8	NA	0.0000	HZ	5000	0	0	0	0
2019/04/06 21:38:00	BASE	23.27	133	27.99	119	-1.2	49	-10.5	1	0	973.9	NA	0.0000	HZ	5000	0	0	0	0
2019/04/06 21:39:00	BASE	24.28	132	27.99	119	-1.2	49	-10.4	1	0	973.8	NA	0.0000	HZ	5000	0	0	0	0
2019/04/06 21:40:01	BASE	23.70	130	27.99	119	-1.1	50	-10.3	1	0	974.0	NA	0.0000	HZ	5000	0	0	0	0
2019/04/06 21:41:00	BASE	22.12	128	27.99	119	-1.1	50	-10.2	1	0	974.0	NA	0.0000	HZ	5000	0	0	0	0
2019/04/06 21:42:00	BASE	23.37	129	28.14	130	-1.1	51	-10.1	1	0	973.9	NA	0.0000	HZ	5000	0	0	0	0
2019/04/06 21:43:00	BASE	25.54	131	28.76	134	-1.2	50	-10.2	1	0	973.8	NA	0.0000	HZ	5000	0	0	0	0
2019/04/06 21:44:00	BASE	25.62	131	28.76	134	-1.2	50	-10.3	1	0	973.9	NA	0.0000	HZ	5000	0	0	0	0
2019/04/06 21:45:00	BASE	22.91	131	28.76	134	-1.2	49	-10.5	1	0	974.1	NA	0.0000	HZ	5000	0	0	0	0
2019/04/06 21:46:00	BASE	21.26	131	28.76	134	-1.2	49	-10.7	1	0	974.1	NA	0.0000	HZ	5000	0	0	0	0
2019/04/06 21:47:00	BASE	20.69	131	28.76	134	-1.2	49	-10.7	1	0	974.1	NA	0.0000	HZ	5000	0	0	0	0
2019/04/06 21:48:00	BASE	18.98	130	28.76	134	-1.2	49	-10.6	1	0	974.2	NA	0.0000	HZ	5000	0	0	0	0
2019/04/06 21:49:00	BASE	19.44	129	28.76	134	-1.2	50	-10.3	0	0	974.1	NA	0.0000	HZ	5000	0	0	0	0
2019/04/06 21:50:00	BASE	22.81	129	28.76	134	-1.2	51	-10.2	0	0	974.0	NA	0.0000	HZ	5000	0	0	0	0
2019/04/06 21:51:00	BASE	22.64	127	28.76	134	-1.2	50	-10.2	0	0	974.2	NA	0.0000	HZ	5000	0	0	0	0
2019/04/06 21:52:01	BASE	21.08	124	28.76	134	-1.2	50	-10.3	0	0	974.2	NA	0.0000	HZ	5000	0	0	0	0
2019/04/06 21:53:00	BASE	22.89	128	27.01	131	-1.2	49	-10.5	0	0	974.1	NA	0.0000	HZ	5000	0	0	0	0
2019/04/06 21:54:00	BASE	23.45	126	27.01	131	-1.2	49	-10.6	0	0	974.1	NA	0.0000	HZ	5000	0	0	0	0
2019/04/06 21:55:00	BASE	23.64	124	27.11	125	-1.2	49	-10.6	0	0	974.1	NA	0.0000	HZ	5000	0	0	0	0
2019/04/06 21:56:00	BASE	23.26	125	27.11	125	-1.2	49	-10.5	0	0	974.2	NA	0.0000	HZ	5000	0	0	0	0
2019/04/06 21:57:00	BASE	20.95	124	27.11	125	-1.3	50	-10.5	0	0	974.3	NA	0.0000	HZ	5000	0	0	0	0
2019/04/06 21:58:00	BASE	20.88	126	27.11	125	-1.3	50	-10.4	0	0	974.2	NA	0.0000	HZ	5000	0	0	0	0
2019/04/06 21:59:00	BASE	20.66	130	27.11	125	-1.3	50	-10.4	0	0	974.2	NA	0.0000	HZ	5000	0	0	0	0
2019/04/06 22:00:00	BASE	19.21	130	27.11	125	-1.3	50	-10.3	0	0	974.3	NA	0.0000	HZ	5000	0	0	0	0
2019/04/06 22:01:00	BASE	19.45	131	27.11	125	-1.2	51	-10.2	0	0	974.2	NA	0.0000	HZ	6000	0	0	0	0
2019/04/06 22:02:00	BASE	22.29	131	27.78	130	-1.2	51	-10.1	0	0	974.1	NA	0.0000	HZ	6000	0	0	0	0
2019/04/06 22:03:00	BASE	24.82	128	27.78	130	-1.2	51	-10.1	0	0	974.1	NA	0.0000	HZ	6000	0	0	0	0
2019/04/06 22:04:00	BASE	24.39	129	27.78	130	-1.2	50	-10.2	0	0	974.2	NA	0.0000	HZ	6000	0	0	0	0
2019/04/06 22:05:00	BASE	23.93	132	28.24	140	-1.1	50	-10.3	0	0	974.2	NA	0.0000	HZ	6000	0	0	0	0
2019/04/06 22:06:00	BASE	22.96	130	28.24	140	-1.1	49	-10.4	0	0	974.4	NA	0.0000	HZ	6000	0	0	0	0
2019/04/06 22:07:00	BASE	20.38	129	28.24	140	-1.1	49	-10.4	0	0	974.5	NA	0.0000	HZ	6000	0	0	0	0
2019/04/06 22:08:00	BASE	19.07	130	28.24	140	-1.1	50	-10.2	0	0	974.5	NA	0.0000	HZ	6000	0	0	0	0
2019/04/06 22:09:01	BASE	20.01	129	28.24	140	-1.1	51	-10.0	0	0	974.5	NA	0.0000	HZ	6000	0	0	0	0
2019/04/06 22:10:00	BASE	20.19	126	28.24	140	-1.2	52	-9.8	0	0	974.5	NA	0.0000	HZ	6000	0	0	0	0
2019/04/06 22:11:00	BASE	21.89	127	28.35	136	-1.2	52	-9.8	0	0	974.4	NA	0.0000	HZ	6000	0	0	0	0
2019/04/06 22:12:00	BASE	23.52	130	28.35	136	-1.2	52	-9.8	0	0	974.4	NA	0.0000	HZ	6000	0	0	0	0
2019/04/06 22:13:00	BASE	22.98	132	28.35	136	-1.2	51	-9.9	0	0	974.4	NA	0.0000	HZ	6000	0	0	0	0
2019/04/06 22:14:00	BASE	22.31	130	28.35	136	-1.1	50	-10.2	0	0	974.5	NA	0.0000	HZ	6000	0	0	0	0
2019/04/06 22:15:00	BASE	21.74	131	28.35	136	-1.1	50	-10.3	0	0	974.5	NA	0.0000	HZ	6000	0	0	0	0
2019/04/06 22:16:00	BASE	22.88	140	28.35	136	-1.1	50	-10.3	0	0	974.5	NA	0.0000	HZ	6000	0	0	0	0
2019/04/06 22:17:00	BASE	23.81	137	28.35	136	-1.1	49	-10.4	0	0	974.5	NA	0.0000	HZ	6000	0	0	0	0
2019/04/06 22:18:00	BASE	23.91	134	28.35	136	-1.1	49	-10.3	0	0	974.5	NA	0.0000	HZ	6000	0	0	0	0
2019/04/06 22:19:00	BASE	22.13	134	28.35	136	-1.0	50	-10.2	0	0	974.7	NA	0.0000	HZ	6000	0	0	0	0
2019/04/06 22:20:00	BASE	21.36	132	28.35	136	-1.0	50	-10.1	0	0	974.6	NA	0.0000	HZ	6000	0	0	0	0
2019/04/06 22:21:00	BASE	21.69	134	28.24	140	-1.0	50	-10.2	0	0	974.6	NA	0.0000	HZ	6000	0	0	0	0
2019/04/06 22:22:00	BASE	20.09	133	28.24	140	-1.0	50	-10.2	0	0	974.8	NA	0.0000	HZ	6000	0	0	0	0
2019/04/06 22:23:00	BASE	20.26	132	28.24	140	-1.0	49	-10.4	0	0	974.7	NA	0.0000	HZ	6000	0	0	0	0
2019/04/06 22:24:00	BASE	20.41	134	28.24	140	-1.0	48	-10.5	0	0	974.8	NA	0.0000	HZ	6000	0	0	0	0
2019/04/06 22:25:00	BASE	20.74	134	28.24	140	-1.0	48	-10.5	0	0	974.7	NA	0.0000	HZ	6000	0	0	0	0
2019/04/06 22:26:00	BASE	22.53	130	28.24	140	-1.0	49	-10.5	0	0	974.7	NA	0.0000	HZ	6000	0	0	0	0
2019/04/06 22:27:00	BASE	22.22	130	28.24	140	-1.0	49	-10.4	0	0	974.7	NA	0.0000	HZ	6000	0	0	0	0
2019/04/06 22:28:00	BASE	21.77	131	25.83	127	-1.0	49	-10.3	0	0	974.8	NA	0.0000	HZ	6000	0	0	0	0
2019/04/06 22:29:00	BASE	21.44	131	25.83	127	-1.0	49	-10.5	0	0	974.8	NA	0.0000	HZ	6000	0	0	0	0
2019/04/06 22:30:00	BASE	21.77	132	25.83	127	-1.0	48	-10.6	0	0	974.8	NA	0.0000	HZ	6000	0	0	0	0
2019/04/06 22:31:00	BASE	22.95	131	26.24	134	-1.0	48	-10.7	0	0	974.8	NA	0.0000	HZ	6000	0	0	0	0
2019/04/06 22:32:00	BASE	23.66	131	26.96	133	-1.1	48	-10.8	0	0	974.7	NA	0.0000	HZ	6000	0	0	0	0
2019/04/06 22:33:00	BASE	24.19	130	26.96	133	-1.1	47	-10.9	0	0	974.7	NA	0.0000	HZ	6000	0	0	0	0
2019/04/06 22:34:00	BASE	22.88	124	26.96	133	-1.1	48	-10.8	0	0	974.9	NA	0.0000	HZ	6000	0	0	0	0
2019/04/06 22:35:00	BASE	20.11	124	26.96	133	-1.1	48	-10.8	0	0	975.0	NA	0.0000	HZ	5000	0	0	0	0
2019/04/06 22:36:00	BASE	19.27	129	26.96	133	-1.1	48	-10.8	0	0	974.9	NA	0.0000	HZ	5000	0	0	0	0
2019/04/06 22:37:00	BASE	19.83	128	26.96	133	-1.2	48	-10.7	0	0	975.0	NA	0.0000	HZ	6000	0	0	0	0
2019/04/06 22:38:00	BASE	19.81	125	26.96	133	-1.2	49	-10.5	0	0	975.0	NA	0.0000	HZ	5000	0	0	0	0
2019/04/06 22:39:00	BASE	20.55	127	26.96	133	-1.3	50	-10.5	0	0	975.0	NA	0.0000	HZ	6000	0	0	0	0
2019/04/06 22:40:00	BASE	21.35	127	26.96	133	-1.3	50	-10.4	0	0	975.0	NA	0.0000	HZ	6000	0	0	0	0
2019/04/06 22:41:00	BASE	22.64	129	26.96	133	-1.3	50	-10.4	0	0	974.9	NA	0.0000	HZ	6000	0	0	0	0
2019/04/06 22:42:00	BASE	22.15	129	26.13	139	-1.3	50	-10.3	0	0	975.1	NA	0.0000	HZ	6000	0	0	0	0
2019/04/06 22:43:00	BASE	20.27	126	26.03	136	-1.3	50	-10.3	0	0	975.2	NA	0.0000	HZ	6000	0	0	0	0
2019/04/06 22:44:01	BASE	20.11	128	26.03	136	-1.3	51	-10.2	0	0	975.1	NA	0.0000	HZ	6000	0	0	0	0
2019/04/06 22:45:01	BASE	19.74	135	26.03	136	-1.3	51	-10.1	0	0	975.2	NA	0.0000	HZ	6000	0	0	0	0
2019/04/06 22:46:00	BASE	20.46	135	26.03	136	-1.3	52	-10.0	0	0	975.1	NA	0.0000	HZ	6000	0	0	0	0
2019/04/06 22:47:00	BASE	23.07	130	26.55	138	-1.3	51	-10.0	0	0	975.0	NA	0.0000	HZ	5000	0	0	0	0
2019/04/06 22:48:00	BASE	23.76	133	27.83	136	-1.2	51	-10.2	0	0	975.0	NA	0.0000	HZ	5000	0	0	0	0
2019/04/06 22:49:00	BASE	22.99	137	28.14	138	-1.2	50	-10.3	0	0	975.0	NA	0.0000	HZ	5000	0	0	0	0
2019/04/06 22:50:00	BASE	21.70	135	28.14	138	-1.2	49	-10.5	0	0	975.2	NA	0.0000	HZ	5000	0	0	0	0
2019/04/06 22:51:00	BASE	20.83	134	28.14	138	-1.1	49	-10.6	0	0	975.2	NA	0.0000	HZ	5000	0	0	0	0
2019/04/06 22:52:01	BASE	21.43	134	28.14	138	-1.1	49	-10.6	0	0	975.2	NA	0.0000	HZ	5000	0	0	0	0
2019/04/06 22:53:00	BASE	21.64	134	28.14	138	-1.1	49	-10.5	0	0	975.1	NA	0.0000	HZ	6000	0	0	0	0
2019/04/06 22:54:00	BASE	20.91	134	28.14	138	-1.1	49	-10.5	0	0	975.2	NA	0.0000	HZ	7000	0	0	0	0
2019/04/06 22:55:01	BASE	22.34	132	28.14	138	-1.2	49	-10.5	0	0	975.1	NA	0.0000	HZ	8000	0	0	0	0
2019/04/06 22:56:00	BASE	23.00	132	28.14	138	-1.1	49	-10.6	0	0	975.1	NA	0.0000	HZ	9000	0	0	0	0
2019/04/06 22:57:00	BASE	21.52	137	28.14	138	-1.1	48	-10.7	0	0	975.1	NA	0.0000	HZ	9999	0	0	0	0
2019/04/06 22:58:01	BASE	21.50	143	28.14	138	-1.1	48	-10.7	0	0	975.1	NA	0.0000	HZ	9999	0	0	0	0
2019/04/06 22:59:00	BASE	20.33	140	27.57	133	-1.1	48	-10.6	0	0	975.2	NA	0.0000	HZ	9999	0	0	0	0
2019/04/06 23:00:00	BASE	21.18	132	27.57	133	-1.0	49	-10.5	0	0	975.1	NA	0.0000	HZ	9999	0	0	0	0
2019/04/06 23:01:00	BASE	21.69	129	27.57	133	-1.0	49	-10.4	0	0	975.2	NA	0.0000	HZ	9999	0	0	0	0
2019/04/06 23:02:00	BASE	19.25	128	27.57	133	-1.0	50	-10.2	0	0	975.3	NA	0.0000	HZ	9999	0	0	0	0
2019/04/06 23:03:00	BASE	18.59	131	27.57	133	-1.0	50	-10.1	0	0	975.3	NA	0.0000	HZ	9999	0	0	0	0
2019/04/06 23:04:00	BASE	19.32	137	27.57	133	-1.0	51	-10.0	0	0	975.2	NA	0.0000		9999	0	0	0	0
2019/04/06 23:05:00	BASE	20.05	137	25.21	132	-1.0	51	-9.9	0	0	975.3	NA	0.0000		9999	0	0	0	0
2019/04/06 23:06:01	BASE	19.75	132	25.21	132	-1.0	51	-9.9	0	0	975.4	NA	0.0000		9999	0	0	0	0
2019/04/06 23:07:00	BASE	19.34	130	25.21	132	-1.0	50	-10.1	0	0	975.4	NA	0.0000		9999	0	0	0	0
2019/04/06 23:08:00	BASE	18.96	131	25.21	132	-1.0	50	-10.3	0	0	975.4	NA	0.0000		9999	0	0	0	0
2019/04/06 23:09:00	BASE	16.75	129	25.21	132	-1.1	49	-10.3	0	0	975.5	NA	0.0000		9999	0	0	0	0
2019/04/06 23:10:00	BASE	14.96	127	23.41	156	-1.1	50	-10.2	0	0	975.5	NA	0.0000		9999	0	0	0	0
2019/04/06 23:11:00	BASE	15.95	127	23.41	156	-1.2	51	-10.1	0	0	975.5	NA	0.0000		9999	0	0	0	0
2019/04/06 23:12:00	BASE	17.44	129	23.41	156	-1.2	51	-10.1	0	0	975.4	NA	0.0000		9999	0	0	0	0
2019/04/06 23:13:00	BASE	17.05	131	23.41	156	-1.2	50	-10.2	0	0	975.5	NA	0.0000		9999	0	0	0	0
2019/04/06 23:14:00	BASE	15.29	129	22.74	129	-1.2	50	-10.3	0	0	975.5	NA	0.0000		9999	0	0	0	0
2019/04/06 23:15:00	BASE	16.17	129	20.68	133	-1.2	50	-10.4	0	0	975.4	NA	0.0000		9999	0	0	0	0
2019/04/06 23:16:00	BASE	17.87	131	20.68	133	-1.2	49	-10.7	0	0	975.5	NA	0.0000		9999	0	0	0	0
2019/04/06 23:17:00	BASE	18.01	131	20.68	133	-1.2	48	-10.8	0	0	975.5	NA	0.0000		9999	0	0	0	0
2019/04/06 23:18:00	BASE	18.40	131	20.83	143	-1.2	48	-10.7	0	0	975.5	NA	0.0000		9999	0	0	0	0
2019/04/06 23:19:00	BASE	18.17	132	21.04	136	-1.2	48	-10.7	0	0	975.5	NA	0.0000		9999	0	0	0	0
2019/04/06 23:20:00	BASE	18.12	133	21.04	136	-1.2	48	-10.8	0	0	975.5	NA	0.0000		9999	0	0	0	0
2019/04/06 23:21:00	BASE	18.21	132	21.04	136	-1.1	48	-10.7	0	0	975.5	NA	0.0000		9999	0	0	0	0
2019/04/06 23:22:00	BASE	18.09	129	21.04	136	-1.1	49	-10.6	0	0	975.5	NA	0.0000		9999	0	0	0	0
2019/04/06 23:23:00	BASE	17.89	128	21.04	136	-1.1	49	-10.5	0	0	975.5	NA	0.0000		9999	0	0	0	0
2019/04/06 23:24:00	BASE	17.50	128	21.04	136	-1.1	49	-10.5	0	0	975.5	NA	0.0000		9999	0	0	0	0
2019/04/06 23:25:00	BASE	17.98	130	21.81	133	-1.1	49	-10.4	0	0	975.5	NA	0.0000		9999	0	0	0	0
2019/04/06 23:26:00	BASE	18.13	132	21.81	133	-1.1	49	-10.4	0	0	975.5	NA	0.0000		9999	0	0	0	0
2019/04/06 23:27:00	BASE	18.08	132	21.81	133	-1.1	49	-10.5	0	0	975.5	NA	0.0000		9999	0	0	0	0
2019/04/06 23:28:00	BASE	19.91	132	22.64	134	-1.1	49	-10.6	0	0	975.4	NA	0.0000		9999	0	0	0	0
2019/04/06 23:29:01	BASE	19.94	135	22.64	134	-1.1	48	-10.7	0	0	975.5	NA	0.0000		9999	0	0	0	0
2019/04/06 23:30:00	BASE	18.55	136	22.64	134	-1.1	48	-10.8	0	0	975.5	NA	0.0000		9999	0	0	0	0
2019/04/06 23:31:00	BASE	19.29	135	22.74	133	-1.1	47	-10.9	0	0	975.4	NA	0.0000		9999	0	0	0	0
2019/04/06 23:32:00	BASE	20.21	136	22.74	133	-1.1	47	-11.0	0	0	975.4	NA	0.0000		9999	0	0	0	0
2019/04/06 23:33:01	BASE	20.21	135	22.74	133	-1.1	47	-11.0	0	0	975.5	NA	0.0000		9999	0	0	0	0
2019/04/06 23:34:00	BASE	20.35	134	23.46	124	-1.1	47	-11.0	0	0	975.5	NA	0.0000		9999	0	0	0	0
2019/04/06 23:35:00	BASE	20.73	135	23.46	124	-1.1	47	-11.1	0	0	975.4	NA	0.0000		9999	0	0	0	0
2019/04/06 23:36:00	BASE	19.35	134	23.46	124	-1.1	47	-11.1	0	0	975.5	NA	0.0000		9999	0	0	0	0
2019/04/06 23:37:00	BASE	18.01	130	23.46	124	-1.1	47	-11.1	0	0	975.6	NA	0.0000		9999	0	0	0	0
2019/04/06 23:38:00	BASE	19.84	130	23.56	133	-1.1	47	-11.0	0	0	975.5	NA	0.0000		9999	0	0	0	0
2019/04/06 23:39:00	BASE	20.87	133	23.56	133	-1.1	47	-11.0	0	0	975.5	NA	0.0000		9999	0	0	0	0
2019/04/06 23:40:00	BASE	20.49	135	23.56	133	-1.1	47	-11.0	0	0	975.5	NA	0.0000		9999	0	0	0	0
2019/04/06 23:41:00	BASE	20.13	135	23.56	133	-1.1	47	-11.0	0	0	975.6	NA	0.0000		9999	0	0	0	0
2019/04/06 23:42:00	BASE	18.36	133	23.56	133	-1.1	47	-10.9	0	0	975.6	NA	0.0000		9999	0	0	0	0
2019/04/06 23:43:00	BASE	17.48	132	23.56	133	-1.1	47	-10.9	0	0	975.6	NA	0.0000		9999	0	0	0	0
2019/04/06 23:44:00	BASE	18.34	134	23.56	133	-1.1	48	-10.8	0	0	975.6	NA	0.0000		9999	0	0	0	0
2019/04/06 23:45:00	BASE	18.66	133	23.56	133	-1.1	48	-10.8	0	0	975.7	NA	0.0000		9999	0	0	0	0
2019/04/06 23:46:00	BASE	18.85	132	23.56	133	-1.1	48	-10.7	0	0	975.7	NA	0.0000		9999	0	0	0	0
2019/04/06 23:47:00	BASE	18.51	136	23.56	133	-1.1	48	-10.7	0	0	975.7	NA	0.0000		9999	0	0	0	0
2019/04/06 23:48:00	BASE	19.16	134	23.61	137	-1.2	48	-10.7	0	0	975.6	NA	0.0000		9999	0	0	0	0
2019/04/06 23:49:00	BASE	20.68	132	23.61	132	-1.1	48	-10.8	0	0	975.6	NA	0.0000		9999	0	0	0	0
2019/04/06 23:50:00	BASE	20.32	134	23.72	130	-1.1	48	-10.6	0	0	975.6	NA	0.0000		9999	0	0	0	0
2019/04/06 23:51:00	BASE	21.42	133	25.31	133	-1.1	49	-10.5	0	0	975.5	NA	0.0000		9000	0	0	0	0
2019/04/06 23:52:00	BASE	21.45	135	25.31	133	-1.1	49	-10.5	0	0	975.7	NA	0.0000		9999	0	0	0	0
2019/04/06 23:53:00	BASE	20.06	133	25.31	133	-1.1	49	-10.4	0	0	975.7	NA	0.0000		9999	0	0	0	0
2019/04/06 23:54:00	BASE	21.53	130	25.41	130	-1.1	49	-10.3	0	0	975.6	NA	0.0000		9999	0	0	0	0
2019/04/06 23:55:00	BASE	22.48	130	25.41	130	-1.0	49	-10.3	0	0	975.6	NA	0.0000		9999	0	0	0	0
2019/04/06 23:56:00	BASE	21.10	132	25.41	130	-1.0	50	-10.3	0	0	975.7	NA	0.0000		9999	0	0	0	0
2019/04/06 23:57:00	BASE	19.52	135	25.41	130	-1.0	50	-10.2	0	0	975.7	NA	0.0000		9999	0	0	0	0
2019/04/06 23:58:00	BASE	19.05	134	25.41	130	-1.0	49	-10.3	0	0	975.7	NA	0.0000		9999	0	0	0	0
2019/04/06 23:59:00	BASE	18.67	134	25.41	130	-1.0	49	-10.4	0	0	975.8	NA	0.0000		9999	0	0	0	0